[[{"header":{"parameterUnit":"m.s-1","parameterCategory":1,"la1":30.6,"la2":29.2853,"lo1":-89.7004,"lo2":-87.6739,"dy":0.0162,"dx":0.0183,"nx":112,"ny":82,"refTime":"2023-04-09T12:00:00:Z","depth":0,"parameterNumber":2,"parameterNumberName":"U-component_of_WINDS"},"data":[0.0,0.0,0.0,0.0,0.0,0.0,0.0,0.0,0.0,0.0,0.0,0.0,0.0,0.0,0.0,0.0,0.0,0.0,0.0,0.0,0.0,0.0,0.0,0.0,0.0,0.0,0.0,0.0,0.0,0.0,0.0,0.0,0.0,0.0,0.0,0.0,0.0,0.0,0.0,0.0,0.0,0.0,0.0,0.0,0.0,0.0,0.0,0.0,0.0,0.0,0.0,0.0,0.0,0.0,0.0,0.0,0.0,0.0,0.0,0.0,0.0,0.0,0.0,0.0,0.0,0.0,0.0,0.0,0.0,0.0,0.0,0.0,0.0,0.0,0.0,0.0,0.0,0.0,0.0,0.0,0.0,0.0,0.0,0.0,0.0,0.0,0.0,0.0,0.0,0.0,0.1787,0.1792,0.2876,0.3589,0.36,0.4624,0.5137,0.4856,0.0,0.0,0.0,0.0,0.0,0.0,0.0,0.0,0.0,0.0,0.0,0.0,0.0,0.0,0.0,0.0,0.0,0.0,0.0,0.0,0.0,0.0,0.0,0.0,0.0,0.0,0.0,0.0,0.0,0.0,0.0,0.0,0.0,0.0,0.0,0.0,0.0,0.0,0.0,0.0,0.0,0.0,0.0,0.0,0.0,0.0,0.0,0.0,0.0,0.0,0.0,0.0,0.0,0.0,0.0,0.0,0.0,0.0,0.0,0.0,0.0,0.0,0.0,0.0,0.0,0.0,0.0,0.0,0.0,0.0,0.0,0.0,0.0,0.0,0.0,0.0,0.0,0.0,0.0,0.0,0.0,0.0,0.0,0.0,0.0,0.0,0.0,0.0,0.0,0.0,0.0,0.0,0.0,0.0,0.0,0.0,0.0,0.0,0.0,0.0,0.0,0.0,0.0,0.0,0.1725,0.1785,0.1988,0.2155,0.2185,0.2334,0.2388,0.2361,0.0,0.0,0.0,0.0,0.0,0.0,0.0,0.0,0.0,0.0,0.0,0.0,0.0,0.0,0.0,0.0,0.0,0.0,0.0,0.0,0.0,0.0,0.0,0.0,0.0,0.0,0.0,0.0,0.0,0.0,0.0,0.0,0.0,0.0,0.0,0.0,0.0,0.0,0.0,0.0,0.0,0.0,0.0,0.0,0.0,0.0,0.0,0.0,0.0,0.0,0.0,0.0,0.0,0.0,0.0,0.0,0.0,0.0,0.0,0.0,0.0,0.0,0.0,0.0,0.0,0.0,0.0,0.0,0.0,0.0,0.0,0.0,0.0,0.0,0.0,0.0,0.0,0.0,0.0,0.0,0.0,0.0,0.0,0.0,0.0,0.0,0.0,0.0,0.0,0.0,0.0,0.0,0.0,0.0,0.0,0.0,0.0,0.0,0.0,0.0,0.0,0.0,0.0,0.1743,0.1774,0.1801,0.1804,0.1817,0.183,0.1806,0.18,0.1807,0.2761,0.0,0.0,0.0,0.0,0.0,0.0,0.0,0.0,0.0,0.0,0.0,0.0,0.0,0.0,0.0,0.0,0.0,0.0,0.0,0.0,0.0,0.0,0.0,0.0,0.0,0.0,0.0,0.0,0.0,0.0,0.0,0.0,0.0,0.0,0.0,0.0,0.0,0.0,0.0,0.0,0.0,0.0,0.0,0.0,0.0,0.0,0.0,0.0,0.0,0.0,0.0,0.0,0.0,0.0,0.0,0.0,0.0,0.0,0.0,0.0,0.0,0.0,0.0,0.0,0.0,0.0,0.0,0.0,0.0,0.0,0.0,0.0,0.0,0.0,0.0,0.0,0.0,0.0,0.0,0.0,0.0,0.0,0.0,0.0,0.0,0.0,0.0,0.0,0.0,0.0,0.0,0.0,0.0,0.0,0.0,0.0,0.0,0.0,0.0,0.0,0.0,0.0,0.1736,0.1801,0.1767,0.1793,0.1801,0.1801,0.1801,0.1804,0.1769,0.1718,0.0,0.0,0.0,0.0,0.0,0.0,0.0,0.0,0.0,0.0,0.0,0.0,0.0,0.0,0.0,0.0,0.0,0.0,0.0,0.0,0.0,0.0,0.0,0.0,0.0,0.0,0.0,0.0,0.0,0.0,0.0,0.0,0.0,0.0,0.0,0.0,0.0,0.0,0.0,0.0,0.0,0.0,0.0,0.0,0.0,0.0,0.0,0.0,0.0,0.0,0.0,0.0,0.0,0.0,0.0,0.0,0.0,0.0,0.0,0.0,0.0,0.0,0.0,0.0,0.0,0.0,0.0,0.0,0.0,0.0,0.0,0.0,0.0,0.0,0.0,0.0,0.0,0.0,0.0,0.0,0.0,0.0,0.0,0.0,0.0,0.0,0.0,0.0,0.0,0.0,0.0,0.0,0.0,0.0,0.0,0.0,0.0,0.0,0.0,0.0,0.0,0.0,0.1722,0.1765,0.1711,0.1761,0.1798,0.1798,0.1798,0.1772,0.1711,0.1705,0.0,0.0,0.0,0.0,0.0,0.0,0.0,0.0,0.0,0.0,0.0,0.0,0.0,0.0,0.0,0.0,0.0,0.0,0.0,0.0,0.0,0.0,0.0,0.0,0.0,0.0,0.0,0.0,0.0,0.0,0.0,0.0,0.0,0.0,0.0,0.0,0.0,0.0,0.0,0.0,0.0,0.0,0.0,0.0,0.0,0.0,0.0,0.0,0.0,0.0,0.0,0.0,0.0,0.0,0.0,0.0,0.0,0.0,0.0,0.0,0.0,0.0,0.0,0.0,0.0,0.0,0.0,0.0,0.0,0.0,0.0,0.0,0.0,0.0,0.0,0.0,0.0,0.0,0.0,0.0,0.0,0.0,0.0,0.0,0.0,0.0,0.0,0.0,0.0,0.0,0.0,0.0,0.0,0.0,0.0,0.0,0.0,0.0,0.0,0.0,0.0,0.0,0.1733,0.1799,0.1761,0.1797,0.1795,0.1795,0.1795,0.177,0.1708,0.0,0.0,0.0,0.0,0.0,0.0,0.0,0.0,0.0,0.0,0.0,0.0,0.0,0.0,0.0,0.0,0.0,0.0,0.0,0.0,0.0,0.0,0.0,0.0,0.0,0.0,0.0,0.0,0.0,0.0,0.0,0.0,0.0,0.0,0.0,0.0,0.0,0.0,0.0,0.0,0.0,0.0,0.0,0.0,0.0,0.0,0.0,0.0,0.0,0.0,0.0,0.0,0.0,0.0,0.0,0.0,0.0,0.0,0.0,0.0,0.0,0.0,0.0,0.0,0.0,0.0,0.0,0.0,0.0,0.0,0.0,0.0,0.0,0.0,0.0,0.0,0.0,0.0,0.0,0.0,0.0,0.0,0.0,0.0,0.0,0.0,0.0,0.0,0.0,0.0,0.0,0.0,0.0,0.0,0.0,0.0,0.0,0.0,0.0,0.0,0.0,0.0,0.1706,0.1754,0.1787,0.1805,0.1804,0.1795,0.1795,0.1804,0.1779,0.1708,0.0,0.0,0.0,0.0,0.0,0.0,0.0,0.0,0.0,0.0,0.0,0.0,0.0,0.0,0.0,0.0,0.0,0.0,0.0,0.0,0.0,0.0,0.0,0.0,0.0,0.0,0.0,0.0,0.0,0.0,0.0,0.0,0.0,0.0,0.0,0.0,0.0,0.0,0.0,0.0,0.0,0.0,0.0,0.0,0.0,0.0,0.0,0.0,0.0,0.0,0.0,0.0,0.0,0.0,0.0,0.0,0.0,0.0,0.0,0.0,0.0,0.0,0.0,0.0,0.0,0.0,0.0,0.0,0.0,0.0,0.0,0.0,0.0,0.0,0.0,0.0,0.0,0.0,0.0,0.0,0.0,0.0,0.0,0.0,0.0,0.0,0.0,0.0,0.0,0.0,0.0,0.0,0.0,0.0,0.0,0.0,0.0,0.0,0.0,0.0,0.0,0.0,0.171,0.1757,0.1812,0.1809,0.1805,0.1795,0.1795,0.1794,0.1773,0.0,0.0,0.0,0.0,0.0,0.0,0.0,0.0,0.0,0.0,0.0,0.0,0.0,0.0,0.0,0.0,0.0,0.0,0.0,0.0,0.0,0.0,0.0,0.0,0.0,0.0,0.0,0.0,0.0,0.0,0.0,0.0,0.0,0.0,0.0,0.0,0.0,0.0,0.0,0.0,0.0,0.0,0.0,0.0,0.0,0.0,0.0,0.0,0.0,0.0,0.0,0.0,0.0,0.0,0.0,0.0,0.0,0.0,0.0,0.0,0.0,0.0,0.0,0.0,0.0,0.0,0.0,0.0,0.0,0.0,0.0,0.0,0.0,0.0,0.0,0.0,0.0,0.0,0.0,0.0,0.0,0.0,0.0,0.0,0.0,0.0,0.0,0.0,0.0,0.0,0.0,0.0,0.0,0.0,0.0,0.0,0.0,0.0,0.0,0.0,0.0,0.0,0.0,0.177,0.1774,0.1832,0.1873,0.1883,0.1859,0.1859,0.1818,0.1792,0.1771,0.0,0.0,0.0,0.0,0.0,0.0,0.0,0.0,0.0,0.0,0.0,0.0,0.0,0.0,0.0,0.0,0.0,0.0,0.0,0.0,0.0,0.0,0.0,0.0,0.0,0.0,0.0,0.0,0.0,0.0,0.0,0.0,0.0,0.0,0.0,0.0,0.0,0.0,0.0,0.0,0.0,0.0,0.0,0.0,0.0,0.0,0.0,0.0,0.0,0.0,0.0,0.0,0.0,0.0,0.0,0.0,0.0,0.0,0.0,0.0,0.0,0.0,0.0,0.0,0.0,0.0,0.0,0.0,0.0,0.0,0.0,0.0,0.0,0.0,0.0,0.0,0.0,0.0,0.0,0.0,0.0,0.0,0.0,0.0,0.0,0.0,0.0,0.0,0.0,0.0,0.0,0.0,0.0,0.0,0.0,0.0,0.0,0.0,0.0,0.0,0.0,0.0,0.1813,0.181,0.1865,0.1884,0.1885,0.1885,0.1885,0.1752,0.1639,0.1602,0.0,0.0,0.0,0.0,0.0,0.0,0.0,0.0,0.0,0.0,0.0,0.0,0.0,0.0,0.0,0.0,0.0,0.0,0.0,0.0,0.0,0.0,0.0,0.0,0.0,0.0,0.0,0.0,0.0,0.0,0.0,0.0,0.0,0.0,0.0,0.0,0.0,0.0,0.0,0.0,0.0,0.0,0.0,0.0,0.0,0.0,0.0,0.0,0.0,0.0,0.0,0.0,0.0,0.0,0.0,0.0,0.0,0.0,0.0,0.0,0.0,0.0,0.0,0.0,0.0,0.0,0.0,0.0,0.0,0.0,0.0,0.0,0.0,0.0,0.0,0.0,0.0,0.0,0.0,0.0,0.0,0.0,0.0,0.0,0.0,0.0,0.0,0.0,0.0,0.0,0.0,0.0,0.0,0.0,0.0,0.0,0.0,0.0,0.0,0.0,0.0,0.0,0.1816,0.187,0.1891,0.1923,0.1923,0.1894,0.1864,0.1566,0.137,0.127,0.0,0.0,0.0,0.0,0.0,0.0,0.0,0.0,0.0,0.0,0.0,0.0,0.0,0.0,0.0,0.0,0.0,0.0,0.0,0.0,0.0,0.0,0.0,0.0,0.0,0.0,0.0,0.0,0.0,0.0,0.0,0.0,0.0,0.0,0.0,0.0,0.0,0.0,0.0,0.0,0.0,0.0,0.0,0.0,0.0,0.0,0.0,0.0,0.0,0.0,0.0,0.0,0.0,0.0,0.0,0.0,0.0,0.0,0.0,0.0,-0.1254,-0.0859,0.0,0.0,0.0,0.0,0.0,0.0,0.0,0.0,0.0,0.0,0.0,0.0,0.0,0.0,0.0,0.0,0.0,0.0,0.0,0.0,0.0,0.0,0.0,0.0,0.0,0.0,0.0,0.0,0.0,0.0,0.0,0.0,0.0,0.0,0.0,0.0,0.0,0.0,0.0,0.0,0.1873,0.1903,0.193,0.1985,0.1988,0.1866,0.162,0.1481,0.128,0.0992,0.0996,0.0,0.0,0.0,0.0,0.0,0.0,0.0,0.0,0.0,0.0,0.0,0.0,0.0,0.0,0.0,0.0,0.0,0.0,0.0,0.0,0.0,0.0,0.0,0.0,0.0,0.0,0.0,0.0,0.0,0.0,0.0,0.0,0.0,0.0,0.0,0.0,0.0,0.0,0.0,0.0,0.0,0.0,0.0,0.0,0.0,0.0,0.0,0.0,0.0,0.0,0.0,0.0,0.0,0.0,0.0,0.0,0.0,0.0,0.0,-0.1342,-0.1368,0.0,0.0,0.0,0.0,0.0,0.0,0.0,0.0,0.0,0.0,0.0,0.0,0.0,0.0,0.0,0.0,0.0,0.0,0.0,0.0,0.0,0.0,0.0,0.0,0.0,0.0,0.0,0.0,0.0,0.0,0.0,0.0,0.0,0.0,0.0,0.0,0.0,0.0,0.0,0.0,0.1903,0.1934,0.1959,0.2006,0.1853,0.1699,0.1513,0.1187,0.0902,0.0715,0.0665,0.0,0.0,0.0,0.0,0.0,0.0,0.0,0.0,0.0,0.0,0.0,0.0,0.0,0.0,0.0,0.0,0.0,0.0,0.0,0.0,0.0,0.0,0.0,0.0,0.0,0.0,0.0,0.0,0.0,0.0,0.0,0.0,0.0,0.0,0.0,0.0,0.0,0.0,0.0,0.0,0.0,0.0,0.0,0.0,0.0,0.0,0.0,0.0,0.0,0.0,0.0,0.0,0.0,-0.3212,-0.2377,-0.0945,-0.1002,-0.0251,0.0994,-0.103,-0.1435,-0.0717,-0.0848,0.0,0.0,0.0,0.0,0.0,0.0,0.0,0.0,0.0,0.0,0.0,0.0,0.0,0.0,0.0,0.0,0.0,0.0,0.0,0.0,0.0,0.0,0.2089,0.2095,0.2116,0.2082,0.2039,0.0,0.0,0.0,0.0,0.0,0.0,0.0,0.0,0.0,0.0,0.0,0.1898,0.1958,0.2008,0.2008,0.1699,0.1482,0.142,0.0854,0.0484,0.0422,0.0353,0.0345,0.0,0.0,0.0,0.0,0.0,0.0,0.0,0.0,0.0,0.0,0.0,0.0,0.0,0.0,0.0,0.0,0.0,0.0,0.0,0.0,0.0,0.0,0.0,0.0,0.0,0.0,0.0,0.0,0.0,0.0,0.0,0.0,-0.2973,-0.266,0.0,0.0,0.0,0.0,0.0,0.0,0.0,0.0,0.0,0.0,0.0,0.0,0.0,-0.3991,-0.3423,-0.3546,-0.3258,-0.2562,-0.2526,-0.2057,-0.1159,-0.1126,-0.0601,0.0225,-0.0373,0.0,0.0852,0.0511,0.0,0.0,0.0,0.0,0.0,0.0,0.0,0.0,0.0,0.0,0.0,0.0,0.0,0.0,0.0,0.0,0.0,0.0,0.0,0.0,0.0,0.0,0.2031,0.2089,0.2099,0.2099,0.2087,0.2031,0.2012,0.1977,0.1932,0.1894,0.0,0.0,0.0,0.0,0.0,0.0,0.19,0.1958,0.2008,0.2008,0.1699,0.1389,0.108,0.0709,0.0367,0.0091,0.006,0.0149,0.0381,0.0438,0.0,0.0,0.0,0.0,0.0,0.0,0.0,0.0,0.0,0.0,0.0,0.0,0.0,0.0,0.0,0.0,0.0,0.0,0.0,0.0,0.0,0.0,0.0,0.0,0.0,0.0,0.0,0.0,0.0,-0.2941,-0.3128,-0.2869,-0.3435,-0.3823,0.0,0.0,0.0,0.0,0.0,0.0,0.0,0.0,0.0,-0.4234,-0.4049,-0.3952,-0.3914,-0.3421,-0.2883,-0.2352,-0.1624,-0.0742,0.0273,0.0236,0.0709,0.1498,0.134,0.1547,0.1908,0.0752,0.0519,0.0909,0.0,0.0,0.0,0.0,0.2069,0.2075,0.2109,0.212,0.2123,0.2132,0.0,0.0,0.0,0.0,0.0,0.0,0.0,0.2064,0.2061,0.2095,0.2124,0.2138,0.2154,0.2166,0.2166,0.2142,0.2101,0.2,0.1966,0.1939,0.1907,0.1906,0.0,0.0,0.0,0.1912,0.1945,0.1992,0.2,0.2,0.1688,0.1375,0.1032,0.0869,0.0556,0.0031,0.0183,0.0331,0.0448,0.0444,0.0675,0.0,0.0,0.0,0.0,0.0,0.0,0.0,0.0,0.0,0.0,0.0,0.0,0.0,0.0,0.0,0.0,0.0,0.0,0.0,0.0,0.0,0.0,0.0,0.0,0.0,0.0,0.0,0.0,-0.2547,-0.269,-0.2593,-0.2997,-0.3415,0.0,0.0,0.0,0.0,0.0,0.0,-0.4148,-0.3477,-0.3524,-0.4367,-0.3452,-0.322,-0.3854,-0.2843,-0.2109,-0.1671,-0.0729,0.0326,0.1384,0.1358,0.1812,0.2615,0.263,0.2612,0.2518,0.1199,0.0828,0.1195,0.1608,0.1794,0.1793,0.2057,0.2155,0.2162,0.2207,0.2223,0.2221,0.224,0.2224,0.2201,0.2147,0.0,0.0,0.0,0.0,0.2116,0.2138,0.2189,0.2234,0.2234,0.2216,0.223,0.2224,0.2238,0.2189,0.2075,0.2048,0.1991,0.1932,0.1941,0.0,0.1941,0.1919,0.1907,0.1886,0.1886,0.1825,0.1743,0.1454,0.1138,0.0889,0.0786,0.0533,0.0032,0.0249,0.0368,0.0368,0.0363,0.0569,0.0954,0.0,0.0,0.0,0.0,0.0,0.0,0.0,0.0,0.0,0.0,0.0,0.0,0.0,0.0,0.0,0.0,0.0,0.0,0.0,0.0,0.0,0.0,0.0,0.0,0.0,0.0,0.0,0.0,0.0,-0.1177,-0.1783,0.0,0.0,0.0,0.0,-0.4604,-0.4368,-0.4366,-0.4747,-0.3224,-0.3166,-0.4886,-0.2479,-0.1636,-0.2677,-0.1368,-0.0476,0.0,0.0043,0.056,0.1407,0.138,0.1831,0.2606,0.2664,0.2638,0.2592,0.2419,0.2364,0.2293,0.2272,0.2249,0.2283,0.2292,0.2282,0.2282,0.2285,0.2286,0.229,0.228,0.225,0.2199,0.2203,0.2206,0.0,0.0,0.2191,0.2202,0.2204,0.2246,0.2289,0.2289,0.2291,0.2284,0.2294,0.2288,0.2259,0.22,0.2124,0.2086,0.1993,0.0,0.2069,0.2013,0.1997,0.1889,0.1576,0.1527,0.1406,0.1092,0.0764,0.054,0.0515,0.0226,0.0032,0.0,0.0,0.0032,0.0032,0.0032,0.0313,0.0893,0.091,0.0,0.0,0.0,0.0,0.0,0.0,0.0,0.0,0.0,0.0,0.0,0.0,0.0,0.0,0.0,0.0,0.0,0.0,0.0,0.0,0.0,0.0,0.0,0.0,0.0,0.0,0.0,0.0,-0.0532,-0.0964,0.0,-0.1455,-0.1663,-0.1784,-0.1874,-0.2003,-0.2076,-0.2016,-0.1479,-0.1574,-0.2541,-0.1324,-0.099,-0.1692,-0.035,0.0395,0.0571,0.1439,0.1996,0.2292,0.2301,0.2462,0.2736,0.2758,0.2748,0.2713,0.2642,0.2572,0.2506,0.2444,0.242,0.2417,0.2387,0.2376,0.2376,0.2376,0.2376,0.2375,0.2365,0.2334,0.226,0.2267,0.2251,0.2278,0.2278,0.2271,0.2265,0.2265,0.231,0.2348,0.2367,0.2378,0.2351,0.2379,0.2376,0.2356,0.2283,0.2214,0.2154,0.2146,0.2149,0.2149,0.2127,0.2132,0.208,0.1966,0.1961,0.1895,0.1779,0.1439,0.1133,0.0896,0.0724,0.0458,0.0033,0.0195,0.042,0.0645,0.0637,0.0945,0.1596,0.1558,0.1654,0.0,0.0,0.0,0.0,0.0,0.0,0.0,0.0,0.0,0.0,0.0,0.0,0.0,0.0,0.0,0.0,0.0,0.0,0.0,0.0,0.0,0.0,0.0,0.0,0.0,0.0227,0.0196,0.0159,0.0081,-0.0082,-0.0366,-0.0486,-0.0572,-0.0588,-0.0844,-0.0898,-0.0746,-0.0306,-0.0395,-0.1153,0.0,0.0268,-0.0491,0.085,0.1525,0.157,0.2451,0.2838,0.2827,0.2827,0.2816,0.2799,0.281,0.2801,0.2781,0.2751,0.2698,0.2668,0.2585,0.2553,0.2511,0.2491,0.2484,0.2484,0.2484,0.2477,0.2466,0.2484,0.2418,0.2352,0.2372,0.2367,0.2367,0.2367,0.2387,0.2409,0.2409,0.2446,0.2478,0.2458,0.2469,0.2481,0.2472,0.2461,0.2439,0.2388,0.2307,0.2229,0.2213,0.2221,0.2225,0.2193,0.2206,0.2155,0.2062,0.202,0.1987,0.1867,0.162,0.1369,0.1119,0.108,0.0872,0.0399,0.0592,0.0784,0.1007,0.0993,0.1271,0.1812,0.1892,0.192,0.1902,0.0,0.0,0.0,0.0,0.0,0.0,0.0,0.0,0.0,0.0,0.0,0.0,0.0,0.0,0.0,0.0,0.0,0.0,0.0,0.0,0.0,0.0,0.0,0.056,0.1111,0.1486,0.1023,0.1372,0.1279,0.0393,-0.0044,-0.0489,-0.1032,-0.0998,-0.0999,-0.1079,0.0227,0.0363,-0.1034,0.1498,0.2282,0.1004,0.2305,0.3011,0.3011,0.301,0.2947,0.2919,0.2917,0.2886,0.279,0.2863,0.2842,0.2789,0.2816,0.2811,0.2773,0.2654,0.2607,0.2607,0.2605,0.2604,0.2601,0.2601,0.2583,0.2602,0.2602,0.2541,0.2517,0.2517,0.2517,0.2517,0.2517,0.2538,0.2602,0.2602,0.2582,0.2601,0.2601,0.2601,0.2594,0.2607,0.2537,0.2508,0.2516,0.2401,0.2275,0.2222,0.2256,0.2264,0.221,0.2213,0.0,0.176,0.1737,0.1605,0.1262,0.1215,0.1206,0.1135,0.1184,0.1178,0.1113,0.111,0.107,0.1021,0.1006,0.116,0.1513,0.1841,0.1958,0.1903,0.0,0.0,0.0,0.0,0.0,0.0,0.0,0.0,0.0,0.0,0.0,0.0,0.0,0.0,0.0,0.0,0.0,0.0,0.0,0.0,0.0,0.25,0.2419,0.2074,0.225,0.2413,0.2431,0.252,0.2546,0.2325,0.2192,0.2057,0.1922,0.1928,0.1935,0.1896,0.2266,0.2312,0.1943,0.2663,0.2857,0.2476,0.2864,0.3061,0.3059,0.3016,0.299,0.2981,0.2958,0.2941,0.2924,0.2911,0.2896,0.2876,0.2798,0.2779,0.2811,0.2755,0.2733,0.2728,0.2684,0.2639,0.2601,0.2601,0.2597,0.259,0.259,0.2585,0.2578,0.2578,0.2578,0.2578,0.2578,0.2583,0.259,0.259,0.2596,0.2601,0.2601,0.2601,0.26,0.2592,0.2583,0.257,0.2579,0.2553,0.2469,0.2378,0.2376,0.2371,0.2359,0.235,0.2327,0.2223,0.2194,0.2164,0.2086,0.1824,0.1625,0.1595,0.1302,0.1109,0.1113,0.1067,0.112,0.1363,0.1375,0.1515,0.1845,0.1961,0.1979,0.0,0.0,0.0,0.0,0.0,0.0,0.0,0.0,0.0,0.0,0.0,0.0,0.0,0.0,0.0,0.0,0.0,0.0,0.0,0.0,0.0,0.0,0.2673,0.2778,0.2836,0.2848,0.2898,0.3029,0.3056,0.307,0.3088,0.3091,0.3091,0.3091,0.3101,0.3165,0.3134,0.3119,0.3166,0.3135,0.3123,0.3116,0.3116,0.3116,0.3116,0.3116,0.3081,0.3056,0.3044,0.3026,0.3058,0.3045,0.2968,0.2954,0.295,0.2904,0.2885,0.2878,0.0,0.0,0.0,0.0,0.2707,0.2677,0.2677,0.2669,0.2658,0.2658,0.265,0.2639,0.2639,0.2639,0.2639,0.2639,0.2639,0.2639,0.2639,0.2639,0.2639,0.2639,0.2639,0.2639,0.2639,0.263,0.2616,0.26,0.2586,0.0,0.2507,0.2477,0.2451,0.2459,0.2431,0.2432,0.2401,0.2413,0.2417,0.2399,0.2209,0.2043,0.204,0.1805,0.0,0.0,0.0,0.1591,0.1743,0.1737,0.0,0.0,0.0,0.2057,0.2045,0.1996,0.0,0.0,0.193,0.1921,0.0,0.0,0.0,0.0,0.0,0.0,0.0,0.0,0.0,0.0,0.0,0.0,0.0,0.0,0.0,0.0,0.2841,0.2968,0.3107,0.3052,0.3056,0.3107,0.314,0.3109,0.3113,0.3113,0.3113,0.3113,0.3187,0.3204,0.3204,0.3204,0.0,0.0,0.0,0.3113,0.3113,0.3111,0.3108,0.3108,0.3105,0.3088,0.3108,0.3108,0.3092,0.3108,0.3031,0.3016,0.301,0.3025,0.3011,0.2998,0.289,0.2799,0.2793,0.2793,0.2789,0.2784,0.2784,0.0,0.0,0.27,0.2725,0.2702,0.2702,0.2702,0.2702,0.2702,0.2702,0.2702,0.2702,0.2702,0.2702,0.2698,0.2698,0.2697,0.2692,0.2671,0.261,0.261,0.263,0.2612,0.2612,0.2563,0.2514,0.2523,0.2521,0.2473,0.2443,0.2442,0.2405,0.2439,0.2398,0.0,0.2429,0.2379,0.2338,0.2221,0.2215,0.2158,0.211,0.2101,0.2102,0.2107,0.2101,0.2101,0.2106,0.2106,0.2106,0.2105,0.1986,0.196,0.0,0.0,0.0,0.0,0.0,0.0,0.0,0.0,0.0,0.0,0.0,0.0,0.0,0.0,0.0,0.2853,0.298,0.3093,0.3183,0.3212,0.3219,0.3206,0.3231,0.326,0.3284,0.3287,0.3287,0.3287,0.3292,0.3295,0.3295,0.3295,0.3295,0.3295,0.329,0.3287,0.3287,0.3262,0.325,0.325,0.3225,0.0,0.3171,0.3171,0.3155,0.3074,0.3093,0.3066,0.3089,0.301,0.2983,0.3004,0.2982,0.2944,0.2901,0.2901,0.2826,0.2784,0.2784,0.278,0.2774,0.2774,0.277,0.2766,0.2766,0.2766,0.0,0.2766,0.2766,0.2766,0.2766,0.2766,0.2759,0.2692,0.2687,0.268,0.2698,0.2688,0.2684,0.2684,0.2679,0.2675,0.2675,0.2624,0.2575,0.2586,0.2562,0.2566,0.2577,0.2553,0.2559,0.2575,0.2511,0.2484,0.2492,0.2384,0.2324,0.2285,0.2242,0.2189,0.2171,0.2177,0.2177,0.2171,0.2177,0.2177,0.2171,0.2171,0.2171,0.2168,0.2102,0.2074,0.0,0.0,0.0,0.0,0.0,0.0,0.0,0.0,0.0,0.0,0.0,0.2568,0.2675,0.0,0.2861,0.2966,0.313,0.323,0.329,0.3337,0.3344,0.3283,0.329,0.331,0.3341,0.3344,0.335,0.3366,0.3366,0.3373,0.3388,0.3374,0.3373,0.3389,0.3359,0.3344,0.3344,0.3314,0.3298,0.3298,0.3283,0.3268,0.3254,0.3239,0.3224,0.3206,0.3161,0.3134,0.3166,0.3088,0.3066,0.3052,0.3052,0.2996,0.2963,0.2963,0.2944,0.2917,0.2917,0.2898,0.2829,0.2829,0.2808,0.2784,0.2784,0.2784,0.2787,0.2801,0.2795,0.2787,0.2801,0.2795,0.2784,0.274,0.2772,0.2757,0.2742,0.2727,0.271,0.2695,0.2692,0.2692,0.2692,0.2668,0.2637,0.2608,0.2602,0.2597,0.2582,0.2593,0.2597,0.2582,0.2567,0.2547,0.2556,0.2431,0.2323,0.2315,0.2256,0.2243,0.2213,0.2192,0.2193,0.2211,0.2192,0.22,0.22,0.22,0.22,0.2199,0.2169,0.2138,0.0,0.0,0.0,0.0,0.0,0.0,0.0,0.2461,0.2497,0.2647,0.2661,0.2728,0.2857,0.2979,0.3086,0.3123,0.3277,0.336,0.3396,0.3444,0.3452,0.3389,0.3371,0.3371,0.339,0.3456,0.3418,0.3437,0.3444,0.3457,0.3536,0.3454,0.3449,0.3474,0.3475,0.3443,0.3436,0.3354,0.3336,0.3329,0.3329,0.3326,0.3321,0.3302,0.329,0.3281,0.3228,0.3202,0.3194,0.3164,0.3099,0.3093,0.3191,0.3227,0.3182,0.3076,0.3021,0.3016,0.301,0.2977,0.2937,0.2937,0.2902,0.2818,0.2818,0.2818,0.2823,0.2848,0.2837,0.2823,0.2848,0.2837,0.2821,0.2834,0.2819,0.2797,0.2785,0.2763,0.2739,0.2714,0.271,0.271,0.271,0.271,0.2699,0.2628,0.2638,0.2622,0.2627,0.2623,0.2619,0.2619,0.2613,0.2594,0.2595,0.2484,0.2378,0.2318,0.233,0.2294,0.2245,0.2232,0.223,0.2236,0.2224,0.2233,0.2228,0.2228,0.2228,0.2228,0.2228,0.2195,0.3523,0.3525,0.3481,0.3113,0.3098,0.3139,0.0,0.2759,0.2797,0.2863,0.2943,0.3063,0.3059,0.3165,0.3266,0.333,0.345,0.3461,0.3461,0.3476,0.3496,0.3537,0.3496,0.3454,0.349,0.3534,0.3555,0.3476,0.3555,0.3572,0.3576,0.3544,0.3476,0.3478,0.3502,0.3475,0.3502,0.3416,0.3388,0.3414,0.3414,0.3347,0.3322,0.3345,0.3341,0.3314,0.328,0.325,0.3223,0.3195,0.3167,0.3142,0.3631,0.3818,0.3746,0.3253,0.3072,0.2998,0.3017,0.3003,0.2998,0.2998,0.2993,0.2988,0.2988,0.2988,0.2988,0.2992,0.2989,0.2988,0.2992,0.2989,0.2975,0.2881,0.2912,0.2894,0.2795,0.2781,0.2777,0.2774,0.2773,0.2773,0.2773,0.2773,0.2762,0.2689,0.2702,0.2692,0.2676,0.2699,0.2683,0.2683,0.2617,0.2567,0.2526,0.251,0.2478,0.2379,0.2373,0.2369,0.2362,0.2365,0.239,0.2395,0.2361,0.235,0.2287,0.2287,0.2287,0.2287,0.2287,0.2256,0.3999,0.3954,0.3901,0.3877,0.3915,0.3981,0.383,0.3768,0.3816,0.3986,0.4071,0.4106,0.4265,0.4346,0.4395,0.4428,0.4265,0.4119,0.4071,0.3825,0.3628,0.3579,0.3927,0.4038,0.3664,0.3611,0.3618,0.3625,0.3636,0.3643,0.3643,0.3632,0.3614,0.354,0.3569,0.3538,0.3509,0.3479,0.3449,0.3472,0.3437,0.342,0.3374,0.3386,0.3366,0.3321,0.3307,0.3295,0.3283,0.3628,0.3756,0.3723,0.4274,0.4462,0.4382,0.4151,0.387,0.3516,0.3502,0.3341,0.304,0.304,0.3017,0.2988,0.2988,0.3021,0.3011,0.2983,0.3021,0.3011,0.2983,0.3207,0.3329,0.3045,0.3153,0.3253,0.291,0.2834,0.281,0.281,0.281,0.2815,0.2833,0.2836,0.2831,0.2819,0.2776,0.275,0.2762,0.2754,0.2739,0.2721,0.2634,0.2591,0.2554,0.256,0.2522,0.2478,0.2459,0.2442,0.2386,0.2386,0.2417,0.2405,0.2387,0.2372,0.236,0.2305,0.2296,0.2296,0.2296,0.2283,0.458,0.4516,0.4546,0.4612,0.4663,0.4715,0.4602,0.4583,0.4645,0.4851,0.4871,0.4952,0.5111,0.5181,0.5209,0.5234,0.5026,0.483,0.4833,0.4474,0.4211,0.4203,0.4636,0.4766,0.4284,0.4211,0.4211,0.4226,0.4243,0.4193,0.4009,0.3999,0.3865,0.3659,0.379,0.3818,0.3792,0.3917,0.3996,0.4026,0.3988,0.3968,0.392,0.3909,0.3878,0.383,0.382,0.3811,0.3854,0.427,0.4404,0.4418,0.4931,0.5115,0.5079,0.5245,0.4801,0.4136,0.4125,0.3909,0.3547,0.3547,0.3512,0.352,0.352,0.3502,0.3485,0.3453,0.3486,0.3471,0.3439,0.3707,0.383,0.3332,0.3484,0.3582,0.3023,0.2896,0.2866,0.2866,0.2866,0.2872,0.2939,0.2944,0.2944,0.2944,0.2853,0.2814,0.2797,0.2788,0.2772,0.2699,0.2656,0.2624,0.2607,0.2608,0.2571,0.254,0.2518,0.2496,0.2473,0.2465,0.2457,0.241,0.2418,0.2433,0.2415,0.2356,0.2304,0.2296,0.2296,0.2296,0.5302,0.5472,0.5479,0.5259,0.5207,0.5167,0.4876,0.4819,0.491,0.5052,0.5109,0.5119,0.516,0.5217,0.5222,0.536,0.542,0.5497,0.5628,0.5612,0.5559,0.5642,0.558,0.5543,0.5527,0.5573,0.5636,0.5655,0.5728,0.5459,0.4824,0.4787,0.4458,0.3723,0.4183,0.4484,0.4541,0.5026,0.5258,0.5364,0.5272,0.5252,0.5246,0.5201,0.5124,0.512,0.5076,0.5033,0.5046,0.5046,0.5019,0.5028,0.5548,0.5755,0.58,0.626,0.5712,0.4772,0.4776,0.4759,0.4759,0.4759,0.4757,0.4755,0.4755,0.4753,0.4743,0.4651,0.4639,0.4628,0.4586,0.4571,0.4419,0.3908,0.3804,0.3652,0.3105,0.3004,0.3003,0.3003,0.3003,0.3003,0.3004,0.3004,0.3004,0.3004,0.2932,0.2891,0.279,0.2801,0.2772,0.2699,0.2693,0.2669,0.261,0.2603,0.259,0.2601,0.2598,0.2597,0.2597,0.261,0.2581,0.2512,0.2482,0.2476,0.2415,0.2415,0.2361,0.2296,0.2296,0.2296,0.5566,0.5781,0.5918,0.5977,0.6065,0.608,0.6088,0.6092,0.614,0.6213,0.6133,0.6118,0.619,0.628,0.6367,0.6442,0.631,0.6229,0.6245,0.6322,0.6334,0.6175,0.6955,0.7307,0.6843,0.607,0.5638,0.5714,0.5712,0.5663,0.5384,0.5395,0.5252,0.4949,0.5154,0.5225,0.5223,0.5363,0.5373,0.5313,0.5327,0.5252,0.5252,0.5205,0.5166,0.5137,0.5121,0.5107,0.5146,0.5516,0.5646,0.5653,0.6175,0.6361,0.6324,0.651,0.6303,0.5876,0.5518,0.515,0.4802,0.4802,0.4782,0.4807,0.4807,0.4784,0.4806,0.4792,0.4785,0.4726,0.4681,0.4909,0.4994,0.447,0.4295,0.4129,0.3648,0.3255,0.3014,0.2987,0.2991,0.2998,0.3065,0.307,0.3061,0.2995,0.2949,0.2902,0.2863,0.2831,0.281,0.2755,0.2719,0.2687,0.2666,0.2629,0.2601,0.2591,0.2613,0.2601,0.2601,0.2593,0.2574,0.2585,0.2515,0.2469,0.2408,0.2408,0.2382,0.2334,0.3481,0.3994,0.5827,0.6,0.6215,0.6442,0.6556,0.6646,0.7027,0.7108,0.7178,0.7405,0.7349,0.7202,0.7034,0.7038,0.7098,0.7163,0.7097,0.7133,0.7433,0.7582,0.7604,0.7519,0.832,0.8665,0.8145,0.7439,0.6797,0.6386,0.645,0.6342,0.6095,0.6082,0.606,0.5964,0.6117,0.6322,0.6556,0.6748,0.6683,0.6306,0.6092,0.5963,0.5901,0.5889,0.585,0.5832,0.599,0.6029,0.61,0.6669,0.6852,0.6866,0.7235,0.7314,0.7275,0.7249,0.7216,0.7066,0.6266,0.5719,0.5402,0.5402,0.5432,0.5404,0.5404,0.5431,0.5401,0.5382,0.5378,0.5364,0.5313,0.5481,0.5553,0.4992,0.4708,0.4391,0.3921,0.3383,0.3046,0.302,0.3022,0.3029,0.3096,0.31,0.3089,0.3011,0.2973,0.2934,0.2894,0.2872,0.2807,0.2786,0.275,0.2723,0.2755,0.2676,0.2653,0.2653,0.2668,0.265,0.265,0.263,0.2609,0.2592,0.2551,0.2778,0.3335,0.332,0.3616,0.4133,0.5285,0.5761,0.6135,0.6348,0.6476,0.6717,0.6794,0.6985,0.7697,0.7886,0.8064,0.8607,0.8549,0.8281,0.7696,0.7493,0.7432,0.7564,0.7757,0.8181,0.909,0.9199,0.9301,0.9502,0.9586,0.9514,0.9376,0.9496,0.9042,0.7808,0.7793,0.7565,0.6918,0.691,0.689,0.6782,0.7254,0.7835,0.8542,0.8981,0.8873,0.8234,0.7606,0.7286,0.7281,0.7167,0.7145,0.7187,0.7599,0.7768,0.7877,0.8342,0.8525,0.8525,0.8521,0.8521,0.8511,0.844,0.8413,0.8232,0.7011,0.6571,0.6572,0.6567,0.6567,0.6567,0.6567,0.6564,0.655,0.6495,0.6476,0.6459,0.6398,0.634,0.61,0.5616,0.5044,0.4484,0.3961,0.3435,0.31,0.31,0.31,0.31,0.31,0.31,0.309,0.3013,0.3009,0.2987,0.2926,0.2919,0.2897,0.2795,0.2787,0.2818,0.2788,0.2784,0.2784,0.2784,0.2757,0.2697,0.2695,0.264,0.2609,0.2606,0.2593,0.338,0.5014,0.5001,0.5854,0.7394,0.7486,0.7519,0.6954,0.7512,0.8019,0.8163,0.8277,0.8364,0.8571,0.9291,0.9626,0.8714,0.8976,0.9027,0.7957,0.7811,0.7949,0.819,0.8648,0.9057,0.9382,0.9949,1.037,1.0257,1.0755,1.0866,1.0239,1.0198,0.9945,0.9245,0.9164,0.9053,0.8952,0.9015,0.9015,0.8926,0.903,0.9176,0.9321,0.9345,0.9264,0.9064,0.8773,0.8575,0.8517,0.8482,0.8423,0.8381,0.8492,0.8532,0.8543,0.863,0.8653,0.8647,0.8542,0.8521,0.8518,0.8498,0.8457,0.835,0.8052,0.7886,0.7818,0.7763,0.7747,0.7747,0.7747,0.7708,0.7723,0.7708,0.773,0.7671,0.7603,0.7274,0.6901,0.6704,0.5629,0.4626,0.4482,0.3738,0.31,0.31,0.31,0.31,0.31,0.31,0.3097,0.3089,0.3088,0.3065,0.3003,0.2996,0.2935,0.2898,0.2875,0.2851,0.2819,0.2796,0.2784,0.2784,0.2776,0.2762,0.2696,0.268,0.2652,0.2606,0.2591,0.3394,0.5014,0.5169,0.5965,0.7436,0.8842,0.9367,0.8387,0.9083,0.9664,1.0326,1.0482,1.0602,1.0685,1.0795,1.0611,0.9844,0.9603,0.9255,0.8257,0.819,0.8388,0.8652,0.9142,0.9697,1.0165,1.0695,1.1035,1.1008,1.1412,1.146,1.1017,1.0984,1.0903,1.0588,1.0052,0.9676,0.9702,0.9774,0.9895,1.0066,1.0066,1.0221,1.0472,1.0051,0.9851,0.9815,0.9406,0.9191,0.9063,0.9006,0.8955,0.8934,0.9061,0.9142,0.9225,0.9414,0.9489,0.9486,0.9387,0.9372,0.9372,0.9372,0.9343,0.9298,0.9314,0.927,0.9101,0.8483,0.8229,0.8229,0.8229,0.8201,0.8174,0.8218,0.8174,0.8157,0.8119,0.7808,0.7553,0.7511,0.6221,0.5157,0.5643,0.4362,0.3088,0.3122,0.3119,0.3115,0.3103,0.31,0.31,0.31,0.31,0.3418,0.4269,0.3548,0.2969,0.2939,0.2921,0.295,0.2889,0.2859,0.2841,0.2841,0.2818,0.2796,0.2735,0.348,0.3864,0.3816,0.4565,0.5762,0.7405,0.7508,0.8353,0.9893,1.0927,1.1273,1.0353,1.0922,1.1494,1.2682,1.2944,1.294,1.3085,1.2394,1.1623,1.1419,1.0599,0.9673,0.8834,0.8816,0.8979,0.9124,0.9622,1.0228,1.1105,1.131,1.1465,1.171,1.1731,1.171,1.1697,1.1686,1.1719,1.1731,1.0695,1.0051,0.9988,1.0033,1.028,1.0761,1.0753,1.1054,1.1592,1.0965,1.0646,1.0558,0.9939,0.9566,0.9482,0.9338,0.9314,0.9366,0.9654,0.9807,0.9875,1.0332,1.0506,1.0506,1.0494,1.049,1.049,1.0477,1.0473,1.0461,1.0433,1.0409,1.0203,0.8953,0.8518,0.8518,0.8518,0.8507,0.8504,0.8514,0.8458,0.845,0.845,0.8305,0.8154,0.8154,0.6902,0.6015,0.695,0.5366,0.3824,0.3932,0.3973,0.3963,0.3976,0.3919,0.3916,0.3916,0.391,0.4526,0.628,0.468,0.3516,0.3804,0.3799,0.3797,0.3792,0.376,0.3694,0.3688,0.3628,0.3587,0.3578,0.5023,0.5822,0.5813,0.7285,0.8852,1.0522,1.0541,1.1368,1.3003,1.3023,1.2908,1.2787,1.3311,1.3854,1.4327,1.4244,1.4034,1.3814,1.4102,1.4029,1.2658,1.2445,1.2091,1.0583,1.0117,0.9931,0.9996,1.0421,1.0878,1.1437,1.1759,1.1927,1.1972,1.1919,1.1939,1.2004,1.1886,1.1845,1.1972,1.1733,1.1597,1.1586,1.1534,1.1494,1.1608,1.1608,1.167,1.1784,1.1577,1.148,1.1387,1.1111,1.0929,1.085,1.0734,1.0649,1.0649,1.0652,1.0656,1.0712,1.0602,1.0596,1.0583,1.0522,1.049,1.0481,1.0458,1.0433,1.0429,1.0413,1.0409,1.0322,0.9912,0.9796,0.9796,0.9796,0.9696,0.9657,0.9776,0.9684,0.9617,0.9617,0.9233,0.8903,0.8903,0.8021,0.7205,0.7408,0.7318,0.7458,0.8311,0.8491,0.8488,0.8473,0.8314,0.8222,0.8222,0.8119,0.8174,0.8554,0.679,0.6194,0.7856,0.8032,0.8006,0.7983,0.7964,0.7882,0.7767,0.7783,0.7665,0.7534,0.7808,0.7976,0.7948,0.8144,0.9063,1.0688,1.0672,1.1464,1.3003,1.3118,1.3098,1.4538,1.5243,1.5803,1.6566,1.6501,1.6194,1.566,1.5216,1.4605,1.3336,1.2807,1.2328,1.1522,1.1362,1.1392,1.1465,1.1961,1.2555,1.3019,1.342,1.3752,1.4039,1.4063,1.4087,1.4135,1.3418,1.3018,1.3018,1.2382,1.2013,1.2022,1.1919,1.1898,1.1898,1.1857,1.1772,1.1772,1.1792,1.1719,1.1637,1.1539,1.1437,1.1298,1.1204,1.1143,1.109,1.0951,1.089,1.0877,1.0743,1.069,1.0677,1.0649,1.0684,1.0624,1.063,1.0618,1.061,1.0506,1.049,1.0469,1.0334,1.0261,1.0273,1.0273,1.0159,1.0045,1.0138,1.0085,1.002,1.002,0.9776,0.9537,0.9537,0.9142,0.8595,0.8075,0.8578,0.9256,0.9765,0.9757,0.9711,0.9714,0.9578,0.9467,0.9467,0.9292,0.962,1.0668,0.991,0.9243,0.9112,0.9103,0.9087,0.9042,0.9043,0.9044,0.8952,0.8903,0.8816,0.8684,0.9521,0.9975,0.9908,1.0747,1.1561,1.2306,1.2239,1.2605,1.3308,1.3295,1.3214,1.6113,1.6777,1.7384,1.8349,1.8301,1.786,1.7141,1.5988,1.4825,1.4052,1.3144,1.2492,1.2399,1.2466,1.2569,1.2691,1.3214,1.3814,1.4416,1.4803,1.5325,1.5958,1.6001,1.5889,1.5653,1.4937,1.4235,1.3579,1.2646,1.2078,1.1972,1.1984,1.1972,1.1939,1.1866,1.1772,1.1772,1.1772,1.1792,1.1698,1.1698,1.1604,1.1425,1.1351,1.1265,1.1184,1.1016,1.0951,1.0943,1.0905,1.0852,1.084,1.084,1.0831,1.0807,1.0786,1.0778,1.0766,1.0637,1.0616,1.0604,1.0563,1.0528,1.0437,1.0437,1.033,1.0273,1.0273,1.0224,1.0167,1.0167,1.0118,1.0013,0.9992,0.9984,0.992,0.9557,1.0114,1.0862,1.1366,1.1332,1.1251,1.1221,1.1116,1.1049,1.1049,1.0838,1.1288,1.2935,1.3018,1.2321,1.0654,1.0427,1.0408,1.0431,1.0432,1.0408,1.039,1.0309,1.0215,1.0066,1.1357,1.2009,1.1907,1.3195,1.3849,1.3849,1.37,1.3632,1.3632,1.3553,1.3431,1.7761,1.8111,1.8393,1.8708,1.8357,1.7779,1.7121,1.6473,1.5821,1.5147,1.4597,1.4027,1.3604,1.3257,1.2955,1.2725,1.3005,1.3535,1.4389,1.4803,1.5309,1.6021,1.5994,1.5555,1.4662,1.5305,1.4844,1.2513,1.2276,1.2151,1.2034,1.2045,1.2013,1.1792,1.1833,1.1772,1.1772,1.1772,1.1792,1.1698,1.1698,1.1604,1.1425,1.1412,1.1363,1.1265,1.1229,1.1143,1.1188,1.1037,1.0951,1.0877,1.0877,1.0824,1.0798,1.0657,1.0624,1.0624,1.0616,1.0616,1.0624,1.0757,1.0616,1.0477,1.0477,1.0469,1.0465,1.0465,1.0457,1.0453,1.0453,1.0445,1.042,1.0388,1.0372,1.0855,1.2562,1.3037,1.3622,1.5552,1.5922,1.5858,1.5896,1.5778,1.5686,1.5686,1.545,1.5364,1.5567,1.5391,1.5208,1.5015,1.4774,1.4669,1.48,1.4723,1.4585,1.4461,1.4441,1.4369,1.4173,1.4209,1.4213,1.42,1.4102,1.4048,1.4048,1.3899,1.3781,1.3781,1.3761,1.3747,1.7812,1.8301,1.8694,1.88,1.8357,1.7759,1.7114,1.651,1.5913,1.5303,1.504,1.4805,1.4664,1.4474,1.4358,1.4321,1.4521,1.4904,1.5747,1.6144,1.6689,1.7697,1.7888,1.7849,1.7828,1.7559,1.6641,1.4912,1.4667,1.4589,1.4568,1.3043,1.25,1.3178,1.2368,1.1886,1.1772,1.1772,1.1813,1.1784,1.1784,1.1686,1.151,1.151,1.1425,1.129,1.1254,1.1221,1.1209,1.1069,1.1004,1.0971,1.0971,1.0951,1.091,1.0816,1.0784,1.0771,1.0722,1.0698,1.0757,1.0798,1.0757,1.0692,1.0583,1.053,1.049,1.049,1.049,1.049,1.049,1.049,1.0481,1.0445,1.0436,1.106,1.3284,1.3743,1.4396,1.6531,1.6856,1.6768,1.6621,1.6537,1.6435,1.6435,1.6259,1.613,1.613,1.6001,1.594,1.6035,1.5689,1.5445,1.5411,1.5357,1.5255,1.5106,1.5099,1.5031,1.4889,1.4821,1.4746,1.4606,1.4536,1.4475,1.4475,1.4238,1.4116,1.4116,1.3883,1.3795,1.7582,1.8199,1.8708,1.88,1.8287,1.765,1.7107,1.6483,1.5859,1.5296,1.5181,1.5181,1.5181,1.5221,1.5289,1.5391,1.5574,1.5947,1.6704,1.7024,1.7528,1.8599,1.8816,1.8951,1.9216,1.8312,1.7517,1.7038,1.6554,1.6494,1.6839,1.4628,1.3768,1.4717,1.3743,1.3168,1.3039,1.2955,1.2929,1.2929,1.2929,1.2704,1.2159,1.2523,1.2408,1.1871,1.1803,1.2018,1.2299,1.1819,1.1833,1.2147,1.2147,1.2138,1.2102,1.2091,1.2055,1.2046,1.1938,1.1907,1.1907,1.1871,1.1815,1.1848,1.1721,1.1163,1.0563,1.0563,1.0563,1.0563,1.0563,1.0563,1.0563,1.053,1.053,1.1173,1.3478,1.4009,1.4636,1.6849,1.7182,1.7073,1.6912,1.6804,1.6788,1.6788,1.6625,1.651,1.651,1.6334,1.6252,1.6361,1.604,1.5818,1.5628,1.5567,1.5459,1.5262,1.5248,1.5181,1.5038,1.5037,1.4916,1.4808,1.4714,1.4694,1.4694,1.4529,1.4428,1.4428,1.4167,1.4038,1.7304,1.7968,1.8565,1.8728,1.8199,1.748,1.708,1.6446,1.5779,1.5323,1.5181,1.5181,1.5181,1.5303,1.5411,1.5411,1.5655,1.6112,1.6718,1.6935,1.7263,1.8002,1.8111,1.7883,1.7292,1.6603,1.6776,1.8163,1.7154,1.7038,1.8245,1.6902,1.6154,1.6154,1.6045,1.5985,1.5985,1.5737,1.5677,1.5677,1.5677,1.4886,1.3532,1.4793,1.4554,1.3163,1.3163,1.3864,1.4846,1.3684,1.3857,1.4841,1.4841,1.4828,1.4787,1.4787,1.4787,1.4719,1.4532,1.4432,1.4461,1.4291,1.4253,1.4253,1.4253,1.2636,1.0807,1.0807,1.0807,1.0807,1.0807,1.0807,1.0786,1.0637,1.0616,1.1196,1.3494,1.4009,1.4659,1.6988,1.7419,1.7412,1.7412,1.7412,1.7412,1.7412,1.7161,1.6971,1.6971,1.6707,1.6517,1.6517,1.6517,1.6395,1.6096,1.5983,1.5772,1.5425,1.5411,1.5343,1.5187,1.5091,1.5017,1.5017,1.4821,1.4694,1.4694,1.4687,1.4687,1.4687,1.4687,1.4606,1.6537,1.706,1.7507,1.765,1.7358,1.6919,1.672,1.6327,1.5913,1.5567,1.5445,1.5459,1.5357,1.5466,1.5601,1.5696,1.584,1.6044,1.6395,1.6842,1.7365,1.8023,1.8905,1.9368,1.9174,1.8964,1.903,1.948,1.9233,1.9235,1.9637,1.933,1.8648,1.7545,1.6485,1.588,1.5798,1.5755,1.5677,1.5677,1.5596,1.5296,1.4783,1.5125,1.4938,1.4443,1.4443,1.4623,1.4963,1.4565,1.4655,1.4967,1.4967,1.4939,1.4954,1.4872,1.4844,1.4828,1.4719,1.4732,1.4716,1.4632,1.4561,1.4434,1.4434,1.3866,1.3202,1.3202,1.3202,1.3202,1.3202,1.3202,1.3187,1.3152,1.3137,1.3575,1.5093,1.5417,1.5876,1.7269,1.7521,1.7487,1.7439,1.7419,1.7419,1.7419,1.7249,1.7127,1.7127,1.6958,1.6836,1.6836,1.6836,1.6632,1.6123,1.6035,1.5879,1.5539,1.5519,1.5499,1.5343,1.5296,1.5221,1.512,1.5065,1.5045,1.5045,1.4943,1.4841,1.4694,1.4694,1.4667,1.5967,1.6463,1.687,1.7127,1.6924,1.6588,1.6544,1.6205,1.5845,1.5601,1.5506,1.5458,1.535,1.5499,1.56,1.5683,1.5826,1.601,1.6266,1.6822,1.7439,1.8091,1.9115,1.9786,1.9834,2.0051,2.0187,2.0187,2.0275,2.0246,2.0241,2.0329,1.9892,1.8833,1.7928,1.7411,1.7286,1.7239,1.7209,1.7209,1.7132,1.6777,1.6241,1.6626,1.6426,1.5794,1.5794,1.6063,0.0,1.5901,1.6023,1.6425,1.6425,1.6425,1.6407,1.6387,1.6358,1.6346,1.622,1.6173,1.6218,1.6113,1.6035,1.5913,1.5913,1.5179,1.432,1.4363,1.4347,1.4309,1.4309,1.4309,1.4309,1.4309,1.4309,1.4647,1.5862,1.6089,1.6403,1.7477,1.7683,1.7704,1.7602,1.7589,1.7589,1.7589,1.746,1.7365,1.7365,1.7236,1.7127,1.7066,1.706,1.6863,1.6374,1.6334,1.6205,1.5864,1.5839,1.5737,1.5581,1.5472,1.5364,1.5269,1.5215,1.5181,1.5181,1.5139,1.4997,1.4909,1.4909,1.4875,0.0,1.6076,1.6517,1.6944,1.6741,1.6442,1.6405,1.5986,0.0,1.5459,1.5425,1.5384,1.5242,1.5445,1.5546,1.5466,1.5683,1.6024,1.6279,1.6876,1.7568,1.8321,1.8918,1.9305,1.9434,1.9976,2.0315,2.0295,2.0329,2.0275,2.0119,2.0119,2.0064,1.9888,2.0031,2.0031,1.9916,1.9793,1.9739,1.9725,1.9705,1.8964,1.7748,1.8873,1.8595,1.7209,1.7209,1.7838,1.8704,1.7542,1.7717,1.882,1.882,1.882,1.882,1.882,1.882,1.8742,1.8599,1.8494,1.8474,1.8375,1.8335,1.8335,1.8335,1.6546,1.4631,1.4747,1.4692,1.4547,1.4547,1.4536,1.4536,1.4536,1.4536,1.4858,1.5997,1.6225,1.6545,1.7708,1.7936,1.7936,1.7915,1.7915,1.7915,1.7915,1.7738,1.7595,1.7595,1.746,1.7372,1.7236,1.7222,1.7114,1.6784,1.6723,1.6574,1.6341,1.6185,1.6029,1.5928,1.5594,1.5438,1.5425,1.5276,1.5194,1.5181,1.5181,1.5181,1.5181,1.5181,1.5113,1.4922,0.0,1.5384,1.5601,1.5662,1.5703,0.0,1.5688,1.558,1.5546,1.5539,1.5526,1.5492,1.5539,1.5662,1.5737,1.5906,1.613,1.6429,1.748,1.8498,1.9257,1.9664,1.982,1.9624,2.0051,2.0227,1.9997,2.0295,2.0374,2.0275,2.032,2.0315,2.0051,2.0085,1.9976,1.9773,1.9848,1.9827,1.9725,1.9535,1.928,1.8999,1.9185,1.8984,1.8568,1.8568,1.8664,1.8762,1.8479,1.8523,1.882,1.882,1.882,1.882,1.882,1.882,1.8762,1.8728,1.8708,1.8694,1.8531,1.8477,1.8477,1.8477,1.7964,1.7361,1.7412,1.7309,1.7192,1.7192,1.7108,1.7024,1.7024,1.7024,1.7174,1.7563,1.7652,1.7708,1.7981,1.8036,1.8002,1.7936,1.7915,1.7915,1.7915,1.7738,1.7595,1.7595,1.746,1.7453,1.748,1.7487,1.746,1.7385,1.6959,1.6621,1.6483,1.6334,1.6185,1.6085,1.5901,1.5696,1.5539,1.5438,1.5303,1.5181,1.5181,1.5181,1.5181,1.5181,1.5167,1.4832,1.4948,1.5193,1.522,1.5296,1.5452,1.5553,1.5539,1.5533,1.5533,1.5533,1.5533,1.5533,1.5546,1.5662,1.5744,1.6001,1.6435,1.7141,1.7982,1.8776,1.9468,1.9875,2.0031,1.9875,2.0207,2.03,2.0187,2.0349,2.032,2.0227,2.0363,2.0275,1.9908,2.0098,2.0031,1.9725,1.9793,1.9793,1.9725,1.9576,1.9535,1.9535,1.9447,1.9325,1.9183,1.9183,1.9061,1.8871,1.8871,1.883,1.882,1.882,1.882,1.882,1.882,1.882,1.882,1.882,1.882,1.88,1.8654,1.864,1.864,1.864,1.8586,1.8511,1.8443,1.8267,1.8111,1.8179,1.8077,1.7989,1.8057,1.8077,1.8091,1.8179,1.8199,1.8179,1.8111,1.8091,1.8036,1.7901,1.7915,1.7915,1.7915,1.7792,1.7758,1.7758,1.767,1.7629,1.7595,1.7595,1.7568,1.7494,1.7257,1.7014,1.6842,1.6625,1.6476,1.6388,1.611,1.5859,1.5593,1.5512,1.5438,1.5289,1.5289,1.5248,1.5181,1.5181,1.5181,1.5027,1.5239,1.5413,1.5158,1.5228,1.5377,1.5458,1.5438,1.5343,1.5343,1.5377,1.5418,1.5438,1.5506,1.5607,1.5648,1.6144,1.687,1.8002,1.8464,1.8864,1.9393,1.9854,2.0119,2.0064,2.0349,2.0462,2.0442,2.0354,2.0295,2.0139,2.0275,2.0173,1.9752,2.0098,2.0098,1.9759,1.9759,1.9739,1.9725,1.9725,1.9725,1.9725,1.9644,1.9535,1.9393,1.9379,1.9203,1.8959,1.8959,1.8884,1.882,1.882,1.882,1.882,1.882,1.882,1.882,1.882,1.882,1.882,1.882,1.882,1.882,1.882,1.882,1.8786,1.8599,1.8375,1.8199,1.8321,1.8233,1.8158,1.8287,1.8321,1.8321,1.8355,1.8355,1.8301,1.8158,1.8124,1.8077,1.7956,1.7915,1.7915,1.7915,1.7915,1.7915,1.7915,1.7915,1.7826,1.7663,1.7663,1.7615,1.7534,1.7568,1.7561,1.7283,1.6978,1.6736,1.6669,1.6347,1.6008,1.5661,1.5661,1.5622,1.5445,1.5418,1.5343,1.5215,1.5194,1.5181,1.5252,1.548,1.5624,1.4954,1.4923,1.5091,1.5065,1.5105,1.5038,1.5038,1.5235,1.5452,1.5533,1.5573,1.5675,1.5974,1.6707,1.7534,1.8298,1.8938,1.9379,1.961,2.001,2.0187,1.9929,2.0295,2.0422,2.0363,2.0388,2.0388,2.0295,2.0374,2.0363,2.0051,2.0098,2.0051,1.9902,1.9902,1.9786,1.9725,1.9725,1.9725,1.9664,1.9522,1.9379,1.9237,1.9115,1.8959,1.8854,1.8854,1.8841,1.882,1.882,1.882,1.882,1.882,1.882,1.882,1.882,1.882,1.882,1.882,1.882,1.882,1.882,1.882,1.8762,1.8786,1.8599,1.8464,1.844,1.8389,1.8287,1.8321,1.8321,1.8355,1.842,1.8498,1.8407,1.8321,1.8287,1.8199,1.7914,1.7915,1.7915,1.7915,1.7915,1.7915,1.7915,1.7915,1.7956,1.8023,1.8023,1.8023,1.7989,1.7901,1.7758,1.7534,1.729,1.6951,1.6571,1.649,1.6313,1.6022,1.6015,1.5879,1.5553,1.5472,1.5398,1.5371,1.5242,1.5181,1.5217,1.5101,1.5124,1.4996,1.5276,1.5567,1.5567,1.5567,1.5547,1.5513,1.5602,1.5696,1.5852,1.6008,1.6347,1.7053,1.7514,1.7989,1.8565,1.8972,1.9257,1.94,1.98,2.0064,1.9997,2.0261,2.0374,2.0438,2.0442,2.0471,2.0329,2.0408,2.0363,1.9997,2.0064,1.9997,1.9766,1.9766,1.9732,1.9725,1.9576,1.9535,1.9535,1.9379,1.9271,1.9203,1.9128,1.9027,1.8884,1.8884,1.8888,1.882,1.882,1.882,1.882,1.882,1.882,1.882,1.882,1.882,1.882,1.882,1.882,1.882,1.882,1.882,1.882,1.882,1.8654,1.8552,1.864,1.8552,1.8464,1.8531,1.8565,1.8586,1.864,1.8654,1.8586,1.8355,1.8321,1.8213,1.797,1.7915,1.7915,1.7915,1.7915,1.7915,1.7915,1.7915,1.7901,1.7968,1.7968,1.7968,1.7968,1.7989,1.7826,1.7426,1.727,1.7026,1.6608,1.6594,1.6544,1.6327,1.6246,1.6096,1.5879,1.5723,1.5608,1.5533,1.5459,1.5384,1.513,1.4833,1.4719,1.5133,1.5506,1.5825,1.6035,1.6105,1.6064,1.6017,1.6092,1.6173,1.613,1.6435,1.6965,1.7846,1.8165,1.8464,1.8963,1.9135,1.9305,1.9447,1.98,2.0085,2.0187,2.0315,2.0417,2.0476,2.0476,2.0471,2.0329,2.0408,2.0349,1.9942,2.0051,1.9976,1.9773,1.9739,1.9705,1.961,1.9522,1.9468,1.9374,1.9305,1.9237,1.9203,1.9169,1.9081,1.8938,1.8938,1.8871,1.882,1.882,1.882,1.882,1.882,1.882,1.882,1.882,1.882,1.882,1.882,1.882,1.882,1.882,1.882,1.882,1.882,1.8674,1.862,1.8786,1.8674,1.862,1.8786,1.882,1.882,1.882,1.882,1.8694,1.8423,1.8335,1.8247,1.8002,1.7914,1.7936,1.8004,1.799,1.7935,1.7968,1.799,1.797,1.797,1.7936,1.7915,1.7915,1.7968,1.7826,1.7331,1.7229,1.7087,1.6811,1.677,1.6682,1.6527,1.6469,1.632,1.6137,1.603,1.5832,1.5689,1.5607,1.5526,1.5177,1.5077,1.5011,1.5316,1.5113,1.5012,1.5893,1.6017,1.5996,1.6218,1.6612,1.6775,1.6368,1.6761,1.7263,1.7568,1.8375,1.9081,1.9596,1.9841,2.0085,2.0227,2.0334,2.0442,2.0442,2.0462,2.0462,2.0476,2.0476,2.0471,2.0329,2.0408,2.0397,2.0098,2.0098,2.0031,1.9916,1.9732,1.959,1.9447,1.9576,1.9569,1.9374,1.9413,1.9345,1.9203,1.9061,1.8918,1.8841,1.8841,1.8841,1.882,1.882,1.882,1.882,1.882,1.882,1.882,1.882,1.882,1.882,1.882,1.882,1.882,1.882,1.882,1.882,1.882,1.8762,1.88,1.882,1.8762,1.88,1.882,1.882,1.882,1.882,1.882,1.8766,1.8552,1.8409,1.8265,1.8287,1.8057,1.8004,1.8247,1.8165,1.8124,1.8267,1.8158,1.8077,1.8077,1.7948,1.7915,1.7915,1.7936,1.7812,1.7575,1.7351,1.7182,1.7161,1.7032,1.689,1.6682,1.6669,1.6527,1.6293,1.6137,1.5988,1.5888,1.5703,1.5587,1.4811,1.4808,1.5038,1.5337,1.5309,1.5485,1.6435,1.6666,1.672,1.6836,1.7216,1.7453,1.7135,1.7555,1.7968,1.8102,1.8796,1.9359,1.9684,1.9841,1.9976,2.0031,2.0173,2.0246,2.0397,2.0354,2.0388,2.0476,2.0476,2.0462,2.0408,2.0442,2.0404,2.0119,2.0098,1.9976,1.9752,1.9759,1.959,1.9374,1.9481,1.9481,1.9367,1.9237,1.9128,1.9061,1.8918,1.8875,1.882,1.882,1.882,1.882,1.882,1.882,1.882,1.882,1.882,1.882,1.882,1.882,1.882,1.882,1.882,1.882,1.882,1.882,1.882,1.882,1.882,1.882,1.882,1.882,1.882,1.882,1.882,1.882,1.882,1.882,1.8766,1.8565,1.844,1.8423,1.8335,1.8233,1.8179,1.8301,1.8267,1.8247,1.8265,1.8267,1.8199,1.8111,1.8004,1.7956,1.8002,1.797,1.7846,1.7792,1.7589,1.7392,1.7202,1.7141,1.7046,1.6897,1.675,1.6642,1.6533,1.6429,1.6327,1.6266,1.6123,1.6001,1.4476,1.4523,1.4855,1.5242,1.5452,1.5839,1.6883,1.7154,1.7256,1.75,1.7684,1.7792,1.7737,1.8036,1.8301,1.8498,1.9081,1.9556,1.9712,1.982,1.9908,2.001,2.0098,2.0207,2.0315,2.0363,2.0354,2.0408,2.0462,2.0476,2.0476,2.0476,2.0404,2.0119,2.0098,1.9963,1.9725,1.9725,1.961,1.9501,1.9501,1.9481,1.9374,1.9271,1.9169,1.9128,1.9027,1.8918,1.883,1.883,1.8854,1.882,1.882,1.882,1.882,1.882,1.882,1.882,1.882,1.882,1.882,1.882,1.882,1.882,1.882,1.882,1.882,1.882,1.882,1.882,1.882,1.882,1.882,1.882,1.882,1.882,1.882,1.882,1.8786,1.862,1.8565,1.8511,1.8464,1.8389,1.8355,1.8443,1.8423,1.8409,1.8464,1.8409,1.8335,1.8179,1.8023,1.7989,1.8077,1.8004,1.7915,1.7915,1.7772,1.7602,1.7344,1.729,1.7195,1.7053,1.6944,1.679,1.6696,1.6594,1.652,1.6517,1.6422,1.6293,1.4299,1.4306,1.4448,1.5038,1.5303,1.5771,1.7114,1.7304,1.7405,1.8158,1.7913,1.7697,1.8036,1.8091,1.8199,1.8477,1.9169,1.9712,1.9854,1.9875,1.9976,2.0232,2.0329,2.0329,2.0329,2.0388,2.0471,2.0329,2.0388,2.0476,2.0476,2.0476,2.0404,2.0098,2.0098,1.9963,1.9725,1.9725,1.9725,1.9725,1.9725,1.9576,1.9434,1.959,1.9576,1.9374,1.9374,1.9257,1.8993,1.8993,1.8905,1.882,1.882,1.882,1.882,1.882,1.882,1.882,1.882,1.882,1.882,1.882,1.882,1.882,1.882,1.882,1.882,1.882,1.882,1.882,1.882,1.882,1.882,1.882,1.882,1.882,1.882,1.882,1.882,1.882,1.864,1.8586,1.8742,1.8511,1.8423,1.8728,1.864,1.8586,1.8742,1.862,1.8477,1.8335,1.8179,1.8091,1.8091,1.8004,1.7915,1.7915,1.7915,1.7792,1.7595,1.7446,1.7351,1.7195,1.7195,1.7053,1.6702,1.6702,1.6621,1.653,1.6524,1.6449,1.4476,1.4604,1.4991,1.5269,1.5771,1.6408,1.7229,1.7385,1.7629,1.8586,1.8511,1.8244,1.8332,1.8586,1.8674,1.8552,1.9081,1.9556,1.9759,1.9732,1.98,1.9976,2.001,2.0051,2.0153,2.0207,2.0207,2.0173,2.0246,2.0349,2.0241,2.0329,2.0261,1.9942,1.9942,1.9854,1.9725,1.9725,1.9725,1.9725,1.9725,1.9644,1.959,1.9522,1.9468,1.9413,1.9217,1.9081,1.8993,1.8929,1.8854,1.882,1.882,1.882,1.882,1.882,1.882,1.882,1.882,1.882,1.882,1.882,1.882,1.882,1.882,1.882,1.882,1.882,1.882,1.882,1.882,1.882,1.882,1.882,1.882,1.882,1.882,1.882,1.882,1.882,1.8728,1.8708,1.8762,1.8694,1.8711,1.88,1.8728,1.8708,1.8762,1.862,1.8552,1.862,1.8409,1.8247,1.8247,1.8111,1.7989,1.7915,1.7915,1.7792,1.7595,1.7548,1.7453,1.7358,1.7351,1.7311,1.7169,1.7114,1.7039,1.6985,1.673,1.6608,1.4634,1.4821,1.5276,1.5669,1.6191,1.6763,1.7602,1.7914,1.8247,1.9006,1.8918,1.8742,1.8864,1.8938,1.8972,1.8846,1.9237,1.9556,1.9705,1.9725,1.9773,1.9854,1.9875,1.9908,1.9997,2.0064,2.0085,2.001,2.0153,2.0207,2.0098,2.0187,2.0119,1.9936,1.9875,1.9861,1.9725,1.9725,1.9725,1.9725,1.9725,1.9725,1.9725,1.9569,1.9481,1.9413,1.9115,1.8993,1.8972,1.883,1.882,1.882,1.882,1.882,1.882,1.882,1.882,1.882,1.882,1.882,1.882,1.882,1.882,1.882,1.882,1.882,1.882,1.882,1.882,1.882,1.882,1.882,1.882,1.882,1.882,1.882,1.882,1.882,1.882,1.882,1.882,1.882,1.882,1.882,1.882,1.882,1.882,1.882,1.882,1.8674,1.8654,1.88,1.8498,1.8321,1.8321,1.8124,1.7968,1.7915,1.7915,1.7826,1.7738,1.7738,1.767,1.746,1.746,1.7426,1.7419,1.727,1.7195,1.7188,1.6951,1.6757,1.4804,1.4991,1.5404,1.6144,1.656,1.7101,1.8102,1.8728,1.9094,1.9359,1.9217,1.9128,1.9379,1.9217,1.9128,1.9333,1.9556,1.9725,1.9725,1.9725,1.9773,1.9902,1.9854,1.9854,1.9854,1.9976,1.9997,1.9875,1.9997,2.0064,2.0064,2.0064,1.9997,1.9841,1.9902,1.9786,1.9644,1.9664,1.9725,1.9725,1.9705,1.9644,1.9644,1.9664,1.9569,1.9393,1.9115,1.8993,1.8959,1.8875,1.882,1.882,1.882,1.882,1.882,1.882,1.882,1.882,1.882,1.882,1.882,1.882,1.882,1.882,1.882,1.882,1.882,1.882,1.882,1.882,1.882,1.882,1.882,1.882,1.882,1.882,1.882,1.882,1.882,1.882,1.882,1.882,1.882,1.882,1.882,1.882,1.882,1.882,1.882,1.882,1.882,1.882,1.8518,1.8355,1.8335,1.8091,1.797,1.7956,1.7901,1.7936,1.7936,1.7915,1.7806,1.7615,1.7615,1.7548,1.746,1.7311,1.7236,1.7229,1.7087,1.6944,1.4986,1.5221,1.5689,1.632,1.7236,1.8124,1.8708,1.9094,1.9325,1.9257,1.94,1.9501,1.9447,1.9481,1.9501,1.9447,1.9556,1.9725,1.9725,1.9725,1.9739,1.9759,1.9712,1.9712,1.9712,1.9793,1.9752,1.9773,1.9902,1.9875,1.9766,1.9916,1.98,1.9535,1.9644,1.9624,1.9481,1.961,1.9725,1.9725,1.9535,1.9481,1.9481,1.961,1.9522,1.9237,1.9061,1.8918,1.8816,1.8841,1.882,1.882,1.882,1.882,1.882,1.882,1.882,1.882,1.882,1.882,1.882,1.882,1.882,1.882,1.882,1.882,1.882,1.882,1.882,1.882,1.882,1.882,1.882,1.882,1.882,1.882,1.882,1.882,1.882,1.882,1.882,1.882,1.882,1.882,1.882,1.882,1.882,1.882,1.882,1.882,1.882,1.882,1.8766,1.862,1.8498,1.8423,1.8335,1.8233,1.8111,1.8036,1.8036,1.7935,1.7902,1.7868,1.7868,1.7847,1.7772,1.7623,1.7494,1.7494,1.7399,1.7311,1.5245,1.5513,1.6076,1.7032,1.7846,1.8511,1.8905,1.9217,1.9353,1.9325,1.9501,1.9671,1.9468,1.9556,1.961,1.9447,1.9556,1.9725,1.9725,1.9725,1.9725,1.9725,1.9725,1.9725,1.9725,1.9725,1.9725,1.9725,1.9732,1.9793,1.9725,1.9657,1.959,1.9434,1.9434,1.94,1.9325,1.94,1.9481,1.9556,1.9468,1.9468,1.9535,1.94,1.9257,1.9094,1.8938,1.883,1.882,1.882,1.882,1.882,1.882,1.882,1.882,1.882,1.882,1.882,1.882,1.882,1.882,1.882,1.882,1.882,1.882,1.882,1.882,1.882,1.882,1.882,1.882,1.882,1.882,1.882,1.882,1.882,1.882,1.882,1.882,1.882,1.882,1.882,1.882,1.882,1.8841,1.8871,1.8929,1.8929,1.8929,1.8929,1.885,1.882,1.8694,1.862,1.8531,1.8464,1.8389,1.8321,1.8179,1.8091,1.8091,1.7948,1.7915,1.7915,1.7915,1.7915,1.7915,1.7717,1.7595,1.7595,1.744,1.7419,1.5403,1.5798,1.6537,1.7772,1.8321,1.8562,1.8918,1.9203,1.9393,1.9393,1.9522,1.959,1.9481,1.9535,1.9556,1.9481,1.9556,1.9624,1.9624,1.9705,1.9705,1.9624,1.9705,1.9725,1.9725,1.9725,1.9725,1.9725,1.9725,1.9725,1.9725,1.9522,1.9413,1.9393,1.9271,1.9183,1.9169,1.9183,1.9271,1.9374,1.9374,1.9447,1.9501,1.9149,1.9006,1.9027,1.8888,1.882,1.882,1.882,1.882,1.882,1.882,1.882,1.882,1.882,1.882,1.882,1.882,1.882,1.882,1.882,1.882,1.882,1.882,1.882,1.882,1.8854,1.8841,1.882,1.8854,1.8841,1.882,1.882,1.882,1.882,1.882,1.882,1.882,1.882,1.8841,1.8854,1.8854,1.8875,1.8884,1.9006,1.9006,1.8993,1.8993,1.8972,1.8905,1.8841,1.8654,1.8565,1.8565,1.8464,1.8389,1.8389,1.8247,1.8165,1.8165,1.8002,1.7956,1.7956,1.7936,1.7915,1.7915,1.7738,1.7629,1.7629,1.7555,1.7494,1.5132,1.6022,1.706,1.788,1.8321,1.8562,1.8918,1.9115,1.9237,1.9237,1.9359,1.9501,1.961,1.9434,1.9345,1.959,1.9535,1.9468,1.9468,1.9576,1.9671,1.9481,1.9576,1.9725,1.9725,1.9725,1.9725,1.9725,1.9725,1.9725,1.9725,1.9522,1.9379,1.9237,1.9217,1.9149,1.9027,1.9149,1.9271,1.9374,1.9374,1.9237,1.8943,1.8959,1.9061,1.9169,1.8884,1.882,1.882,1.882,1.882,1.882,1.882,1.882,1.882,1.882,1.882,1.882,1.882,1.882,1.882,1.882,1.882,1.882,1.882,1.882,1.8796,1.8918,1.8871,1.8854,1.8918,1.8871,1.882,1.882,1.882,1.882,1.882,1.882,1.882,1.882,1.8871,1.8959,1.8959,1.9061,1.9149,1.9169,1.9061,1.8993,1.8993,1.8929,1.8841,1.882,1.88,1.8786,1.8786,1.8766,1.8708,1.8708,1.8552,1.8477,1.8477,1.8213,1.8057,1.8057,1.7935,1.7915,1.7915,1.7846,1.7881,1.7881,1.7868,1.7812,1.5438,1.6191,1.7032,1.7772,1.8057,1.8253,1.864,1.885,1.8972,1.9061,1.9203,1.9305,1.9291,1.9305,1.9345,1.94,1.9488,1.9535,1.9447,1.9481,1.9501,1.9434,1.9413,1.9468,1.9705,1.959,1.9535,1.9535,1.9535,1.9501,1.9413,1.9271,1.9149,1.9081,1.9006,1.8918,1.8871,1.8918,1.9027,1.9183,1.9271,1.9203,1.9006,1.8993,1.8972,1.8959,1.8875,1.882,1.882,1.882,1.882,1.882,1.882,1.8875,1.8884,1.8884,1.8938,1.9006,1.9006,1.9006,1.9006,1.9006,1.8959,1.8884,1.8884,1.8884,1.8905,1.8972,1.8938,1.8905,1.8972,1.8884,1.882,1.882,1.883,1.8884,1.8884,1.8884,1.8918,1.8993,1.8993,1.9006,1.9094,1.9169,1.9237,1.9325,1.9271,1.9237,1.9237,1.9183,1.9081,1.8905,1.8884,1.8909,1.882,1.882,1.882,1.882,1.862,1.8474,1.8474,1.8335,1.8179,1.8091,1.799,1.7915,1.7915,1.7915,1.7915,1.7915,1.7915,1.7915,1.5541,1.6062,1.6693,1.7399,1.7704,1.7935,1.8375,1.8599,1.8742,1.8905,1.9047,1.9115,1.9006,1.9203,1.9359,1.9325,1.9481,1.9556,1.9393,1.9353,1.9413,1.9379,1.9271,1.9305,1.9576,1.9468,1.9379,1.9379,1.9379,1.9325,1.9203,1.9061,1.8993,1.8993,1.885,1.882,1.882,1.8854,1.8909,1.8938,1.9115,1.9169,1.9094,1.9027,1.8905,1.882,1.882,1.882,1.882,1.882,1.882,1.882,1.882,1.8909,1.8993,1.8993,1.9081,1.9203,1.9203,1.9203,1.9203,1.9203,1.9115,1.8993,1.8993,1.8993,1.8993,1.9027,1.9027,1.8993,1.904,1.8938,1.8875,1.8875,1.8938,1.904,1.904,1.904,1.9081,1.9183,1.9149,1.9128,1.9237,1.9291,1.9359,1.9468,1.9447,1.9374,1.9374,1.9393,1.9291,1.9061,1.904,1.8993,1.883,1.8875,1.8854,1.882,1.8654,1.8586,1.8586,1.8443,1.8301,1.8145,1.8036,1.799,1.7915,1.7915,1.7915,1.7915,1.7915,1.7915,1.4969,1.55,1.6049,1.6601,1.7183,1.7717,1.8177,1.8443,1.8586,1.8742,1.8905,1.8993,1.8993,1.9115,1.9305,1.959,1.9522,1.9393,1.9237,1.9345,1.9379,1.9237,1.9203,1.9271,1.9374,1.9305,1.9217,1.9217,1.9217,1.9203,1.9203,1.9061,1.8993,1.8993,1.885,1.882,1.882,1.8905,1.8905,1.8841,1.9061,1.9061,1.8796,1.8918,1.8905,1.882,1.882,1.882,1.882,1.882,1.882,1.882,1.882,1.8909,1.8993,1.8993,1.9081,1.9203,1.9203,1.9203,1.9203,1.9203,1.9115,1.8993,1.8993,1.8993,1.9027,1.9149,1.9094,1.9027,1.9149,1.9081,1.8972,1.8972,1.9081,1.9183,1.9183,1.9183,1.9183,1.9203,1.9305,1.9353,1.9413,1.9535,1.9705,1.9705,1.9522,1.9374,1.9374,1.9305,1.9203,1.9183,1.9183,1.9128,1.8993,1.8972,1.8918,1.8841,1.8762,1.88,1.88,1.8599,1.8407,1.8301,1.8301,1.8158,1.7915,1.7915,1.7915,1.7915,1.7915,1.7915,1.4889,1.5241,1.5567,1.6171,1.6648,1.7135,1.7629,1.807,1.8443,1.8586,1.8884,1.9128,1.9128,1.9257,1.9379,1.9501,1.9556,1.9488,1.9237,1.9345,1.9345,1.9094,1.9061,1.9128,1.9271,1.9149,1.9061,1.9061,1.9061,1.9027,1.8918,1.8929,1.885,1.885,1.8854,1.882,1.882,1.8875,1.8875,1.882,1.8929,1.8871,1.882,1.8875,1.8875,1.882,1.882,1.882,1.882,1.882,1.882,1.882,1.882,1.8905,1.9128,1.9128,1.9217,1.9359,1.9468,1.9434,1.9359,1.9468,1.9393,1.9271,1.9271,1.9271,1.9291,1.9279,1.9305,1.9291,1.9345,1.9237,1.9149,1.9257,1.9305,1.9379,1.9468,1.9345,1.9257,1.9468,1.9468,1.9468,1.9556,1.9624,1.9725,1.9725,1.9671,1.9576,1.9576,1.9535,1.9468,1.9359,1.9345,1.9257,1.9006,1.8993,1.8918,1.8841,1.882,1.882,1.882,1.8708,1.8599,1.8407,1.8407,1.8267,1.7915,1.7968,1.8004,1.7915,1.7915,1.7915,1.4679,1.4889,1.5181,1.5784,1.6107,1.6506,1.7263,1.7684,1.8036,1.8332,1.8776,1.9081,1.9115,1.9291,1.9447,1.9501,1.9556,1.9501,1.9237,1.9257,1.9203,1.9006,1.8938,1.8972,1.9115,1.8993,1.8918,1.8918,1.8918,1.8871,1.882,1.882,1.882,1.882,1.8708,1.8708,1.882,1.8711,1.8711,1.882,1.8708,1.8708,1.882,1.882,1.882,1.882,1.882,1.882,1.882,1.882,1.882,1.882,1.882,1.8918,1.9128,1.9128,1.9257,1.9447,1.9556,1.9556,1.9522,1.9684,1.9556,1.9374,1.9374,1.9374,1.9374,1.9374,1.9374,1.9374,1.9374,1.9359,1.9325,1.9468,1.9501,1.9535,1.9644,1.9501,1.9413,1.9684,1.9576,1.9535,1.9705,1.9725,1.9725,1.9725,1.9725,1.9725,1.9725,1.9725,1.9624,1.9522,1.9501,1.9379,1.9081,1.9061,1.8972,1.8841,1.882,1.882,1.882,1.882,1.8694,1.8474,1.8586,1.8409,1.8023,1.8124,1.8091,1.799,1.799,1.7914,0.0,0.0,0.0,1.5411,1.5566,1.5884,1.71,1.7263,1.7385,1.8145,1.8531,1.8796,1.8959,1.9217,1.9468,1.9624,1.9522,1.9379,1.9237,1.9081,1.8993,1.8993,1.8871,1.883,1.8959,1.885,1.8762,1.8762,1.8762,1.8762,1.882,1.882,1.882,1.88,1.8599,1.8599,1.88,1.8464,1.8464,1.88,1.8599,1.8599,1.88,1.8762,1.8762,1.8762,1.882,1.882,1.882,1.882,1.882,1.882,1.882,1.8909,1.8993,1.8993,1.9169,1.9367,1.9374,1.9535,1.9664,1.9725,1.9556,1.9434,1.9434,1.9434,1.9434,1.9434,1.9434,1.9434,1.9434,1.9434,1.9481,1.9624,1.9725,1.9725,1.9725,1.9725,1.9725,1.9725,1.9725,1.9725,1.9725,1.9725,1.9725,1.9725,1.9725,1.9725,1.9725,1.9725,1.9725,1.9725,1.9664,1.9535,1.9217,1.9203,1.9081,1.8841,1.882,1.882,1.882,1.882,1.8694,1.8488,1.8694,1.862,1.8335,1.8321,1.8247,1.8091,1.8091,1.8002,1.4285,0.0,0.0,0.0,0.0,0.0,1.5959,1.6429,1.689,1.7534,1.7989,1.8389,1.8762,1.9061,1.9271,1.9325,1.9379,1.9413,1.9379,1.9237,1.9115,1.9006,1.8959,1.885,1.8674,1.862,1.8599,1.8599,1.8599,1.864,1.8762,1.882,1.8711,1.8443,1.8498,1.8498,1.8443,1.8355,1.8355,1.8443,1.8389,1.8409,1.8443,1.8552,1.8599,1.8599,1.8766,1.882,1.882,1.882,1.882,1.882,1.882,1.8909,1.8993,1.8993,1.9115,1.9271,1.9393,1.9468,1.9522,1.9624,1.9684,1.959,1.959,1.959,1.959,1.959,1.959,1.959,1.959,1.959,1.961,1.9705,1.9725,1.9725,1.9725,1.9725,1.9725,1.9725,1.9725,1.9725,1.9725,1.9725,1.9725,1.9725,1.9725,1.9725,1.9725,1.9725,1.9725,1.9725,1.9556,1.9413,1.9217,1.9115,1.8972,1.8841,1.882,1.882,1.882,1.882,1.8742,1.8694,1.8742,1.8728,1.864,1.8531,1.8389,1.8247,1.8145,1.8077,0.0,0.0,1.4367,1.4638,0.0,0.0,1.5669,1.5995,1.6324,1.7161,1.7582,1.7935,1.8378,1.864,1.885,1.8918,1.904,1.9169,1.9237,1.9169,1.9061,1.8918,1.8959,1.8864,1.8508,1.8586,1.8586,1.8407,1.8498,1.8552,1.8565,1.8586,1.8498,1.8321,1.8335,1.8335,1.8321,1.8199,1.8199,1.8321,1.8247,1.8247,1.8321,1.8409,1.8477,1.8531,1.862,1.8708,1.882,1.882,1.882,1.882,1.882,1.8875,1.8905,1.8905,1.8993,1.9128,1.9291,1.9345,1.9379,1.959,1.9624,1.9576,1.9644,1.9725,1.9725,1.9725,1.9725,1.9725,1.9725,1.9725,1.9725,1.9725,1.9725,1.9725,1.9725,1.9725,1.9725,1.9725,1.9725,1.9725,1.9725,1.9725,1.9725,1.9725,1.9725,1.9725,1.9725,1.9725,1.9725,1.9725,1.9522,1.9359,1.9217,1.9081,1.8918,1.8841,1.882,1.882,1.882,1.882,1.882,1.882,1.882,1.882,1.882,1.8674,1.8552,1.8409,1.8199,1.8091,0.0,0.0,0.0,1.4801,1.4631,0.0,1.5676,1.573,1.579,1.6795,1.7114,1.7324,1.7704,1.7968,1.8213,1.8265,1.8518,1.88,1.8972,1.8993,1.8918,1.8854,1.8884,1.885,1.8531,1.864,1.8599,1.8321,1.8423,1.8443,1.8301,1.8301,1.8301,1.8267,1.8158,1.8145,1.8267,1.8002,1.8002,1.8267,1.8124,1.8145,1.8267,1.8287,1.8375,1.8454,1.8474,1.862,1.882,1.882,1.882,1.882,1.882,1.882,1.882,1.882,1.8871,1.9006,1.9128,1.9183,1.9257,1.9535,1.9535,1.9468,1.9671,1.9705,1.9644,1.9644,1.9644,1.9644,1.9664,1.9725,1.9725,1.9725,1.9725,1.9725,1.9725,1.9725,1.9725,1.9725,1.9725,1.9725,1.9725,1.9725,1.9725,1.9725,1.9705,1.9644,1.9725,1.9684,1.9684,1.9725,1.9501,1.9325,1.9217,1.9061,1.8905,1.882,1.882,1.882,1.882,1.882,1.882,1.882,1.882,1.882,1.882,1.882,1.8694,1.8552,1.8267,1.8124,1.4292,1.438,1.4462,1.4434,1.4638,0.0,1.4821,1.4964,1.5228,1.5669,1.5879,1.6101,1.6686,1.7032,1.7209,1.7061,1.7629,1.8301,1.9061,1.8959,1.885,1.8938,1.8871,1.8694,1.8389,1.8389,1.8335,1.8145,1.8267,1.8301,1.8145,1.8247,1.8213,1.7968,1.8036,1.8036,1.8004,1.7956,1.7956,1.8004,1.797,1.797,1.8004,1.8077,1.8213,1.8375,1.8477,1.862,1.882,1.882,1.882,1.882,1.882,1.882,1.882,1.882,1.8871,1.8993,1.9027,1.9115,1.9237,1.9413,1.9447,1.9468,1.9671,1.9576,1.9481,1.9481,1.9481,1.9501,1.9684,1.9725,1.9725,1.9725,1.9725,1.9725,1.9725,1.9725,1.9725,1.9725,1.9725,1.9725,1.9725,1.9725,1.9725,1.9725,1.9556,1.9522,1.9705,1.9447,1.9379,1.9644,1.9312,1.9115,1.9203,1.8959,1.8854,1.882,1.882,1.882,1.882,1.882,1.882,1.882,1.882,1.882,1.882,1.882,1.88,1.8766,1.8531,1.8332,1.434,1.4353,1.4428,1.4502,1.4577,0.0,0.0,1.4848,1.4984,1.5432,1.5479,1.5662,1.6103,1.6364,1.6463,1.656,1.708,1.7629,1.8233,1.8511,1.8654,1.8654,1.8654,1.8531,1.8233,1.8267,1.8247,1.8111,1.8091,1.8057,1.7989,1.8057,1.8023,1.7915,1.799,1.799,1.7915,1.7915,1.7915,1.7915,1.7915,1.7915,1.7915,1.8023,1.8179,1.8321,1.8389,1.8552,1.8762,1.8674,1.8694,1.882,1.882,1.882,1.882,1.882,1.8816,1.8884,1.8959,1.8993,1.9027,1.9325,1.9379,1.9359,1.959,1.961,1.9535,1.9535,1.9535,1.9556,1.9644,1.9725,1.9725,1.9725,1.9725,1.9725,1.9725,1.9725,1.9725,1.9725,1.9725,1.9725,1.9725,1.9725,1.9725,1.9725,1.959,1.9576,1.9705,1.9522,1.9468,1.9535,1.9345,1.9183,1.9094,1.8959,1.885,1.882,1.882,1.882,1.882,1.882,1.882,1.882,1.882,1.882,1.882,1.882,1.882,1.882,1.8599,1.844,1.4502,1.4448,1.4516,1.4647,1.4624,1.4604,0.0,0.0,0.0,1.5242,1.5282,1.5276,1.5595,1.567,1.575,1.6083,1.649,1.6836,1.7046,1.7684,1.8102,1.8179,1.8265,1.8301,1.8036,1.8091,1.8111,1.8023,1.7894,1.7826,1.7826,1.7902,1.7915,1.7915,1.7915,1.7902,1.7826,1.7902,1.7902,1.7826,1.7902,1.7915,1.7915,1.7989,1.8145,1.8321,1.8321,1.8498,1.88,1.862,1.8654,1.882,1.882,1.882,1.882,1.882,1.882,1.8841,1.8905,1.8871,1.883,1.9217,1.9305,1.9291,1.9528,1.9576,1.9671,1.9637,1.959,1.9624,1.9664,1.9725,1.9725,1.9725,1.9725,1.9725,1.9725,1.9725,1.9725,1.9725,1.9644,1.9624,1.9664,1.9644,1.9671,1.9671,1.9576,1.9556,1.9671,1.9576,1.9501,1.9434,1.9393,1.9291,1.9047,1.9027,1.8972,1.8909,1.8909,1.8909,1.8909,1.8909,1.8909,1.8909,1.8909,1.883,1.8816,1.8816,1.8854,1.882,1.8599,1.8474,1.4936,1.503,1.5025,1.4748,1.4965,1.5126,1.4536,0.0,1.464,1.4489,0.0,1.4475,1.4638,0.0,0.0,1.4753,1.5438,1.5947,1.5803,1.6317,1.6939,1.7595,1.7846,1.788,1.7663,1.7534,1.7575,1.7629,1.7629,1.7615,1.7615,1.7792,1.7915,1.7915,1.7915,1.7806,1.767,1.7792,1.7792,1.767,1.7806,1.7915,1.7915,1.7936,1.8036,1.8321,1.8321,1.8498,1.882,1.88,1.88,1.882,1.882,1.882,1.882,1.882,1.882,1.882,1.8841,1.8841,1.8854,1.8972,1.9203,1.9359,1.9128,1.9257,1.9434,1.9291,1.9359,1.9481,1.9624,1.9725,1.9725,1.9725,1.9725,1.9725,1.9725,1.9725,1.9725,1.9725,1.9556,1.9501,1.9644,1.9556,1.9447,1.9447,1.9237,1.9169,1.9374,1.9237,1.9169,1.9353,1.9305,1.9217,1.9183,1.9183,1.9169,1.9149,1.9149,1.9149,1.9149,1.9149,1.9149,1.9149,1.9149,1.9094,1.8972,1.8972,1.8905,1.882,1.8599,1.8474,1.4903,1.5004,1.5133,1.4923,1.5018,1.5052,1.4645,1.4516,1.4475,1.4434,0.0,0.0,0.0,0.0,0.0,0.0,1.5038,1.5398,1.5371,1.5737,1.6236,1.6986,1.7032,1.7005,1.7061,1.7222,1.7317,1.7378,1.7385,1.7385,1.7385,1.7528,1.7609,1.7609,1.7609,1.7575,1.746,1.767,1.7704,1.7595,1.7792,1.7915,1.7915,1.8004,1.8077,1.8179,1.8179,1.8301,1.8498,1.8498,1.8498,1.8518,1.8694,1.882,1.882,1.882,1.882,1.882,1.882,1.882,1.8841,1.8938,1.9128,1.9271,1.9149,1.9257,1.9413,1.9359,1.9447,1.9556,1.9535,1.959,1.9644,1.9556,1.959,1.9725,1.9725,1.9725,1.9725,1.9725,1.961,1.959,1.9705,1.9535,1.9374,1.9374,1.9393,1.9359,1.9305,1.9271,1.9217,1.9183,1.9271,1.9271,1.9094,1.9237,1.9291,1.9203,1.9203,1.9203,1.9203,1.9203,1.9203,1.9203,1.9203,1.9169,1.9115,1.9027,1.8959,1.8884,1.8742,1.8674,1.5032,1.5201,1.5364,1.5146,1.5031,1.4957,1.4679,1.4516,1.4448,1.4512,1.4557,0.0,0.0,0.0,1.4584,1.4674,0.0,1.4991,1.5052,1.5248,1.5593,1.6256,1.63,1.6381,1.6662,1.6904,1.7026,1.7066,1.7032,1.7046,1.7127,1.7243,1.7338,1.7419,1.7419,1.7399,1.7358,1.7453,1.7534,1.7534,1.7738,1.7826,1.7915,1.7989,1.8057,1.8091,1.8091,1.8179,1.8321,1.8321,1.8321,1.8335,1.8552,1.8711,1.8708,1.88,1.882,1.882,1.882,1.882,1.8841,1.8884,1.9027,1.9128,1.9094,1.9217,1.9359,1.9325,1.9447,1.9556,1.9413,1.9481,1.9569,1.9407,1.9522,1.961,1.9705,1.9725,1.9725,1.9725,1.9684,1.9671,1.9664,1.9501,1.9359,1.9359,1.94,1.9405,1.9169,1.9237,1.9237,1.9061,1.9237,1.9291,1.9128,1.9305,1.9393,1.9325,1.9325,1.9325,1.9325,1.9325,1.9325,1.9325,1.9325,1.9305,1.9271,1.9115,1.9027,1.8993,1.8796,1.8728,1.5681,1.5825,1.5913,1.5323,1.5174,1.5025,1.4448,1.4529,1.4681,1.4687,1.4957,1.5153,1.516,1.516,1.5065,0.0,1.4869,0.0,0.0,1.4714,1.489,1.5398,1.5832,1.6259,1.6655,1.6574,1.6605,1.6702,1.6574,1.6673,1.6971,1.6992,1.7127,1.7412,1.7419,1.7351,1.7202,1.7351,1.7426,1.7433,1.7527,1.7717,1.7915,1.7915,1.8004,1.8091,1.8091,1.8179,1.8321,1.8321,1.8321,1.8321,1.8335,1.8423,1.8552,1.8708,1.882,1.882,1.882,1.882,1.882,1.882,1.8929,1.8972,1.8875,1.8972,1.9183,1.904,1.9217,1.9393,1.9257,1.9325,1.9434,1.9374,1.9374,1.9481,1.9684,1.9725,1.9725,1.9725,1.9535,1.9481,1.9644,1.9413,1.9203,1.9203,1.8972,1.8888,1.8972,1.9006,1.9061,1.9183,1.9203,1.9271,1.9353,1.9374,1.9481,1.9644,1.9705,1.9705,1.9705,1.9705,1.9705,1.9705,1.9705,1.9576,1.9367,1.9271,1.9128,1.8993,1.8674,1.862,1.5825,1.6069,1.6232,1.5635,1.5438,1.533,1.4681,1.4746,1.4862,1.4714,1.5059,1.5303,1.5201,1.5153,0.0,0.0,0.0,1.4618,0.0,1.4448,1.4536,1.4787,1.5391,1.5811,1.5859,1.6083,1.6252,1.63,1.6164,1.6212,1.6517,1.6625,1.6768,1.6919,1.7073,1.7107,1.7053,1.7195,1.7317,1.7419,1.7521,1.7717,1.7915,1.7915,1.7901,1.799,1.799,1.7968,1.8036,1.8233,1.8199,1.8036,1.8335,1.8423,1.8409,1.8552,1.8674,1.882,1.882,1.882,1.882,1.882,1.8854,1.883,1.8841,1.8905,1.9047,1.9006,1.9128,1.9237,1.9094,1.9169,1.9257,1.9169,1.9291,1.9447,1.9501,1.9501,1.9501,1.9501,1.9468,1.9447,1.9501,1.9434,1.9325,1.9217,1.9203,1.9149,1.9006,1.8993,1.904,1.9183,1.9203,1.9271,1.9413,1.9522,1.961,1.9725,1.9725,1.9725,1.9725,1.9725,1.9725,1.9725,1.9725,1.9644,1.959,1.9434,1.9271,1.9128,1.8918,1.8816,1.6092,1.63,1.6425,1.5934,1.5798,1.5621,1.5127,1.5174,1.5323,1.5228,1.5404,1.5574,1.5581,1.5377,0.0,0.0,0.0,0.0,0.0,1.4265,1.4333,1.4428,1.5004,1.5425,1.5486,1.5703,1.5866,1.592,1.573,1.575,1.6056,1.6259,1.6456,1.6608,1.687,1.6978,1.6978,1.7073,1.7195,1.7344,1.744,1.7595,1.7792,1.7846,1.7915,1.7915,1.7915,1.7915,1.7936,1.8077,1.8036,1.7956,1.8233,1.8321,1.8267,1.8407,1.864,1.882,1.882,1.882,1.882,1.882,1.882,1.882,1.882,1.8871,1.9006,1.9115,1.9169,1.9203,1.9149,1.9128,1.9094,1.9006,1.9128,1.9305,1.9353,1.9374,1.9374,1.9374,1.9374,1.9353,1.9359,1.9345,1.9345,1.9291,1.9325,1.9257,1.9027,1.9027,1.9094,1.9183,1.9203,1.9271,1.9413,1.9569,1.9725,1.9725,1.9725,1.9725,1.9725,1.9725,1.9848,2.0113,1.98,1.9848,2.0113,1.9644,1.9359,1.9203,1.9061,1.8905]},{"header":{"parameterUnit":"m.s-1","parameterCategory":1,"la1":30.6,"la2":29.2853,"lo1":-89.7004,"lo2":-87.6739,"dy":0.0162,"dx":0.0183,"nx":112,"ny":82,"refTime":"2023-04-09T12:00:00:Z","depth":0,"parameterNumber":3,"parameterNumberName":"V-component_of_WINDS"},"data":[0.0,0.0,0.0,0.0,0.0,0.0,0.0,0.0,0.0,0.0,0.0,0.0,0.0,0.0,0.0,0.0,0.0,0.0,0.0,0.0,0.0,0.0,0.0,0.0,0.0,0.0,0.0,0.0,0.0,0.0,0.0,0.0,0.0,0.0,0.0,0.0,0.0,0.0,0.0,0.0,0.0,0.0,0.0,0.0,0.0,0.0,0.0,0.0,0.0,0.0,0.0,0.0,0.0,0.0,0.0,0.0,0.0,0.0,0.0,0.0,0.0,0.0,0.0,0.0,0.0,0.0,0.0,0.0,0.0,0.0,0.0,0.0,0.0,0.0,0.0,0.0,0.0,0.0,0.0,0.0,0.0,0.0,0.0,0.0,0.0,0.0,0.0,0.0,0.0,0.0,5.0398,5.2118,5.3751,5.4765,5.4921,5.457,5.3347,5.1019,0.0,0.0,0.0,0.0,0.0,0.0,0.0,0.0,0.0,0.0,0.0,0.0,0.0,0.0,0.0,0.0,0.0,0.0,0.0,0.0,0.0,0.0,0.0,0.0,0.0,0.0,0.0,0.0,0.0,0.0,0.0,0.0,0.0,0.0,0.0,0.0,0.0,0.0,0.0,0.0,0.0,0.0,0.0,0.0,0.0,0.0,0.0,0.0,0.0,0.0,0.0,0.0,0.0,0.0,0.0,0.0,0.0,0.0,0.0,0.0,0.0,0.0,0.0,0.0,0.0,0.0,0.0,0.0,0.0,0.0,0.0,0.0,0.0,0.0,0.0,0.0,0.0,0.0,0.0,0.0,0.0,0.0,0.0,0.0,0.0,0.0,0.0,0.0,0.0,0.0,0.0,0.0,0.0,0.0,0.0,0.0,0.0,0.0,0.0,0.0,0.0,0.0,0.0,0.0,4.8641,5.032,5.2032,5.3355,5.4096,5.28,5.1468,5.0296,0.0,0.0,0.0,0.0,0.0,0.0,0.0,0.0,0.0,0.0,0.0,0.0,0.0,0.0,0.0,0.0,0.0,0.0,0.0,0.0,0.0,0.0,0.0,0.0,0.0,0.0,0.0,0.0,0.0,0.0,0.0,0.0,0.0,0.0,0.0,0.0,0.0,0.0,0.0,0.0,0.0,0.0,0.0,0.0,0.0,0.0,0.0,0.0,0.0,0.0,0.0,0.0,0.0,0.0,0.0,0.0,0.0,0.0,0.0,0.0,0.0,0.0,0.0,0.0,0.0,0.0,0.0,0.0,0.0,0.0,0.0,0.0,0.0,0.0,0.0,0.0,0.0,0.0,0.0,0.0,0.0,0.0,0.0,0.0,0.0,0.0,0.0,0.0,0.0,0.0,0.0,0.0,0.0,0.0,0.0,0.0,0.0,0.0,0.0,0.0,0.0,0.0,0.0,4.8406,4.9265,5.0007,5.1648,5.2859,5.325,5.2547,5.1531,5.0163,4.9572,0.0,0.0,0.0,0.0,0.0,0.0,0.0,0.0,0.0,0.0,0.0,0.0,0.0,0.0,0.0,0.0,0.0,0.0,0.0,0.0,0.0,0.0,0.0,0.0,0.0,0.0,0.0,0.0,0.0,0.0,0.0,0.0,0.0,0.0,0.0,0.0,0.0,0.0,0.0,0.0,0.0,0.0,0.0,0.0,0.0,0.0,0.0,0.0,0.0,0.0,0.0,0.0,0.0,0.0,0.0,0.0,0.0,0.0,0.0,0.0,0.0,0.0,0.0,0.0,0.0,0.0,0.0,0.0,0.0,0.0,0.0,0.0,0.0,0.0,0.0,0.0,0.0,0.0,0.0,0.0,0.0,0.0,0.0,0.0,0.0,0.0,0.0,0.0,0.0,0.0,0.0,0.0,0.0,0.0,0.0,0.0,0.0,0.0,0.0,0.0,0.0,0.0,4.8953,5.0007,4.9812,5.1336,5.2391,5.2391,5.2391,5.1648,4.989,4.9189,0.0,0.0,0.0,0.0,0.0,0.0,0.0,0.0,0.0,0.0,0.0,0.0,0.0,0.0,0.0,0.0,0.0,0.0,0.0,0.0,0.0,0.0,0.0,0.0,0.0,0.0,0.0,0.0,0.0,0.0,0.0,0.0,0.0,0.0,0.0,0.0,0.0,0.0,0.0,0.0,0.0,0.0,0.0,0.0,0.0,0.0,0.0,0.0,0.0,0.0,0.0,0.0,0.0,0.0,0.0,0.0,0.0,0.0,0.0,0.0,0.0,0.0,0.0,0.0,0.0,0.0,0.0,0.0,0.0,0.0,0.0,0.0,0.0,0.0,0.0,0.0,0.0,0.0,0.0,0.0,0.0,0.0,0.0,0.0,0.0,0.0,0.0,0.0,0.0,0.0,0.0,0.0,0.0,0.0,0.0,0.0,0.0,0.0,0.0,0.0,0.0,0.0,4.8563,4.9773,4.8993,5.0438,5.1492,5.1492,5.1492,5.075,4.8993,4.8837,0.0,0.0,0.0,0.0,0.0,0.0,0.0,0.0,0.0,0.0,0.0,0.0,0.0,0.0,0.0,0.0,0.0,0.0,0.0,0.0,0.0,0.0,0.0,0.0,0.0,0.0,0.0,0.0,0.0,0.0,0.0,0.0,0.0,0.0,0.0,0.0,0.0,0.0,0.0,0.0,0.0,0.0,0.0,0.0,0.0,0.0,0.0,0.0,0.0,0.0,0.0,0.0,0.0,0.0,0.0,0.0,0.0,0.0,0.0,0.0,0.0,0.0,0.0,0.0,0.0,0.0,0.0,0.0,0.0,0.0,0.0,0.0,0.0,0.0,0.0,0.0,0.0,0.0,0.0,0.0,0.0,0.0,0.0,0.0,0.0,0.0,0.0,0.0,0.0,0.0,0.0,0.0,0.0,0.0,0.0,0.0,0.0,0.0,0.0,0.0,0.0,0.0,4.8875,4.9967,4.9656,5.0671,5.1414,5.1414,5.1414,5.0672,4.8915,0.0,0.0,0.0,0.0,0.0,0.0,0.0,0.0,0.0,0.0,0.0,0.0,0.0,0.0,0.0,0.0,0.0,0.0,0.0,0.0,0.0,0.0,0.0,0.0,0.0,0.0,0.0,0.0,0.0,0.0,0.0,0.0,0.0,0.0,0.0,0.0,0.0,0.0,0.0,0.0,0.0,0.0,0.0,0.0,0.0,0.0,0.0,0.0,0.0,0.0,0.0,0.0,0.0,0.0,0.0,0.0,0.0,0.0,0.0,0.0,0.0,0.0,0.0,0.0,0.0,0.0,0.0,0.0,0.0,0.0,0.0,0.0,0.0,0.0,0.0,0.0,0.0,0.0,0.0,0.0,0.0,0.0,0.0,0.0,0.0,0.0,0.0,0.0,0.0,0.0,0.0,0.0,0.0,0.0,0.0,0.0,0.0,0.0,0.0,0.0,0.0,0.0,4.8095,4.9461,5.0398,5.0124,5.0866,5.1414,5.1414,5.1648,5.0945,4.8915,0.0,0.0,0.0,0.0,0.0,0.0,0.0,0.0,0.0,0.0,0.0,0.0,0.0,0.0,0.0,0.0,0.0,0.0,0.0,0.0,0.0,0.0,0.0,0.0,0.0,0.0,0.0,0.0,0.0,0.0,0.0,0.0,0.0,0.0,0.0,0.0,0.0,0.0,0.0,0.0,0.0,0.0,0.0,0.0,0.0,0.0,0.0,0.0,0.0,0.0,0.0,0.0,0.0,0.0,0.0,0.0,0.0,0.0,0.0,0.0,0.0,0.0,0.0,0.0,0.0,0.0,0.0,0.0,0.0,0.0,0.0,0.0,0.0,0.0,0.0,0.0,0.0,0.0,0.0,0.0,0.0,0.0,0.0,0.0,0.0,0.0,0.0,0.0,0.0,0.0,0.0,0.0,0.0,0.0,0.0,0.0,0.0,0.0,0.0,0.0,0.0,0.0,4.8954,5.0321,5.1101,5.0241,5.0905,5.1414,5.1414,5.2196,5.1571,0.0,0.0,0.0,0.0,0.0,0.0,0.0,0.0,0.0,0.0,0.0,0.0,0.0,0.0,0.0,0.0,0.0,0.0,0.0,0.0,0.0,0.0,0.0,0.0,0.0,0.0,0.0,0.0,0.0,0.0,0.0,0.0,0.0,0.0,0.0,0.0,0.0,0.0,0.0,0.0,0.0,0.0,0.0,0.0,0.0,0.0,0.0,0.0,0.0,0.0,0.0,0.0,0.0,0.0,0.0,0.0,0.0,0.0,0.0,0.0,0.0,0.0,0.0,0.0,0.0,0.0,0.0,0.0,0.0,0.0,0.0,0.0,0.0,0.0,0.0,0.0,0.0,0.0,0.0,0.0,0.0,0.0,0.0,0.0,0.0,0.0,0.0,0.0,0.0,0.0,0.0,0.0,0.0,0.0,0.0,0.0,0.0,0.0,0.0,0.0,0.0,0.0,0.0,5.0672,5.161,5.2468,5.2818,5.3091,5.3249,5.3249,5.2898,5.2118,5.0711,0.0,0.0,0.0,0.0,0.0,0.0,0.0,0.0,0.0,0.0,0.0,0.0,0.0,0.0,0.0,0.0,0.0,0.0,0.0,0.0,0.0,0.0,0.0,0.0,0.0,0.0,0.0,0.0,0.0,0.0,0.0,0.0,0.0,0.0,0.0,0.0,0.0,0.0,0.0,0.0,0.0,0.0,0.0,0.0,0.0,0.0,0.0,0.0,0.0,0.0,0.0,0.0,0.0,0.0,0.0,0.0,0.0,0.0,0.0,0.0,0.0,0.0,0.0,0.0,0.0,0.0,0.0,0.0,0.0,0.0,0.0,0.0,0.0,0.0,0.0,0.0,0.0,0.0,0.0,0.0,0.0,0.0,0.0,0.0,0.0,0.0,0.0,0.0,0.0,0.0,0.0,0.0,0.0,0.0,0.0,0.0,0.0,0.0,0.0,0.0,0.0,0.0,5.1921,5.2664,5.3405,5.3951,5.399,5.399,5.399,5.3526,5.2709,5.1498,0.0,0.0,0.0,0.0,0.0,0.0,0.0,0.0,0.0,0.0,0.0,0.0,0.0,0.0,0.0,0.0,0.0,0.0,0.0,0.0,0.0,0.0,0.0,0.0,0.0,0.0,0.0,0.0,0.0,0.0,0.0,0.0,0.0,0.0,0.0,0.0,0.0,0.0,0.0,0.0,0.0,0.0,0.0,0.0,0.0,0.0,0.0,0.0,0.0,0.0,0.0,0.0,0.0,0.0,0.0,0.0,0.0,0.0,0.0,0.0,0.0,0.0,0.0,0.0,0.0,0.0,0.0,0.0,0.0,0.0,0.0,0.0,0.0,0.0,0.0,0.0,0.0,0.0,0.0,0.0,0.0,0.0,0.0,0.0,0.0,0.0,0.0,0.0,0.0,0.0,0.0,0.0,0.0,0.0,0.0,0.0,0.0,0.0,0.0,0.0,0.0,0.0,5.282,5.3561,5.4147,5.4224,5.4224,5.4225,5.4226,5.4157,5.342,5.1742,0.0,0.0,0.0,0.0,0.0,0.0,0.0,0.0,0.0,0.0,0.0,0.0,0.0,0.0,0.0,0.0,0.0,0.0,0.0,0.0,0.0,0.0,0.0,0.0,0.0,0.0,0.0,0.0,0.0,0.0,0.0,0.0,0.0,0.0,0.0,0.0,0.0,0.0,0.0,0.0,0.0,0.0,0.0,0.0,0.0,0.0,0.0,0.0,0.0,0.0,0.0,0.0,0.0,0.0,0.0,0.0,0.0,0.0,0.0,0.0,5.7486,5.6243,0.0,0.0,0.0,0.0,0.0,0.0,0.0,0.0,0.0,0.0,0.0,0.0,0.0,0.0,0.0,0.0,0.0,0.0,0.0,0.0,0.0,0.0,0.0,0.0,0.0,0.0,0.0,0.0,0.0,0.0,0.0,0.0,0.0,0.0,0.0,0.0,0.0,0.0,0.0,0.0,5.3639,5.4498,5.5279,5.598,5.6058,5.6063,5.6031,5.541,5.4555,5.3506,5.2178,0.0,0.0,0.0,0.0,0.0,0.0,0.0,0.0,0.0,0.0,0.0,0.0,0.0,0.0,0.0,0.0,0.0,0.0,0.0,0.0,0.0,0.0,0.0,0.0,0.0,0.0,0.0,0.0,0.0,0.0,0.0,0.0,0.0,0.0,0.0,0.0,0.0,0.0,0.0,0.0,0.0,0.0,0.0,0.0,0.0,0.0,0.0,0.0,0.0,0.0,0.0,0.0,0.0,0.0,0.0,0.0,0.0,0.0,0.0,5.9985,5.8304,0.0,0.0,0.0,0.0,0.0,0.0,0.0,0.0,0.0,0.0,0.0,0.0,0.0,0.0,0.0,0.0,0.0,0.0,0.0,0.0,0.0,0.0,0.0,0.0,0.0,0.0,0.0,0.0,0.0,0.0,0.0,0.0,0.0,0.0,0.0,0.0,0.0,0.0,0.0,0.0,5.4498,5.5396,5.6098,5.6566,5.661,5.6615,5.6581,5.5808,5.511,5.4644,5.3004,0.0,0.0,0.0,0.0,0.0,0.0,0.0,0.0,0.0,0.0,0.0,0.0,0.0,0.0,0.0,0.0,0.0,0.0,0.0,0.0,0.0,0.0,0.0,0.0,0.0,0.0,0.0,0.0,0.0,0.0,0.0,0.0,0.0,0.0,0.0,0.0,0.0,0.0,0.0,0.0,0.0,0.0,0.0,0.0,0.0,0.0,0.0,0.0,0.0,0.0,0.0,0.0,0.0,6.3278,6.4057,6.4173,6.5617,6.5859,6.507,6.2921,6.1155,5.9761,5.9799,0.0,0.0,0.0,0.0,0.0,0.0,0.0,0.0,0.0,0.0,0.0,0.0,0.0,0.0,0.0,0.0,0.0,0.0,0.0,0.0,0.0,0.0,5.8908,5.9064,5.965,5.9612,5.7503,0.0,0.0,0.0,0.0,0.0,0.0,0.0,0.0,0.0,0.0,0.0,5.5202,5.6059,5.6605,5.6605,5.6615,5.6582,5.6584,5.5931,5.5467,5.5311,5.3944,5.2772,0.0,0.0,0.0,0.0,0.0,0.0,0.0,0.0,0.0,0.0,0.0,0.0,0.0,0.0,0.0,0.0,0.0,0.0,0.0,0.0,0.0,0.0,0.0,0.0,0.0,0.0,0.0,0.0,0.0,0.0,0.0,0.0,5.8557,5.9433,0.0,0.0,0.0,0.0,0.0,0.0,0.0,0.0,0.0,0.0,0.0,0.0,0.0,6.2999,6.4636,6.6272,6.7069,6.706,6.8078,6.8563,6.8545,6.878,6.8825,6.871,6.8358,0.0,6.2494,6.2498,0.0,0.0,0.0,0.0,0.0,0.0,0.0,0.0,0.0,0.0,0.0,0.0,0.0,0.0,0.0,0.0,0.0,0.0,0.0,0.0,0.0,0.0,5.8168,5.8908,5.9181,5.9181,5.883,5.8168,5.7621,5.7505,5.6217,5.5085,0.0,0.0,0.0,0.0,0.0,0.0,5.528,5.6059,5.6605,5.6605,5.6615,5.6584,5.6591,5.648,5.6092,5.5351,5.5078,5.457,5.3709,5.3553,0.0,0.0,0.0,0.0,0.0,0.0,0.0,0.0,0.0,0.0,0.0,0.0,0.0,0.0,0.0,0.0,0.0,0.0,0.0,0.0,0.0,0.0,0.0,0.0,0.0,0.0,0.0,0.0,0.0,5.8559,6.0309,5.9736,5.9354,5.8821,0.0,0.0,0.0,0.0,0.0,0.0,0.0,0.0,0.0,6.5136,6.5617,6.6406,6.7621,6.886,6.951,6.953,7.088,7.1558,7.1601,7.207,7.2262,7.2289,7.2253,7.092,6.8567,6.5621,6.3396,6.1712,0.0,0.0,0.0,0.0,5.9261,5.9417,6.0393,6.0705,6.0783,6.1056,0.0,0.0,0.0,0.0,0.0,0.0,0.0,5.8205,5.9026,6.0002,6.0822,6.1213,6.1681,6.2032,6.2032,6.133,6.0159,5.8169,5.7193,5.6412,5.5475,5.4576,0.0,0.0,0.0,5.5631,5.6568,5.7035,5.727,5.727,5.728,5.7288,5.7334,5.6868,5.6638,5.6758,5.5859,5.5116,5.4764,5.4256,5.3824,0.0,0.0,0.0,0.0,0.0,0.0,0.0,0.0,0.0,0.0,0.0,0.0,0.0,0.0,0.0,0.0,0.0,0.0,0.0,0.0,0.0,0.0,0.0,0.0,0.0,0.0,0.0,0.0,6.061,6.2403,6.0921,6.1685,6.1937,0.0,0.0,0.0,0.0,0.0,0.0,6.6042,6.6354,6.7251,6.8924,6.9484,7.0239,7.1302,7.2366,7.2938,7.2949,7.4254,7.4765,7.4635,7.5456,7.5486,7.4876,7.5305,7.4798,7.3238,6.87,6.5971,6.4442,6.2714,6.2044,6.2005,6.1802,6.172,6.1915,6.3204,6.3672,6.3594,6.3163,6.2695,6.207,6.0548,0.0,0.0,0.0,0.0,6.0588,6.1213,6.2696,6.3984,6.3984,6.4454,6.4883,6.4688,6.4101,6.2696,5.9417,5.8636,5.7934,5.6217,5.5591,0.0,5.5591,5.5826,5.6374,5.7625,5.7625,5.7666,5.8099,5.795,5.7957,5.8196,5.7651,5.7536,5.8203,5.7031,5.6288,5.6288,5.5467,5.488,5.4679,0.0,0.0,0.0,0.0,0.0,0.0,0.0,0.0,0.0,0.0,0.0,0.0,0.0,0.0,0.0,0.0,0.0,0.0,0.0,0.0,0.0,0.0,0.0,0.0,0.0,0.0,0.0,0.0,0.0,6.538,6.6695,0.0,0.0,0.0,0.0,6.6364,6.7202,6.775,6.7881,6.8674,6.9889,7.1552,7.3278,7.4982,7.6672,7.8386,7.9256,7.9258,7.9336,7.8943,7.8151,7.905,7.8064,7.5814,7.7493,7.6751,7.4212,7.1521,6.9882,6.8907,6.7149,6.6485,6.6406,6.5624,6.5351,6.5351,6.5429,6.5468,6.5585,6.6328,6.5469,6.3985,6.3086,6.2187,0.0,0.0,6.2735,6.4064,6.4103,6.5352,6.6601,6.6601,6.664,6.6445,6.5702,6.5507,6.4687,6.2031,6.0822,5.9729,5.7973,0.0,5.8323,5.6761,5.7192,5.7703,5.7791,5.7128,5.7287,5.8857,5.8354,5.824,5.906,5.9101,5.9101,5.914,5.9062,5.8984,5.8984,5.8164,5.7304,5.6477,5.5617,0.0,0.0,0.0,0.0,0.0,0.0,0.0,0.0,0.0,0.0,0.0,0.0,0.0,0.0,0.0,0.0,0.0,0.0,0.0,0.0,0.0,0.0,0.0,0.0,0.0,0.0,0.0,0.0,6.9607,7.0696,0.0,7.018,6.9277,6.9586,7.1577,7.2003,7.3174,7.5403,7.5298,7.5921,7.7614,7.827,7.8939,7.9552,8.0155,8.0468,8.0467,7.9948,7.9545,7.9264,7.9576,7.918,7.835,7.8975,7.8702,7.7687,7.5657,7.3666,7.1753,6.9996,6.9294,6.9215,6.8357,6.8044,6.8044,6.8044,6.8044,6.8005,6.7732,6.6834,6.5742,6.4921,6.4453,6.4217,6.4217,6.5038,6.5898,6.5898,6.7187,6.8319,6.7771,6.8083,6.8397,6.8122,6.8044,6.7459,6.539,6.3399,6.1681,6.0509,6.0587,6.0587,5.9962,6.0118,6.0511,6.1062,6.0906,6.0947,6.1537,6.135,6.1083,6.0814,6.0308,5.9959,5.9961,5.9492,5.9178,5.9137,5.8356,5.7727,5.736,5.5994,5.5131,0.0,0.0,0.0,0.0,0.0,0.0,0.0,0.0,0.0,0.0,0.0,0.0,0.0,0.0,0.0,0.0,0.0,0.0,0.0,0.0,0.0,0.0,0.0,0.0,0.0,6.9374,7.1875,7.2773,7.4648,7.5508,7.4608,7.4256,7.492,7.6951,7.7378,7.8432,8.0426,8.0273,8.0507,8.132,8.1601,8.1796,8.1795,8.2066,8.2212,8.2211,8.1682,8.1278,8.0966,8.0966,8.0654,8.0146,8.0459,8.0224,7.9639,7.878,7.7257,7.5226,7.2884,7.1986,7.1909,7.1324,7.1128,7.1128,7.1128,7.0933,7.0621,7.0034,6.9255,6.8436,6.7927,6.7771,6.7771,6.7771,6.8357,6.8981,6.8981,7.0035,7.0972,7.0387,7.0699,7.105,7.0777,7.0465,6.984,6.8396,6.6053,6.3828,6.2383,6.2617,6.2734,6.1836,6.2187,6.2697,6.2974,6.2741,6.2781,6.3371,6.3182,6.2758,6.2177,6.1865,6.1478,6.0897,6.0349,5.9878,5.9562,5.8741,5.8267,5.8253,5.6843,5.5865,5.5319,0.0,0.0,0.0,0.0,0.0,0.0,0.0,0.0,0.0,0.0,0.0,0.0,0.0,0.0,0.0,0.0,0.0,0.0,0.0,0.0,0.0,0.0,0.0,6.8396,7.2726,7.5649,7.5032,7.8621,8.0849,8.0038,8.0664,8.1444,8.2298,8.3158,8.3275,8.2454,8.3164,8.3241,8.2415,8.3229,8.3641,8.3666,8.45,8.4907,8.4907,8.4868,8.4401,8.3582,8.3543,8.2645,8.1163,8.1981,8.1396,7.9873,8.0654,8.0498,7.9405,7.6008,7.4642,7.4642,7.4603,7.4564,7.4486,7.4486,7.3978,7.3352,7.3352,7.2768,7.2065,7.2065,7.2065,7.2065,7.2065,7.269,7.3352,7.3352,7.3939,7.4486,7.4486,7.4486,7.429,7.3508,7.2651,7.1831,7.0932,6.8747,6.6172,6.3633,6.4609,6.4843,6.2304,6.336,0.0,6.3257,6.2437,6.2596,6.4245,6.366,6.3152,6.3076,6.3817,6.3544,6.1826,6.167,6.128,6.0382,5.9523,5.9051,5.9004,5.8174,5.6958,5.5358,0.0,0.0,0.0,0.0,0.0,0.0,0.0,0.0,0.0,0.0,0.0,0.0,0.0,0.0,0.0,0.0,0.0,0.0,0.0,0.0,0.0,7.1597,7.3906,7.4541,7.6373,7.8986,8.2503,8.3985,8.4844,8.5242,8.548,8.5717,8.5955,8.6189,8.6502,8.6893,8.6533,8.6492,8.6892,8.7147,8.7258,8.7269,8.7492,8.7642,8.7603,8.6353,8.5612,8.5377,8.4714,8.4206,8.3738,8.3347,8.2918,8.2371,8.1397,8.085,8.0498,7.8897,7.8272,7.8116,7.6867,7.5579,7.4486,7.4486,7.4369,7.4173,7.4173,7.4017,7.3822,7.3822,7.3822,7.3822,7.3822,7.3978,7.4173,7.4173,7.433,7.4486,7.4486,7.4486,7.4447,7.4212,7.3978,7.3588,7.2728,7.1986,7.0699,6.8083,6.8044,6.7888,6.6521,6.7303,6.7694,6.6799,6.7034,6.7231,6.7077,6.685,6.6191,6.498,6.4518,6.3545,6.1826,6.1123,6.038,5.9476,5.8617,5.7871,5.7314,5.7036,5.6684,0.0,0.0,0.0,0.0,0.0,0.0,0.0,0.0,0.0,0.0,0.0,0.0,0.0,0.0,0.0,0.0,0.0,0.0,0.0,0.0,0.0,0.0,7.6555,7.9561,8.12,8.1552,8.2996,8.6744,8.7525,8.7915,8.8422,8.8501,8.8501,8.8501,8.8813,8.9241,8.975,8.932,8.928,8.9789,8.9437,8.9242,8.9242,8.9242,8.9242,8.9242,8.8227,8.7525,8.7173,8.6666,8.6235,8.5844,8.4987,8.4597,8.448,8.3152,8.2606,8.2411,0.0,0.0,0.0,0.0,7.7531,7.6672,7.6672,7.6438,7.6125,7.6125,7.5891,7.5579,7.5579,7.5579,7.5579,7.5579,7.5579,7.5579,7.5579,7.5579,7.5579,7.5579,7.5579,7.5579,7.5579,7.5305,7.4915,7.4447,7.4056,0.0,7.1792,7.0933,7.0191,6.9331,6.9606,6.9645,6.8747,6.9098,6.9215,6.8708,6.8636,6.8094,6.6766,6.6186,0.0,0.0,0.0,6.076,5.9154,5.8959,0.0,0.0,0.0,5.801,5.7659,5.7153,0.0,0.0,5.5279,5.5005,0.0,0.0,0.0,0.0,0.0,0.0,0.0,0.0,0.0,0.0,0.0,0.0,0.0,0.0,0.0,0.0,8.1356,8.4987,8.7601,8.7407,8.7525,8.8969,8.9906,9.0454,9.0571,9.0571,9.0571,9.0571,9.1272,9.1741,9.1741,9.1741,0.0,0.0,0.0,9.0571,9.0571,9.0493,9.0415,9.0415,9.0337,8.983,8.9008,8.9008,8.854,8.764,8.6783,8.6353,8.6197,8.5298,8.4907,8.4517,8.1472,8.0146,7.999,7.999,7.9873,7.9717,7.9717,0.0,0.0,7.8547,7.8038,7.7375,7.7375,7.7375,7.7375,7.7375,7.7375,7.7375,7.7375,7.7375,7.7375,7.7257,7.7257,7.7218,7.7101,7.6477,7.5932,7.5932,7.5305,7.4798,7.4798,7.3393,7.1987,7.1127,7.1088,7.0816,6.9957,6.9918,6.9959,6.984,6.9763,0.0,6.8472,6.8122,6.6951,6.461,6.3438,6.1798,5.9494,6.0159,6.0198,5.9416,6.0159,6.0159,5.9377,5.9377,5.9377,5.9338,5.6879,5.6138,0.0,0.0,0.0,0.0,0.0,0.0,0.0,0.0,0.0,0.0,0.0,0.0,0.0,0.0,0.0,8.1708,8.5338,8.8579,9.1155,9.1975,9.217,9.1819,9.2522,9.3341,9.4044,9.4122,9.4122,9.4122,9.4278,9.4356,9.4356,9.4356,9.4356,9.4356,9.42,9.4122,9.4122,9.3419,9.3068,9.3068,9.2365,0.0,9.0804,9.0804,9.0335,8.9439,8.8579,8.7798,8.7093,8.6197,8.5416,8.4712,8.4088,8.2995,8.1784,8.1784,8.0927,7.9717,7.9717,7.96,7.9444,7.9444,7.9326,7.9209,7.9209,7.9209,0.0,7.9209,7.9209,7.9209,7.9209,7.9209,7.9014,7.8313,7.8157,7.7962,7.7257,7.6984,7.6867,7.6867,7.6711,7.6594,7.6594,7.5149,7.3744,7.2923,7.3354,7.3471,7.2649,7.3119,7.3275,7.261,7.1909,7.1128,7.0268,6.8279,6.6561,6.5429,6.3202,6.1719,6.1211,6.1368,6.1368,6.1211,6.1368,6.1368,6.1211,6.1211,6.1211,6.1133,5.9259,5.8479,0.0,0.0,0.0,0.0,0.0,0.0,0.0,0.0,0.0,0.0,0.0,7.3549,7.6594,0.0,8.3232,8.6277,8.9633,9.2482,9.42,9.5567,9.5762,9.4005,9.42,9.4786,9.5684,9.5762,9.5918,9.6386,9.6386,9.6582,9.7011,9.6621,9.6582,9.705,9.6191,9.5762,9.5762,9.4903,9.4434,9.4434,9.4005,9.3576,9.3185,9.2756,9.2326,9.1819,9.0531,8.975,8.928,8.8422,8.7798,8.7407,8.7407,8.5807,8.3541,8.3541,8.2995,8.2253,8.2253,8.1706,8.1005,8.1005,8.042,7.9717,7.9717,7.9717,7.9795,8.0224,8.0029,7.9795,8.0224,8.0029,7.9717,7.9718,7.9366,7.8936,7.8507,7.8077,7.7609,7.7179,7.7101,7.7101,7.7101,7.6399,7.5501,7.4681,7.4525,7.4369,7.3939,7.4251,7.4369,7.3939,7.351,7.2924,7.2064,6.9606,6.7577,6.6288,6.4609,6.3241,6.2383,6.2774,6.2813,6.2343,6.2774,6.3008,6.3008,6.3008,6.3008,6.2969,6.211,6.1213,0.0,0.0,0.0,0.0,0.0,0.0,0.0,7.0465,7.1519,7.464,7.6203,7.8116,8.1825,8.5299,8.8383,9.0845,9.3849,9.623,9.7245,9.8612,9.8846,9.705,9.6542,9.6542,9.7089,9.7439,9.787,9.8416,9.8612,9.9002,9.9703,9.8924,9.8768,9.947,9.7985,9.7087,9.6892,9.6035,9.5527,9.5332,9.5332,9.5254,9.5098,9.4552,9.42,9.3966,9.2443,9.1702,9.1467,9.0609,9.0142,8.9986,8.9982,8.8261,8.5761,8.5413,8.5181,8.5024,8.4868,8.3931,8.2799,8.2799,8.1823,8.0693,8.0693,8.0693,8.0849,8.1552,8.1239,8.0849,8.1552,8.1239,8.0771,8.1161,8.0732,8.0107,7.9756,7.9131,7.8429,7.7726,7.7609,7.7609,7.7609,7.7609,7.7296,7.6439,7.554,7.5071,7.5227,7.511,7.4993,7.4993,7.4837,7.429,7.3157,7.1128,6.9178,6.7421,6.6717,6.5702,6.4297,6.4922,6.4883,6.4023,6.4688,6.4961,6.4805,6.4805,6.4805,6.4805,6.4805,6.3868,6.866,6.8699,7.007,7.1299,7.2785,7.47,0.0,7.9014,8.0107,8.1981,8.4284,8.6352,8.7603,9.0648,9.3537,9.5371,9.7282,9.9119,10.0682,10.1112,10.1698,10.2908,10.1698,10.0487,9.9939,10.1188,10.1813,10.1112,10.1813,10.2281,10.2398,10.15,10.1112,10.119,10.029,9.9509,9.8727,9.7831,9.7011,9.6267,9.6267,9.584,9.5137,9.5801,9.5684,9.4903,9.3927,9.3068,9.2287,9.1507,9.0687,8.9984,8.9926,8.9684,8.914,8.7674,8.6625,8.5846,8.5064,8.4673,8.4517,8.4517,8.44,8.4244,8.4244,8.4244,8.4244,8.4361,8.4283,8.4244,8.4361,8.4283,8.3892,8.2489,8.2097,8.1589,8.0029,7.9639,7.9522,7.9444,7.9405,7.9405,7.9405,7.9405,7.9092,7.8235,7.7375,7.7101,7.7844,7.7296,7.6828,7.6828,7.6127,7.4682,7.2339,7.187,7.0972,6.9217,6.9022,6.8904,6.8709,6.8787,6.8435,6.7536,6.7615,6.7303,6.6523,6.6523,6.6523,6.6523,6.6523,6.5625,7.5519,7.4661,7.4429,7.7207,7.8809,8.0135,8.159,8.2179,8.3233,8.5923,8.7757,8.9554,9.1932,9.4783,9.701,9.7751,10.0182,10.1987,10.2184,10.3093,10.3882,10.4118,10.4301,10.4218,10.3294,10.3413,10.3608,10.3804,10.4116,10.4311,10.4311,10.3999,10.3491,10.2986,10.2203,10.1305,10.0485,9.9627,9.8768,9.7907,9.8416,9.7948,9.6621,9.6972,9.6386,9.5098,9.4708,9.4356,9.4005,9.364,9.301,9.219,9.2127,9.1845,9.1223,8.9474,8.8626,8.825,8.7899,8.7475,8.7056,8.7056,8.6392,8.5573,8.5573,8.5181,8.4907,8.5416,8.5181,8.4907,8.5416,8.5174,8.4739,8.4554,8.373,8.2787,8.2058,8.1161,8.0459,8.0459,8.0459,8.0615,8.1122,8.12,8.1083,8.0732,7.9483,7.8741,7.9092,7.8858,7.8429,7.7921,7.6634,7.5385,7.4292,7.3315,7.2221,7.0972,7.0426,6.9918,6.9412,6.9412,6.9215,6.8864,6.8357,6.7927,6.7576,6.707,6.6796,6.6796,6.6796,6.6406,7.9125,7.8777,7.854,8.2019,8.3737,8.4673,8.5149,8.5659,8.6829,8.9752,9.1041,9.2563,9.5527,9.7831,9.9395,9.9863,10.2298,10.4107,10.4185,10.51,10.5697,10.5502,10.6188,10.6495,10.6085,10.5697,10.5697,10.6087,10.6517,10.6714,10.6487,10.6214,10.571,10.478,10.368,10.2898,10.2195,10.1096,10.0311,9.9684,10.0116,9.9608,9.8398,9.8125,9.7344,9.6134,9.59,9.5666,9.543,9.5412,9.4937,9.4115,9.4089,9.3688,9.3025,9.149,9.0654,9.0218,8.9983,8.9524,8.9031,8.9031,8.8172,8.7155,8.7155,8.6726,8.6297,8.6689,8.6336,8.5945,8.6338,8.5975,8.5578,8.599,8.5124,8.4142,8.393,8.2918,8.2059,8.2059,8.2059,8.2254,8.2877,8.2995,8.2995,8.2995,8.1708,8.0576,8.0107,7.9834,7.9366,7.8508,7.7259,7.6322,7.5853,7.4681,7.3627,7.2729,7.2104,7.148,7.0816,7.0582,7.0348,7.0115,6.9255,6.859,6.8082,6.7459,6.7031,6.6796,6.6796,6.6796,7.6418,7.8246,8.0243,8.3741,8.5897,8.7621,8.932,9.1005,9.2721,9.4435,9.5488,9.6661,9.8458,9.9551,10.0685,10.2281,10.3413,10.4895,10.7391,10.7079,10.7199,10.8799,10.759,10.6887,10.771,10.8607,10.8682,10.7899,10.9303,10.9903,10.9112,10.8292,10.7485,10.6614,10.4995,10.4005,10.4002,10.2298,10.1387,10.1303,10.0604,10.0214,10.0097,9.9239,9.8812,9.8734,9.7876,9.7057,9.6274,9.6274,9.5767,9.4945,9.4955,9.4943,9.4823,9.3932,9.2558,9.1047,9.0186,8.9874,8.9874,8.9874,8.9835,8.9796,8.9796,8.9757,8.9562,8.8745,8.8511,8.8316,8.7497,8.7224,8.7036,8.6279,8.6049,8.5781,8.4943,8.4712,8.4673,8.4673,8.4673,8.4673,8.4712,8.4712,8.4712,8.4712,8.3972,8.2801,8.1163,8.0224,7.9366,7.8508,7.8352,7.7649,7.5932,7.5736,7.5346,7.4486,7.4408,7.4369,7.4369,7.3586,7.2767,7.1948,7.1089,6.98,6.8082,6.8082,6.7615,6.6796,6.6796,6.6796,7.8984,8.2023,8.5303,8.8235,9.0265,9.1987,9.3669,9.453,9.5271,9.6401,9.5976,9.5742,9.6873,9.8276,9.964,10.081,10.4106,10.6615,10.6888,10.8214,10.8409,10.6696,10.7001,10.7016,10.6186,10.6898,10.7586,10.7895,10.8991,10.9189,10.8382,10.8616,10.8114,10.6682,10.6086,10.5183,10.4009,10.3415,10.2515,10.1384,10.0601,10.0214,10.0214,9.9317,9.8575,9.8029,9.7717,9.7444,9.7168,9.7148,9.6632,9.5849,9.5817,9.5452,9.4906,9.4581,9.3812,9.2744,9.1865,9.1574,9.1632,9.1632,9.1242,9.0771,9.0771,9.0342,8.9832,8.9559,8.9442,8.925,8.8392,8.8144,8.7944,8.7112,8.6456,8.5955,8.5703,8.5211,8.4985,8.5534,8.5651,8.5846,8.643,8.6547,8.6313,8.5768,8.4441,8.3113,8.1981,8.1083,8.0459,8.0148,7.9094,7.8157,7.7571,7.6478,7.5658,7.5385,7.4837,7.4486,7.4486,7.4251,7.3705,7.2884,7.2026,7.0699,6.8942,6.8942,6.82,6.6834,6.784,6.7734,8.2685,8.5806,8.8884,9.2119,9.3755,9.5041,9.6698,9.7084,9.7314,9.8198,9.6752,9.551,9.6071,9.6854,9.7672,9.8568,10.2293,10.5305,10.6303,10.7584,10.7896,10.6688,10.7216,10.7111,10.5702,10.6381,10.7285,10.8288,10.938,10.9582,10.8383,10.9206,10.8816,10.7099,10.67,10.6218,10.5304,10.4704,10.3691,10.2188,10.1419,10.1113,10.0999,9.9865,9.9202,9.889,9.7942,9.7705,9.7974,9.7663,9.722,9.667,9.6643,9.6285,9.5779,9.5428,9.5,9.4384,9.3266,9.2675,9.2459,9.2459,9.2105,9.1637,9.1637,9.1245,9.0738,9.0426,9.0348,9.0114,8.9256,8.8815,8.8419,8.7905,8.7099,8.649,8.6552,8.6105,8.5883,8.6471,8.6549,8.6744,8.7289,8.7406,8.7093,8.6236,8.5143,8.4011,8.2879,8.2254,8.167,8.1046,7.9992,7.9211,7.8897,7.7844,7.7181,7.7181,7.6399,7.5891,7.5891,7.5305,7.472,7.4212,7.3041,7.1704,7.0233,6.9921,6.9007,6.7569,6.8586,6.843,8.705,8.9384,9.1176,9.531,9.6401,9.6858,9.8489,9.8826,9.9008,9.9629,9.7712,9.5854,9.5785,9.5213,9.51,9.6109,9.8562,10.182,10.5899,10.5812,10.6312,10.8608,10.8209,10.7392,10.6502,10.7197,10.8099,10.9096,11.0585,11.0796,10.9195,11.0017,10.9705,10.799,10.7098,10.7018,10.7787,10.5987,10.4703,10.3893,10.3118,10.2593,10.2515,10.0917,10.0606,10.119,9.8614,9.8013,9.8709,9.7809,9.744,9.744,9.7401,9.7401,9.7284,9.6467,9.6156,9.5897,9.4349,9.3245,9.254,9.2462,9.2462,9.2462,9.2462,9.2423,9.2228,9.1449,9.1176,9.0943,9.0085,8.9267,8.8618,8.865,8.798,8.7385,8.7449,8.7432,8.7406,8.7406,8.7406,8.7406,8.7406,8.7406,8.7133,8.6275,8.6158,8.5534,8.3777,8.3582,8.2957,8.1319,8.1085,8.0693,7.9834,7.9717,7.9717,7.9717,7.8936,7.8469,7.8391,7.679,7.5893,7.5814,7.4251,7.2851,7.17,7.0957,6.999,6.8901,6.9048,6.9005,8.9613,9.286,9.5876,9.7589,9.8951,10.0002,10.0494,10.0509,9.9967,9.8365,9.5399,9.2686,9.153,9.2169,9.3804,9.6646,10.1389,10.551,10.7913,10.9588,11.0216,10.901,10.9198,10.9108,10.8188,10.8388,10.8882,10.9807,11.0284,11.041,10.9909,11.0688,11.0688,10.9598,10.9393,10.8989,10.8585,10.6818,10.5884,10.5588,10.4201,10.3199,10.2498,10.1403,10.0703,10.0197,9.956,9.94,9.9517,9.8646,9.8291,9.8214,9.7635,9.7401,9.7362,9.7129,9.6662,9.6044,9.5638,9.4907,9.409,9.3428,9.3233,9.3233,9.3233,9.2766,9.2334,9.2766,9.2411,9.1711,9.0893,9.0528,9.0205,8.9554,8.8845,8.8277,8.8285,8.7811,8.7406,8.7406,8.7406,8.7406,8.7406,8.7406,8.7328,8.7093,8.7054,8.643,8.4673,8.4478,8.405,8.2996,8.2332,8.163,8.0732,8.0068,7.9717,7.9717,7.9483,7.9092,7.843,7.7962,7.7142,7.5814,7.5385,7.4024,7.17,7.2785,7.1784,6.8936,7.0738,7.0553,9.2942,9.5977,9.8668,9.9819,10.0784,10.14,10.0606,10.0083,9.8885,9.5667,9.2825,9.0426,8.8796,9.0215,9.2393,9.4723,10.0091,10.4904,10.741,10.9204,11.0191,10.9919,11.0309,11.0187,10.9407,10.9685,11.0086,11.0588,11.0716,11.0593,11.0199,11.1016,11.1005,11.0205,11.0205,10.9916,10.9382,10.8088,10.7204,10.6815,10.5519,10.4401,10.3588,10.2299,10.1716,10.1482,10.0412,10.0091,10.0397,9.9477,9.9117,9.9078,9.8616,9.8461,9.8461,9.8461,9.815,9.7683,9.7289,9.6823,9.6172,9.4581,9.4055,9.4055,9.4055,9.3743,9.3432,9.3938,9.3432,9.2649,9.2221,9.1542,9.0897,9.0391,8.9667,8.9108,8.9079,8.8799,8.8422,8.803,8.7952,8.7835,8.7484,8.7406,8.7406,8.7406,8.7406,8.7003,8.5949,8.5551,8.5026,8.4167,8.366,8.319,8.2723,8.1864,8.1356,8.1356,8.0693,8.0068,7.9562,7.8712,7.7795,7.6819,7.5996,7.4778,7.3142,7.3759,7.2961,7.0954,7.2304,7.1934,9.6477,9.8733,10.0399,10.1909,10.2191,10.1719,9.981,9.8717,9.6844,9.258,9.0396,8.8771,8.7249,8.9017,9.116,9.2637,9.7691,10.2695,10.6218,10.761,10.9086,11.1417,11.1612,11.1417,11.0712,11.1184,11.1495,11.1612,11.1715,11.1383,11.0683,11.1189,11.1205,11.0493,11.0415,11.0385,11.0291,10.9491,10.8698,10.7804,10.6882,10.6014,10.5081,10.3486,10.3213,10.3797,10.1416,10.0695,10.1395,10.0407,9.9957,9.9957,9.984,9.9802,9.9802,9.9685,9.9646,9.953,9.8747,9.8514,9.8103,9.5715,9.497,9.497,9.497,9.4853,9.4815,9.4931,9.4309,9.3643,9.3643,9.2597,9.1473,9.1473,9.0871,9.0268,9.0201,9.0153,8.984,8.8936,8.8778,8.8544,8.7761,8.7568,8.749,8.749,8.7373,8.7265,8.7078,8.6592,8.5904,8.4993,8.4876,8.4837,8.472,8.4017,8.3551,8.3434,8.2068,8.1132,8.0936,7.9294,7.8338,7.8222,7.6529,7.5498,7.5165,7.4413,7.3857,7.3507,7.3623,7.3206,9.9218,10.0686,10.1796,10.3584,10.3398,10.2284,9.9869,9.8014,9.5656,9.1511,8.9254,8.7765,8.6976,8.8368,9.114,9.5611,10.0202,10.4592,10.8814,11.1294,11.2887,11.3314,11.3399,11.3593,11.4214,11.3088,11.2699,11.3314,11.3418,11.3314,11.3197,11.2692,11.2304,11.2213,11.2213,11.2207,11.2117,11.1313,11.0381,10.9487,10.7984,10.6786,10.6008,10.4882,10.4615,10.4615,10.3516,10.3005,10.2999,10.14,10.0812,10.0695,10.0112,9.9802,9.9724,9.898,9.8747,9.8708,9.8553,9.8514,9.8209,9.6327,9.5711,9.5711,9.5711,9.525,9.4861,9.5516,9.5133,9.4472,9.4472,9.4275,9.4072,9.4072,9.3445,9.2846,9.283,9.17,9.0357,8.938,8.9206,8.9167,8.9012,8.836,8.7897,8.7897,8.7318,8.6882,8.6845,8.6883,8.6536,8.5499,8.5365,8.5093,8.4349,8.4155,8.377,8.3036,8.272,8.1947,8.0547,8.0167,7.9641,7.8937,7.7896,7.6929,7.6049,7.5933,7.5027,7.3507,7.4161,7.4046,9.9885,10.1992,10.3804,10.4594,10.3814,10.1885,9.8529,9.6068,9.3198,8.8572,8.6992,8.6351,8.6068,8.7783,9.0339,9.3794,9.8298,10.2712,10.6512,10.9296,11.1499,11.3313,11.3507,11.3701,11.4088,11.39,11.371,11.371,11.4213,11.4292,11.378,11.3399,11.3204,11.3204,11.2816,11.2589,11.2589,11.2194,11.1495,11.0718,10.9786,10.8814,10.7494,10.66,10.6017,10.5512,10.4191,10.3609,10.3492,10.221,10.1705,10.1589,10.1317,10.1117,10.1084,10.0612,10.0495,10.0417,9.9957,9.9802,9.9607,9.8325,9.7626,9.7232,9.7232,9.6655,9.6078,9.6461,9.5956,9.5334,9.5334,9.5006,9.4716,9.4716,9.4402,9.41,9.4068,9.3356,9.2428,9.1472,9.0923,9.0496,9.0063,8.9253,8.8676,8.8676,8.7948,8.7402,8.728,8.6976,8.6578,8.6239,8.6161,8.6005,8.5578,8.5146,8.4714,8.4291,8.3825,8.301,8.1767,8.1201,8.0517,7.962,7.8644,7.7936,7.7426,7.7002,7.6349,7.5476,7.5399,7.4938,10.0316,10.3018,10.5293,10.5407,10.3789,10.1289,9.7211,9.4279,9.1027,8.6285,8.54,8.5498,8.5512,8.7318,8.9433,9.1388,9.5536,9.9869,10.3808,10.6594,10.9479,11.3098,11.3408,11.3502,11.4087,11.442,11.4391,11.4195,11.4892,11.4914,11.3904,11.402,11.3904,11.3593,11.2894,11.2589,11.2589,11.2589,11.2194,11.1301,11.1301,11.0407,10.8698,10.7999,10.7183,10.6406,10.4813,10.4191,10.4114,10.3214,10.2709,10.2593,10.2593,10.2515,10.2282,10.2088,10.201,10.1894,10.12,10.1006,10.0889,10.0501,9.964,9.8786,9.8786,9.8287,9.7743,9.7743,9.7276,9.6733,9.6733,9.6266,9.5767,9.5573,9.5495,9.5384,9.491,9.4735,9.4416,9.3412,9.2708,9.2049,9.1384,9.0531,8.9988,8.9988,8.9069,8.8344,8.8197,8.7434,8.6983,8.7164,8.6876,8.6721,8.6915,8.6128,8.5541,8.5386,8.4726,8.3951,8.3103,8.2109,8.1266,8.057,7.9379,7.8792,7.8792,7.7946,7.7561,7.7561,7.6861,7.6169,10.1703,10.3704,10.532,10.6097,10.3779,10.051,9.7096,9.3719,9.0304,8.6734,8.6076,8.6131,8.6198,8.7082,8.8668,9.1265,9.4026,9.7857,10.3615,10.6594,10.9797,11.3997,11.3803,11.4298,11.6778,11.4804,11.4195,11.6007,11.6189,11.5613,11.3897,11.4603,11.4292,11.2783,11.2583,11.2589,11.2589,11.2589,11.2194,11.1301,11.1301,11.0407,10.8698,10.8581,10.8115,10.7183,10.6283,10.6017,10.5895,10.5007,10.4191,10.3492,10.3492,10.2987,10.2204,10.1394,10.1084,10.1084,10.1006,10.1006,10.1084,10.1816,10.1006,9.9685,9.9685,9.9607,9.9569,9.9569,9.9491,9.9452,9.9452,9.9374,9.9141,9.832,9.8164,9.764,9.582,9.5402,9.5044,9.3877,9.3577,9.3508,9.3423,9.273,9.219,9.219,9.0804,8.9709,8.9714,8.8991,8.8507,8.854,8.7115,8.6499,8.7269,8.653,8.5721,8.4989,8.4874,8.445,8.3572,8.2694,8.2178,8.2101,8.0493,7.9669,7.9669,7.8823,7.8407,7.8407,7.8292,7.8215,10.1019,10.3789,10.602,10.628,10.3779,10.0394,9.7057,9.3633,9.0248,8.6786,8.6118,8.6159,8.6183,8.6492,8.7264,8.8853,9.0404,9.3111,9.804,10.0508,10.3902,10.9794,11.0594,11.1905,11.4993,11.4916,11.521,11.6707,11.6305,11.5685,11.5018,11.5594,11.5301,11.4006,11.3508,11.3088,11.2589,11.2589,11.2388,11.2117,11.2117,11.1184,10.9514,10.9514,10.8698,10.7416,10.6516,10.6205,10.6089,10.5318,10.4697,10.4386,10.4386,10.4191,10.3803,10.2909,10.2599,10.2482,10.2016,10.1783,10.1816,10.2204,10.1816,10.1194,10.0695,10.019,9.9802,9.9802,9.9802,9.9802,9.9802,9.9802,9.9724,9.9374,9.9297,9.8993,9.801,9.7789,9.7418,9.6207,9.5595,9.5095,9.4566,9.3787,9.321,9.321,9.221,9.1479,9.1479,9.0748,9.0402,9.0941,8.8979,8.7594,8.7401,8.7094,8.6517,8.567,8.5632,8.5247,8.4439,8.4055,8.3632,8.3101,8.2439,8.2093,8.2093,8.0746,8.0054,8.0054,7.8984,7.8484,9.9712,10.3212,10.6097,10.628,10.3712,10.0096,9.7019,9.348,8.994,8.6748,8.6094,8.6094,8.6094,8.6324,8.6709,8.7286,8.8325,9.0441,9.4432,9.624,9.9404,10.5482,10.6713,10.8514,11.2194,11.4403,11.591,11.6613,11.6407,11.5981,11.5695,11.5995,11.5786,11.4684,11.3979,11.3378,11.2803,11.2616,11.2384,11.2384,11.2384,11.1505,10.9915,10.9914,10.8905,10.7314,10.6693,10.6511,10.6401,10.5787,10.5392,10.5081,10.5081,10.5004,10.4693,10.4105,10.3794,10.3717,10.2785,10.2514,10.2514,10.2203,10.221,10.2009,10.1395,10.0908,10.0501,10.0501,10.0501,10.0501,10.0501,10.0501,10.0501,10.019,10.019,10.0003,9.9442,9.929,9.9041,9.8055,9.7442,9.6826,9.622,9.5605,9.5211,9.5211,9.4287,9.3633,9.3633,9.2633,9.2172,9.2787,9.1257,8.971,8.8632,8.8286,8.7671,8.6555,8.6478,8.6094,8.5286,8.5008,8.4593,8.3978,8.3717,8.3601,8.3601,8.2401,8.1823,8.1823,8.06,7.9869,9.8134,10.1904,10.529,10.6213,10.3212,9.9452,9.6865,9.2971,8.9201,8.6624,8.6094,8.6094,8.6094,8.6786,8.7401,8.7401,8.8786,9.1086,9.4509,9.574,9.7904,10.2097,10.2712,10.4417,10.879,11.3203,11.5704,11.5494,11.6517,11.6613,11.56,11.5686,11.5398,11.4491,11.3717,11.3292,11.3292,11.2419,11.1994,11.1994,11.1994,11.1195,10.9715,10.9592,10.8717,10.7202,10.7202,10.7114,10.6904,10.7098,10.6603,10.5603,10.5603,10.5092,10.4387,10.4387,10.4387,10.4318,10.3398,10.3096,10.2895,10.209,10.1819,10.1819,10.1819,10.1993,10.2282,10.2282,10.2282,10.2282,10.2282,10.2282,10.2088,10.12,10.1006,10.0707,9.9558,9.929,9.9196,9.8863,9.8788,9.875,9.875,9.875,9.875,9.875,9.7326,9.6249,9.6249,9.4749,9.3672,9.3672,9.3672,9.2979,9.1287,9.0355,8.9162,8.7478,8.7401,8.7017,8.6132,8.5316,8.4893,8.4893,8.4055,8.3601,8.3601,8.3563,8.3563,8.3563,8.3563,8.3101,9.3787,9.6749,9.9288,10.0096,9.8442,9.6259,9.4826,9.2595,9.0248,8.8286,8.7872,8.7671,8.7094,8.7709,8.8479,8.9017,8.9547,9.0701,9.2979,9.5518,9.8481,10.2212,10.7213,11.0899,11.232,11.3703,11.4484,11.4487,11.5321,11.5717,11.5411,11.5899,11.5694,11.4404,11.3694,11.2991,11.2411,11.2101,11.1994,11.1994,11.1413,11.0588,10.9514,10.8915,10.7995,10.6998,10.6998,10.7013,10.6887,10.7021,10.6812,10.6492,10.6492,10.6299,10.5981,10.5401,10.5208,10.5092,10.4318,10.4001,10.3885,10.3699,10.3196,10.2701,10.2701,10.2307,10.2,10.2,10.2,10.2,10.2,10.2,10.1884,10.1613,10.1497,10.14,10.0988,10.0899,10.0591,9.9846,9.9683,9.949,9.8904,9.8788,9.8788,9.8788,9.7827,9.7134,9.7134,9.6172,9.548,9.548,9.548,9.4326,9.1441,9.0941,9.0056,8.841,8.8295,8.7902,8.7017,8.6748,8.6324,8.5747,8.544,8.5324,8.5324,8.4747,8.417,8.3601,8.3601,8.3447,9.0556,9.3364,9.5672,9.7134,9.598,9.4373,9.3826,9.1902,8.9863,8.8479,8.8218,8.7948,8.7055,8.7902,8.8756,8.894,8.947,9.0509,9.2249,9.5403,9.8904,10.2597,10.8406,11.2214,11.2483,11.3714,11.4484,11.4484,11.4984,11.5187,11.4791,11.5291,11.5011,11.3685,11.3594,11.3121,11.231,11.2001,11.1808,11.1808,11.1306,11.061,10.99,10.921,10.8292,10.7281,10.7281,10.7083,0.0,10.6791,10.6812,10.6712,10.6712,10.6712,10.6596,10.6085,10.5892,10.5815,10.5004,10.4695,10.4609,10.4309,10.3808,10.3392,10.3392,10.2712,10.1889,10.2199,10.2082,10.1812,10.1812,10.1812,10.1812,10.1812,10.1812,10.1803,10.1581,10.1585,10.1416,10.0721,10.0606,10.0404,9.9827,9.975,9.975,9.975,9.9019,9.8481,9.8481,9.775,9.7134,9.6788,9.6749,9.5634,9.2864,9.2633,9.1902,9.0257,8.9825,8.9248,8.8363,8.7748,8.7132,8.6594,8.6286,8.6094,8.6094,8.5585,8.5055,8.4555,8.4555,8.4362,0.0,9.1171,9.3672,9.6095,9.4941,9.3249,9.3335,9.0949,0.0,8.7671,8.7478,8.7248,8.644,8.7594,8.8449,8.7709,8.894,9.0586,9.2326,9.5711,9.9635,10.3905,10.729,10.9483,11.0214,11.3291,11.5215,11.5099,11.5291,11.4984,11.4099,11.4099,11.3791,11.2791,11.3599,11.3599,11.2588,11.1895,11.1588,11.1511,11.1395,11.1088,11.0498,11.0192,10.9288,10.7894,10.7894,10.7316,10.6415,10.6613,10.6584,10.6395,10.6395,10.6395,10.6395,10.6395,10.6395,10.629,10.5482,10.5223,10.5107,10.4212,10.3982,10.3982,10.3982,10.3015,10.2082,10.2894,10.2507,10.1896,10.1896,10.1819,10.1819,10.1819,10.1819,10.1693,10.1718,10.1722,10.1591,10.1395,10.1394,10.1394,10.1279,10.1279,10.1279,10.1279,10.0596,10.0106,10.0106,9.9336,9.8519,9.775,9.7673,9.7057,9.5489,9.5143,9.4296,9.2672,9.1787,9.0902,9.0047,8.844,8.7555,8.7478,8.6632,8.617,8.6094,8.6094,8.6094,8.6094,8.6094,8.5709,8.3561,0.0,8.7248,8.8479,8.8825,8.9056,0.0,8.9257,8.8641,8.8449,8.841,8.8333,8.8141,8.841,8.8825,8.9248,9.021,9.1479,9.3172,9.9135,10.4905,10.9213,11.1522,11.2406,11.1291,11.3714,11.4714,11.3407,11.5099,11.5918,11.4984,11.561,11.5215,11.3714,11.3907,11.3291,11.178,11.2203,11.2088,11.1511,11.0791,11.0399,11.021,10.9504,10.8706,10.7708,10.7708,10.7216,10.6405,10.6494,10.6407,10.6395,10.6395,10.6395,10.6395,10.6395,10.6395,10.6405,10.6213,10.6097,10.602,10.5097,10.4789,10.4789,10.4789,10.4205,10.3396,10.3704,10.3088,10.2395,10.2395,10.1894,10.1393,10.1393,10.1393,10.1605,10.2213,10.2396,10.2386,10.2299,10.2289,10.2097,10.1394,10.1279,10.1279,10.1279,10.0596,10.0106,10.0106,9.9336,9.8981,9.9452,9.949,9.9336,9.8913,9.6489,9.4566,9.348,9.2633,9.1787,9.0932,8.9893,8.9017,8.841,8.7555,8.6786,8.6094,8.6094,8.6094,8.6094,8.6094,8.6017,8.1513,8.2921,8.4544,8.5769,8.6748,8.7632,8.8487,8.841,8.8094,8.8094,8.8094,8.8094,8.8094,8.8449,8.8825,8.9286,9.0748,9.321,9.7211,10.1981,10.6482,11.0406,11.2714,11.3599,11.2714,11.4599,11.5495,11.4484,11.5407,11.561,11.4714,11.5484,11.4984,11.2906,11.3984,11.3599,11.1511,11.1895,11.1895,11.1511,11.1021,11.0791,11.0791,11.0291,10.9598,10.879,10.879,10.8098,10.7021,10.7021,10.679,10.6395,10.6395,10.6395,10.6395,10.6395,10.6395,10.6395,10.6395,10.6395,10.628,10.579,10.5713,10.5713,10.5713,10.5405,10.4982,10.4597,10.3597,10.2712,10.3097,10.252,10.202,10.2404,10.252,10.2597,10.3097,10.3212,10.3097,10.2712,10.2597,10.2289,10.152,10.1279,10.1279,10.1279,10.0904,10.0712,10.0712,10.0212,9.9981,10.0106,10.0106,9.9952,9.9529,9.8182,9.6797,9.5518,9.4287,9.3441,9.2941,9.1364,8.994,8.8718,8.8256,8.7555,8.6709,8.6709,8.6478,8.6094,8.6094,8.6094,8.108,8.2471,8.4186,8.5423,8.6363,8.7209,8.7948,8.7555,8.7017,8.7017,8.7209,8.744,8.7555,8.8218,8.8795,8.9026,9.1556,9.5672,10.2097,10.4713,10.6982,10.9983,11.2599,11.4099,11.3791,11.5407,11.6418,11.6303,11.5803,11.5099,11.4214,11.4984,11.4407,11.2022,11.3984,11.3984,11.1703,11.1703,11.1588,11.1511,11.1511,11.1511,11.1511,11.1406,11.0791,10.9983,10.9906,10.8906,10.7521,10.7521,10.7098,10.6395,10.6395,10.6395,10.6395,10.6395,10.6395,10.6395,10.6395,10.6395,10.6395,10.6395,10.6395,10.6395,10.6395,10.6395,10.6203,10.5482,10.4212,10.3212,10.3905,10.3405,10.2981,10.3712,10.3905,10.3905,10.4097,10.4097,10.3789,10.2981,10.2789,10.252,10.151,10.1279,10.1279,10.1279,10.1279,10.1279,10.1279,10.1279,10.1096,10.0491,10.0491,10.0221,9.9442,9.9952,9.9596,9.8019,9.6288,9.522,9.4835,9.271,9.0787,8.9103,8.9103,8.8594,8.7594,8.744,8.7017,8.6286,8.617,8.6094,8.1793,8.3777,8.5339,8.4269,8.4632,8.5316,8.544,8.5393,8.5286,8.5286,8.6401,8.7632,8.8372,8.8603,8.918,9.0594,9.4749,9.9442,10.4107,10.7405,10.9906,11.1214,11.3483,11.4484,11.3022,11.5099,11.6187,11.5484,11.5995,11.5995,11.5099,11.5918,11.5484,11.3714,11.3984,11.3714,11.2511,11.2511,11.2214,11.1511,11.1511,11.1511,11.1522,11.0714,10.9906,10.9098,10.8406,10.7521,10.6587,10.6587,10.651,10.6395,10.6395,10.6395,10.6395,10.6395,10.6395,10.6395,10.6395,10.6395,10.6395,10.6395,10.6395,10.6395,10.6395,10.6395,10.6405,10.6203,10.5482,10.4713,10.4915,10.4289,10.3712,10.3905,10.3905,10.4097,10.48,10.4905,10.4723,10.3905,10.3712,10.3212,10.1597,10.1279,10.1279,10.1279,10.1279,10.1279,10.1279,10.1279,10.151,10.2212,10.2212,10.2212,10.202,10.152,10.0712,9.976,9.8057,9.6134,9.398,9.3518,9.2518,9.0864,9.0825,9.0056,8.8487,8.7748,8.7325,8.7171,8.644,8.6094,8.1362,8.2735,8.416,8.4777,8.6632,8.8286,8.8286,8.8286,8.8171,8.7701,8.8201,8.9017,8.9902,9.0787,9.271,9.6711,9.9327,10.202,10.529,10.7598,10.9213,11.0021,11.2291,11.3791,11.3407,11.4907,11.5918,11.5907,11.6303,11.6099,11.5291,11.611,11.5484,11.3407,11.3791,11.3407,11.2099,11.2099,11.1906,11.1511,11.1021,11.0791,11.0791,10.9906,10.929,10.8906,10.8482,10.7905,10.7098,10.7098,10.678,10.6395,10.6395,10.6395,10.6395,10.6395,10.6395,10.6395,10.6395,10.6395,10.6395,10.6395,10.6395,10.6395,10.6395,10.6395,10.6395,10.6395,10.579,10.5213,10.5713,10.5213,10.4713,10.5097,10.529,10.5405,10.5713,10.579,10.5405,10.4097,10.3905,10.3289,10.1587,10.1279,10.1279,10.1279,10.1279,10.1279,10.1279,10.1279,10.152,10.1904,10.1904,10.1904,10.1904,10.202,10.1096,9.8827,9.7942,9.6557,9.4489,9.4412,9.3826,9.2595,9.2133,9.1287,9.0056,8.9171,8.8517,8.8094,8.7671,8.7248,8.114,8.2029,8.3478,8.5824,8.794,8.9748,9.0941,9.1047,9.0816,9.0547,9.097,9.1432,9.1479,9.321,9.6211,10.1212,10.302,10.4713,10.7203,10.8521,10.9483,11.0291,11.2291,11.3907,11.4484,11.5215,11.5792,11.6495,11.6495,11.6099,11.5291,11.611,11.5407,11.3099,11.3714,11.3291,11.178,11.1588,11.1395,11.1214,11.0714,11.0406,11.0224,10.9483,10.9098,10.8906,10.8713,10.8213,10.7405,10.7405,10.7021,10.6395,10.6395,10.6395,10.6395,10.6395,10.6395,10.6395,10.6395,10.6395,10.6395,10.6395,10.6395,10.6395,10.6395,10.6395,10.6395,10.6395,10.5905,10.5597,10.6203,10.5905,10.5597,10.6203,10.6395,10.6395,10.6395,10.6395,10.602,10.4482,10.3982,10.3482,10.2097,10.1597,10.1394,10.1779,10.1702,10.1712,10.1904,10.1702,10.1587,10.1587,10.1394,10.1279,10.1279,10.1904,10.1096,9.8288,9.7711,9.6903,9.5643,9.5412,9.4912,9.4027,9.3403,9.2556,9.1518,9.0624,8.9787,8.8979,8.8795,8.8333,8.1887,8.3374,8.5132,8.6863,8.5709,8.5409,9.0133,9.0547,9.0432,9.1979,9.421,9.5134,9.2826,9.5057,9.7904,9.9952,10.4212,10.8213,11.078,11.2522,11.3907,11.4714,11.5687,11.6303,11.6303,11.6418,11.6418,11.6495,11.6495,11.6099,11.5291,11.611,11.5676,11.3984,11.3984,11.3599,11.2588,11.1906,11.1098,11.0291,11.1021,11.0983,11.0224,11.0098,10.9713,10.8906,10.8098,10.729,10.651,10.651,10.651,10.6395,10.6395,10.6395,10.6395,10.6395,10.6395,10.6395,10.6395,10.6395,10.6395,10.6395,10.6395,10.6395,10.6395,10.6395,10.6395,10.6395,10.6405,10.628,10.6395,10.6405,10.628,10.6395,10.6395,10.6395,10.6395,10.6395,10.6087,10.5213,10.4405,10.3915,10.3712,10.2404,10.1779,10.3482,10.302,10.2789,10.3597,10.2981,10.252,10.252,10.1789,10.1279,10.1279,10.1394,10.1019,9.999,9.8404,9.7442,9.7326,9.6596,9.5788,9.4912,9.4835,9.4027,9.2402,9.1518,9.0671,8.9816,8.9056,8.8679,8.1398,8.3184,8.5286,8.6978,8.7102,8.8102,9.321,9.4518,9.4826,9.548,9.7634,9.8981,9.749,9.9558,10.1904,10.2991,10.6597,10.979,11.128,11.2522,11.3291,11.3599,11.4407,11.5187,11.5676,11.5803,11.5995,11.6495,11.6495,11.6418,11.611,11.6303,11.5715,11.4099,11.3984,11.3291,11.2022,11.1703,11.1098,11.0224,11.0483,11.0483,11.0186,10.9098,10.8482,10.8098,10.729,10.6703,10.6395,10.6395,10.6395,10.6395,10.6395,10.6395,10.6395,10.6395,10.6395,10.6395,10.6395,10.6395,10.6395,10.6395,10.6395,10.6395,10.6395,10.6395,10.6395,10.6395,10.6395,10.6395,10.6395,10.6395,10.6395,10.6395,10.6395,10.6395,10.6395,10.6395,10.6087,10.529,10.4915,10.4482,10.3982,10.3405,10.3097,10.3789,10.3597,10.3482,10.3915,10.3597,10.3212,10.2712,10.1779,10.151,10.2097,10.1587,10.1212,10.0904,9.975,9.8634,9.7557,9.7211,9.6673,9.5826,9.5297,9.4681,9.4066,9.3172,9.2595,9.2249,9.1441,9.0748,8.1061,8.2362,8.4247,8.644,8.7632,8.9825,9.5749,9.7288,9.7865,9.925,10.0289,10.0904,10.0914,10.2289,10.3789,10.4905,10.8213,11.0906,11.1791,11.2406,11.2906,11.3483,11.3984,11.4599,11.5215,11.5484,11.5803,11.611,11.6418,11.6495,11.6495,11.6495,11.5715,11.4099,11.3984,11.3214,11.1511,11.1511,11.1214,11.0598,11.0598,11.0483,11.0224,10.929,10.8713,10.8482,10.7905,10.729,10.679,10.679,10.6587,10.6395,10.6395,10.6395,10.6395,10.6395,10.6395,10.6395,10.6395,10.6395,10.6395,10.6395,10.6395,10.6395,10.6395,10.6395,10.6395,10.6395,10.6395,10.6395,10.6395,10.6395,10.6395,10.6395,10.6395,10.6395,10.6395,10.6395,10.6203,10.5597,10.529,10.4982,10.4713,10.4289,10.4097,10.4597,10.4482,10.4405,10.4713,10.4405,10.3982,10.3097,10.2212,10.202,10.252,10.1779,10.1279,10.1279,10.0789,9.9827,9.8365,9.8057,9.7519,9.6711,9.6095,9.5528,9.4989,9.4412,9.3989,9.3672,9.3133,9.2402,8.1093,8.1131,8.1939,8.5286,8.6786,8.944,9.7057,9.8134,9.8711,10.2981,10.1914,10.0683,10.2289,10.2597,10.3212,10.4789,10.8713,11.1791,11.2599,11.2714,11.3291,11.511,11.5291,11.5291,11.5291,11.5995,11.6099,11.5291,11.5995,11.6495,11.6495,11.6495,11.5715,11.3984,11.3984,11.3214,11.1511,11.1511,11.1511,11.1511,11.1511,11.1021,11.0214,11.1098,11.1021,11.0224,11.0224,10.9213,10.7713,10.7713,10.7213,10.6395,10.6395,10.6395,10.6395,10.6395,10.6395,10.6395,10.6395,10.6395,10.6395,10.6395,10.6395,10.6395,10.6395,10.6395,10.6395,10.6395,10.6395,10.6395,10.6395,10.6395,10.6395,10.6395,10.6395,10.6395,10.6395,10.6395,10.6395,10.6395,10.5713,10.5405,10.629,10.4982,10.4482,10.6213,10.5713,10.5405,10.629,10.5597,10.4789,10.3982,10.3097,10.2597,10.2597,10.1779,10.1279,10.1279,10.1279,10.0904,10.0106,9.9259,9.8404,9.7519,9.7519,9.6711,9.5027,9.5027,9.4566,9.3749,9.371,9.3287,8.1061,8.2824,8.5016,8.6594,8.944,9.3056,9.7711,9.8596,9.9981,10.5405,10.4982,10.3799,10.4299,10.5405,10.5905,10.5213,10.8213,11.0906,11.1703,11.1906,11.2291,11.3291,11.3483,11.3714,11.4291,11.4599,11.4599,11.4407,11.5187,11.5407,11.4791,11.5291,11.4907,11.3099,11.3099,11.2599,11.1511,11.1511,11.1511,11.1511,11.1511,11.1406,11.1098,11.0714,11.0406,11.0098,10.8983,10.8213,10.7713,10.701,10.6587,10.6395,10.6395,10.6395,10.6395,10.6395,10.6395,10.6395,10.6395,10.6395,10.6395,10.6395,10.6395,10.6395,10.6395,10.6395,10.6395,10.6395,10.6395,10.6395,10.6395,10.6395,10.6395,10.6395,10.6395,10.6395,10.6395,10.6395,10.6395,10.6395,10.6213,10.6097,10.6405,10.602,10.5779,10.628,10.6213,10.6097,10.6405,10.5597,10.5213,10.5597,10.4405,10.3482,10.3482,10.2712,10.202,10.1279,10.1279,10.0904,10.0106,9.9837,9.9298,9.8442,9.8404,9.8173,9.7682,9.7057,9.6634,9.6326,9.5181,9.4489,8.1946,8.4055,8.6632,8.8863,9.1825,9.5374,9.9827,10.1597,10.3482,10.779,10.729,10.629,10.6982,10.7405,10.7598,10.7223,10.9098,11.0906,11.1395,11.1511,11.178,11.2599,11.2714,11.2906,11.3407,11.3791,11.3907,11.3483,11.4291,11.4599,11.3984,11.4484,11.4099,11.2703,11.2714,11.228,11.1511,11.1511,11.1511,11.1511,11.1511,11.1511,11.1511,11.0983,11.0483,11.0098,10.8406,10.7713,10.7598,10.679,10.6395,10.6395,10.6395,10.6395,10.6395,10.6395,10.6395,10.6395,10.6395,10.6395,10.6395,10.6395,10.6395,10.6395,10.6395,10.6395,10.6395,10.6395,10.6395,10.6395,10.6395,10.6395,10.6395,10.6395,10.6395,10.6395,10.6395,10.6395,10.6395,10.6395,10.6395,10.6395,10.6395,10.6395,10.6395,10.6395,10.6395,10.6395,10.6395,10.5905,10.579,10.628,10.4905,10.3905,10.3905,10.2789,10.1904,10.1279,10.1279,10.1096,10.0596,10.0596,10.0212,9.9336,9.9336,9.9144,9.8788,9.7942,9.7519,9.748,9.6134,9.5335,8.3423,8.5016,8.7363,9.1556,9.422,9.7297,10.2991,10.6213,10.829,10.979,10.8983,10.8482,10.9906,10.8983,10.8482,10.9993,11.0906,11.1511,11.1511,11.1511,11.178,11.2511,11.2599,11.2599,11.2599,11.3291,11.3407,11.2714,11.3407,11.3791,11.3791,11.3791,11.3407,11.2522,11.2511,11.2214,11.1406,11.1522,11.1511,11.1511,11.1395,11.1406,11.1406,11.1522,11.0983,10.9983,10.8406,10.7713,10.7521,10.6703,10.6395,10.6395,10.6395,10.6395,10.6395,10.6395,10.6395,10.6395,10.6395,10.6395,10.6395,10.6395,10.6395,10.6395,10.6395,10.6395,10.6395,10.6395,10.6395,10.6395,10.6395,10.6395,10.6395,10.6395,10.6395,10.6395,10.6395,10.6395,10.6395,10.6395,10.6395,10.6395,10.6395,10.6395,10.6395,10.6395,10.6395,10.6395,10.6395,10.6395,10.6395,10.6395,10.502,10.4097,10.3982,10.2597,10.1587,10.151,10.152,10.1394,10.1394,10.1279,10.0981,10.0221,10.0221,9.9837,9.9019,9.8173,9.775,9.7711,9.6903,9.6095,8.4184,8.6324,8.8979,9.2556,9.775,10.2789,10.6097,10.829,10.9598,10.9213,11.0021,11.0598,11.0291,11.0483,11.0598,11.0291,11.0906,11.1511,11.1511,11.1511,11.1588,11.1703,11.1791,11.1791,11.1791,11.1895,11.2022,11.178,11.2511,11.2714,11.2099,11.2588,11.2291,11.0791,11.1406,11.1291,11.0483,11.1214,11.1511,11.1511,11.0791,11.0483,11.0483,11.1214,11.0714,10.9098,10.8098,10.729,10.6713,10.651,10.6395,10.6395,10.6395,10.6395,10.6395,10.6395,10.6395,10.6395,10.6395,10.6395,10.6395,10.6395,10.6395,10.6395,10.6395,10.6395,10.6395,10.6395,10.6395,10.6395,10.6395,10.6395,10.6395,10.6395,10.6395,10.6395,10.6395,10.6395,10.6395,10.6395,10.6395,10.6395,10.6395,10.6395,10.6395,10.6395,10.6395,10.6395,10.6395,10.6395,10.6395,10.6395,10.6087,10.5597,10.4905,10.4482,10.3982,10.3405,10.2712,10.2289,10.2289,10.1712,10.1202,10.101,10.101,10.0894,10.0789,9.9942,9.9529,9.9529,9.8673,9.8173,8.5368,8.7979,9.1171,9.6596,10.1212,10.4982,10.7213,10.8983,11.0109,10.9598,11.0598,11.1203,11.0406,11.0906,11.1214,11.0291,11.0906,11.1511,11.1511,11.1511,11.1511,11.1511,11.1511,11.1511,11.1511,11.1511,11.1511,11.1511,11.1906,11.1895,11.1511,11.1483,11.1098,11.0214,11.0214,11.0021,10.9598,11.0021,11.0483,11.0906,11.0406,11.0406,11.0791,11.0021,10.9213,10.829,10.7405,10.679,10.6395,10.6395,10.6395,10.6395,10.6395,10.6395,10.6395,10.6395,10.6395,10.6395,10.6395,10.6395,10.6395,10.6395,10.6395,10.6395,10.6395,10.6395,10.6395,10.6395,10.6395,10.6395,10.6395,10.6395,10.6395,10.6395,10.6395,10.6395,10.6395,10.6395,10.6395,10.6395,10.6395,10.6395,10.6395,10.6395,10.651,10.7021,10.701,10.701,10.701,10.701,10.6905,10.6395,10.602,10.5597,10.5097,10.4713,10.4289,10.3905,10.3097,10.2597,10.2597,10.1789,10.1279,10.1279,10.1279,10.1279,10.1279,10.0481,10.0106,10.0106,9.9221,9.8788,8.6252,8.9594,9.3787,10.0789,10.3905,10.5607,10.729,10.8906,10.9983,10.9983,11.0714,11.1098,11.0483,11.0791,11.0906,11.0483,11.0906,11.1291,11.1291,11.1395,11.1395,11.1291,11.1395,11.1511,11.1511,11.1511,11.1511,11.1511,11.1511,11.1511,11.1511,11.0714,11.0098,10.9983,10.929,10.879,10.8713,10.879,10.929,11.0224,11.0224,11.0291,11.0598,10.8598,10.779,10.7905,10.678,10.6395,10.6395,10.6395,10.6395,10.6395,10.6395,10.6395,10.6395,10.6395,10.6395,10.6395,10.6395,10.6395,10.6395,10.6395,10.6395,10.6395,10.6395,10.6395,10.6395,10.6587,10.651,10.6395,10.6587,10.651,10.6395,10.6395,10.6395,10.6395,10.6395,10.6395,10.6395,10.6395,10.651,10.6587,10.6587,10.6703,10.7098,10.779,10.779,10.7713,10.7713,10.7598,10.7213,10.651,10.579,10.529,10.529,10.4713,10.4289,10.4289,10.3482,10.302,10.302,10.2097,10.151,10.151,10.1394,10.1279,10.1279,10.0596,10.0298,10.0298,9.9558,9.9211,8.5547,9.0864,9.6749,10.1404,10.3905,10.5607,10.729,10.8406,10.9098,10.9098,10.979,11.0598,11.1214,11.0214,10.9713,11.1098,11.0791,11.0406,11.0406,11.1021,11.1203,11.0483,11.1021,11.1511,11.1511,11.1511,11.1511,11.1511,11.1511,11.1511,11.1511,11.0714,10.9906,10.9098,10.8983,10.8598,10.7905,10.8598,10.929,11.0224,11.0224,10.9098,10.7087,10.7521,10.8098,10.8713,10.7098,10.6395,10.6395,10.6395,10.6395,10.6395,10.6395,10.6395,10.6395,10.6395,10.6395,10.6395,10.6395,10.6395,10.6395,10.6395,10.6395,10.6395,10.6395,10.6395,10.6597,10.729,10.7021,10.6587,10.729,10.7021,10.6395,10.6395,10.6395,10.6395,10.6395,10.6395,10.6395,10.6395,10.7021,10.7521,10.7521,10.8098,10.8598,10.8713,10.8098,10.7713,10.7713,10.701,10.651,10.6395,10.628,10.6203,10.6203,10.6087,10.6097,10.6097,10.5213,10.4789,10.4789,10.3289,10.2404,10.2404,10.1712,10.1279,10.1279,10.1212,10.1087,10.1087,10.101,10.1019,8.7,9.1825,9.6596,10.0789,10.2404,10.352,10.5713,10.6905,10.7598,10.8098,10.8906,10.9483,10.9406,10.9483,10.9713,11.0021,11.0521,11.0791,11.0291,11.0483,11.0598,11.0214,11.0098,11.0406,11.1395,11.1098,11.0791,11.0791,11.0791,11.0598,11.0098,10.929,10.8598,10.8213,10.779,10.729,10.7021,10.729,10.7905,10.879,10.929,10.8906,10.779,10.7713,10.7598,10.7521,10.6703,10.6395,10.6395,10.6395,10.6395,10.6395,10.6395,10.6703,10.7098,10.7098,10.7405,10.779,10.779,10.779,10.779,10.779,10.7521,10.7098,10.7098,10.7098,10.7213,10.7598,10.7405,10.7213,10.7598,10.7098,10.6395,10.6395,10.679,10.7098,10.7098,10.7098,10.729,10.7713,10.7713,10.779,10.829,10.8713,10.9098,10.9598,10.929,10.9098,10.9098,10.879,10.8213,10.7213,10.7098,10.6895,10.6395,10.6395,10.6395,10.6395,10.5597,10.5107,10.5107,10.3982,10.3097,10.2597,10.1702,10.1279,10.1279,10.1279,10.1279,10.1279,10.1279,10.1279,8.7299,9.1095,9.4672,9.8673,10.0404,10.1712,10.4212,10.5482,10.629,10.7213,10.8021,10.8406,10.779,10.8906,10.979,10.9598,11.0483,11.0906,10.9983,11.0109,11.0098,10.9906,10.929,10.9483,11.1021,11.0406,10.9906,10.9906,10.9906,10.9598,10.8906,10.8098,10.7713,10.7713,10.6905,10.6395,10.6395,10.6587,10.6895,10.7405,10.8406,10.8713,10.829,10.7905,10.7213,10.6395,10.6395,10.6395,10.6395,10.6395,10.6395,10.6395,10.6395,10.6895,10.7713,10.7713,10.8213,10.8906,10.8906,10.8906,10.8906,10.8906,10.8406,10.7713,10.7713,10.7713,10.7713,10.7905,10.7905,10.7713,10.7982,10.7405,10.6703,10.6703,10.7405,10.7982,10.7982,10.7982,10.8213,10.879,10.8598,10.8482,10.9098,10.9406,10.979,11.0406,11.0291,11.0224,11.0224,10.9983,10.9406,10.8098,10.7982,10.7713,10.679,10.6703,10.6587,10.6395,10.579,10.5405,10.5405,10.4597,10.3789,10.2904,10.2289,10.1702,10.1279,10.1279,10.1279,10.1279,10.1279,10.1279,8.4624,8.7624,9.1018,9.445,9.7759,10.0798,10.3415,10.4597,10.5405,10.629,10.7213,10.7713,10.7713,10.8406,10.9483,11.1098,11.0714,10.9983,10.9098,10.9713,10.9906,10.9098,10.8906,10.929,11.0224,10.9483,10.8983,10.8983,10.8983,10.8906,10.8906,10.8098,10.7713,10.7713,10.6905,10.6395,10.6395,10.7213,10.7213,10.651,10.8098,10.8098,10.6597,10.729,10.7213,10.6395,10.6395,10.6395,10.6395,10.6395,10.6395,10.6395,10.6395,10.6895,10.7713,10.7713,10.8213,10.8906,10.8906,10.8906,10.8906,10.8906,10.8406,10.7713,10.7713,10.7713,10.7905,10.8598,10.829,10.7905,10.8598,10.8213,10.7598,10.7598,10.8213,10.879,10.879,10.879,10.879,10.8906,10.9483,11.0109,11.0098,11.0791,11.1395,11.1395,11.0714,11.0224,11.0224,10.9483,10.8906,10.879,10.879,10.8482,10.7713,10.7598,10.729,10.651,10.6405,10.628,10.628,10.5482,10.4723,10.3789,10.3789,10.2981,10.1279,10.1279,10.1279,10.1279,10.1279,10.1279,8.4439,8.6162,8.8286,9.171,9.472,9.749,9.9981,10.2481,10.4597,10.5405,10.7098,10.8482,10.8482,10.9213,10.9906,11.0598,11.0906,11.0521,10.9098,10.9713,10.9713,10.829,10.8098,10.8482,10.929,10.8598,10.8098,10.8098,10.8098,10.7905,10.729,10.701,10.6905,10.6905,10.6587,10.6395,10.6395,10.6703,10.6703,10.6395,10.701,10.7021,10.6395,10.6703,10.6703,10.6395,10.6395,10.6395,10.6395,10.6395,10.6395,10.6395,10.6395,10.7213,10.8482,10.8482,10.8983,10.979,11.0406,11.0214,10.979,11.0406,10.9983,10.929,10.929,10.929,10.9406,10.9686,10.9483,10.9406,10.9713,10.9098,10.8598,10.9213,10.9483,10.9906,11.0406,10.9713,10.9213,11.0406,11.0406,11.0406,11.0906,11.1291,11.1511,11.1511,11.1203,11.1021,11.1021,11.0791,11.0406,10.979,10.9713,10.9213,10.779,10.7713,10.729,10.651,10.6395,10.6395,10.6395,10.6097,10.5482,10.4723,10.4723,10.3597,10.1279,10.1904,10.1779,10.1279,10.1279,10.1279,8.3247,8.4439,8.6094,8.9517,9.1642,9.3912,9.7904,10.0289,10.2289,10.4299,10.6482,10.8213,10.8406,10.9406,11.0291,11.0598,11.0906,11.0598,10.9098,10.9213,10.8906,10.779,10.7405,10.7598,10.8406,10.7713,10.729,10.729,10.729,10.7021,10.6395,10.6395,10.6395,10.6395,10.6097,10.6097,10.6395,10.5779,10.5779,10.6395,10.6097,10.6097,10.6395,10.6395,10.6395,10.6395,10.6395,10.6395,10.6395,10.6395,10.6395,10.6395,10.6395,10.729,10.8482,10.8482,10.9213,11.0291,11.0906,11.0906,11.0714,11.128,11.0906,11.0224,11.0224,11.0224,11.0224,11.0224,11.0224,11.0224,11.0224,10.979,10.9598,11.0406,11.0598,11.0791,11.1406,11.0598,11.0098,11.128,11.1021,11.0791,11.1395,11.1511,11.1511,11.1511,11.1511,11.1511,11.1511,11.1511,11.1291,11.0714,11.0598,10.9906,10.8213,10.8098,10.7598,10.651,10.6395,10.6395,10.6395,10.6395,10.602,10.5107,10.5405,10.4405,10.2212,10.2789,10.2597,10.1702,10.1702,10.1597,0.0,0.0,0.0,8.7679,8.8564,9.0372,9.698,9.7904,9.8596,10.2904,10.5097,10.6597,10.7521,10.8983,11.0406,11.1291,11.0714,10.9906,10.9098,10.8213,10.7713,10.7713,10.7021,10.679,10.7521,10.6905,10.6405,10.6405,10.6405,10.6405,10.6395,10.6395,10.6395,10.628,10.5482,10.5482,10.628,10.4713,10.4713,10.628,10.5482,10.5482,10.628,10.6405,10.6405,10.6405,10.6395,10.6395,10.6395,10.6395,10.6395,10.6395,10.6395,10.6895,10.7713,10.7713,10.8713,11.0186,11.0224,11.0791,11.1522,11.1511,11.0906,11.0214,11.0214,11.0214,11.0214,11.0214,11.0214,11.0214,11.0214,11.0214,11.0483,11.1291,11.1511,11.1511,11.1511,11.1511,11.1511,11.1511,11.1511,11.1511,11.1511,11.1511,11.1511,11.1511,11.1511,11.1511,11.1511,11.1511,11.1511,11.1511,11.1522,11.0791,10.8983,10.8906,10.8213,10.651,10.6395,10.6395,10.6395,10.6395,10.602,10.5184,10.602,10.5597,10.3982,10.3905,10.3482,10.2597,10.2597,10.2097,8.1016,0.0,0.0,0.0,0.0,0.0,9.0795,9.3172,9.5788,9.9442,10.202,10.4289,10.6405,10.8098,10.929,10.9598,10.9906,11.0098,10.9906,10.9098,10.8406,10.779,10.7521,10.6905,10.5905,10.5597,10.5482,10.5482,10.5482,10.5713,10.6405,10.6395,10.5779,10.4597,10.4905,10.4905,10.4597,10.4097,10.4097,10.4597,10.4289,10.4405,10.4597,10.5213,10.5482,10.5482,10.6087,10.6395,10.6395,10.6395,10.6395,10.6395,10.6395,10.6895,10.7713,10.7713,10.8406,10.929,10.9983,11.0406,11.0714,11.1291,11.128,11.1098,11.1098,11.1098,11.1098,11.1098,11.1098,11.1098,11.1098,11.1098,11.1214,11.1395,11.1511,11.1511,11.1511,11.1511,11.1511,11.1511,11.1511,11.1511,11.1511,11.1511,11.1511,11.1511,11.1511,11.1511,11.1511,11.1511,11.1511,11.1511,11.0906,11.0098,10.8983,10.8406,10.7598,10.651,10.6395,10.6395,10.6395,10.6395,10.629,10.602,10.629,10.6213,10.5713,10.5097,10.4289,10.3482,10.2904,10.252,0.0,0.0,8.1477,8.3016,0.0,0.0,8.8863,9.071,9.2873,9.7326,9.9712,10.1712,10.3895,10.5713,10.6905,10.729,10.7982,10.8713,10.9098,10.8713,10.8098,10.729,10.7521,10.6982,10.53,10.5405,10.5405,10.4723,10.4905,10.5213,10.529,10.5405,10.4905,10.3905,10.3982,10.3982,10.3905,10.3212,10.3212,10.3905,10.3482,10.3482,10.3905,10.4405,10.4789,10.5097,10.5597,10.6097,10.6395,10.6395,10.6395,10.6395,10.6395,10.6703,10.7213,10.7213,10.7713,10.8482,10.9406,10.9713,10.9906,11.1098,11.1291,11.1021,11.1406,11.1511,11.1511,11.1511,11.1511,11.1511,11.1511,11.1511,11.1511,11.1511,11.1511,11.1511,11.1511,11.1511,11.1511,11.1511,11.1511,11.1511,11.1511,11.1511,11.1511,11.1511,11.1511,11.1511,11.1511,11.1511,11.1511,11.1511,11.0714,10.979,10.8983,10.8213,10.729,10.651,10.6395,10.6395,10.6395,10.6395,10.6395,10.6395,10.6395,10.6395,10.6395,10.5905,10.5213,10.4405,10.3212,10.2597,0.0,0.0,0.0,8.3939,8.2978,0.0,8.8902,8.921,8.9834,9.5249,9.7057,9.825,10.0087,10.1904,10.3289,10.3915,10.502,10.628,10.7598,10.7713,10.729,10.6587,10.7098,10.6905,10.5097,10.5713,10.5482,10.3905,10.4482,10.4597,10.3789,10.3789,10.3789,10.3597,10.2981,10.2904,10.3597,10.2097,10.2097,10.3597,10.2789,10.2904,10.3597,10.3712,10.4212,10.4992,10.5107,10.5597,10.6395,10.6395,10.6395,10.6395,10.6395,10.6395,10.6395,10.6395,10.7021,10.779,10.8482,10.879,10.9213,11.0791,11.0791,11.0406,11.1203,11.1395,11.1406,11.1406,11.1406,11.1406,11.1522,11.1511,11.1511,11.1511,11.1511,11.1511,11.1511,11.1511,11.1511,11.1511,11.1511,11.1511,11.1511,11.1511,11.1511,11.1511,11.1395,11.1406,11.1511,11.128,11.128,11.1511,11.0598,10.9598,10.8983,10.8098,10.7213,10.6395,10.6395,10.6395,10.6395,10.6395,10.6395,10.6395,10.6395,10.6395,10.6395,10.6395,10.602,10.5213,10.3597,10.2789,8.1054,8.1554,8.2016,8.1862,8.3016,0.0,8.4055,8.4863,8.6363,8.8863,9.0056,9.1603,9.4634,9.6596,9.7596,9.7067,9.9981,10.3789,10.8098,10.7521,10.6905,10.7405,10.7021,10.602,10.4289,10.4289,10.3982,10.2904,10.3597,10.3789,10.2904,10.3482,10.3289,10.1904,10.2289,10.2289,10.1779,10.151,10.151,10.1779,10.1587,10.1587,10.1779,10.252,10.3289,10.4212,10.4789,10.5597,10.6395,10.6395,10.6395,10.6395,10.6395,10.6395,10.6395,10.6395,10.7021,10.7713,10.7905,10.8406,10.9098,11.0098,11.0291,11.0406,11.1203,11.1021,11.0483,11.0483,11.0483,11.0598,11.128,11.1511,11.1511,11.1511,11.1511,11.1511,11.1511,11.1511,11.1511,11.1511,11.1511,11.1511,11.1511,11.1511,11.1511,11.1511,11.0906,11.0714,11.1395,11.0291,10.9906,11.1406,10.9521,10.8406,10.8906,10.7521,10.6587,10.6395,10.6395,10.6395,10.6395,10.6395,10.6395,10.6395,10.6395,10.6395,10.6395,10.6395,10.628,10.6087,10.5097,10.4299,8.1323,8.14,8.1823,8.2247,8.267,0.0,0.0,8.4209,8.4978,8.7517,8.8064,8.8825,9.1325,9.2509,9.3364,9.422,9.6865,9.9981,10.3405,10.4982,10.579,10.579,10.579,10.5097,10.3405,10.3597,10.3482,10.2712,10.2597,10.2404,10.202,10.2404,10.2212,10.1279,10.1702,10.1702,10.1279,10.1279,10.1279,10.1279,10.1279,10.1279,10.1279,10.2212,10.3097,10.3905,10.4289,10.5213,10.6405,10.5905,10.602,10.6395,10.6395,10.6395,10.6395,10.6395,10.6713,10.7098,10.7521,10.7713,10.7905,10.9598,10.9906,10.979,11.1098,11.1214,11.0791,11.0791,11.0791,11.0906,11.1406,11.1511,11.1511,11.1511,11.1511,11.1511,11.1511,11.1511,11.1511,11.1511,11.1511,11.1511,11.1511,11.1511,11.1511,11.1511,11.1098,11.1021,11.1395,11.0714,11.0406,11.0791,10.9713,10.879,10.829,10.7521,10.6905,10.6395,10.6395,10.6395,10.6395,10.6395,10.6395,10.6395,10.6395,10.6395,10.6395,10.6395,10.6395,10.6395,10.5482,10.4915,8.2247,8.1939,8.2324,8.3332,8.2939,8.2824,0.0,0.0,0.0,8.6717,8.6671,8.6632,8.8162,8.8585,8.9325,9.121,9.3518,9.548,9.6673,10.0289,10.2991,10.3097,10.3915,10.3789,10.2289,10.2597,10.2712,10.2212,10.1481,10.1096,10.1096,10.1202,10.1279,10.1279,10.1279,10.1202,10.1096,10.1202,10.1202,10.1096,10.1202,10.1279,10.1279,10.202,10.2904,10.3905,10.3905,10.4905,10.628,10.5597,10.579,10.6395,10.6395,10.6395,10.6395,10.6395,10.6395,10.651,10.7213,10.7021,10.679,10.8983,10.9483,10.9406,11.0395,11.1021,11.1203,11.1011,11.1098,11.1291,11.1522,11.1511,11.1511,11.1511,11.1511,11.1511,11.1511,11.1511,11.1511,11.1511,11.1406,11.1291,11.1522,11.1406,11.1203,11.1203,11.1021,11.0906,11.1203,11.1021,11.0598,11.0214,10.9983,10.9406,10.8021,10.7905,10.7598,10.6895,10.6895,10.6895,10.6895,10.6895,10.6895,10.6895,10.6895,10.679,10.6713,10.6713,10.6587,10.6395,10.5482,10.5107,8.4709,8.497,8.5209,8.3909,8.514,8.5786,8.2439,0.0,8.3293,8.217,0.0,8.2093,8.3016,0.0,0.0,8.367,8.7555,9.0441,8.9911,9.2835,9.6374,10.0106,10.1212,10.1404,10.0491,9.976,9.9673,10.0298,10.0298,10.0221,10.0221,10.0904,10.1279,10.1279,10.1279,10.0981,10.0212,10.0904,10.0904,10.0212,10.0981,10.1279,10.1279,10.1394,10.2289,10.3905,10.3905,10.4905,10.6395,10.628,10.628,10.6395,10.6395,10.6395,10.6395,10.6395,10.6395,10.6395,10.651,10.651,10.6587,10.7598,10.8906,10.979,10.8482,10.9213,11.0214,10.9406,10.979,11.0483,11.1291,11.1511,11.1511,11.1511,11.1511,11.1511,11.1511,11.1511,11.1511,11.1511,11.0906,11.0598,11.1406,11.0906,11.0291,11.0291,10.9098,10.8713,11.0224,10.9098,10.8713,11.0109,10.9483,10.8983,10.879,10.879,10.8713,10.8598,10.8598,10.8598,10.8598,10.8598,10.8598,10.8598,10.8598,10.829,10.7598,10.7598,10.7213,10.6395,10.5482,10.5107,8.4516,8.5093,8.5824,8.4632,8.517,8.5363,8.3054,8.2324,8.2093,8.1862,0.0,0.0,0.0,0.0,0.0,0.0,8.5286,8.7047,8.7171,8.9248,9.2373,9.6643,9.6596,9.6442,9.7067,9.7673,9.8211,9.8557,9.8596,9.8596,9.8596,9.9404,9.9865,9.9865,9.9865,9.9673,9.9336,10.0212,10.0404,10.0106,10.0904,10.1279,10.1279,10.1779,10.252,10.3097,10.3097,10.3789,10.4905,10.4905,10.4905,10.502,10.602,10.6395,10.6395,10.6395,10.6395,10.6395,10.6395,10.6395,10.651,10.7405,10.8482,10.929,10.8598,10.9213,11.0098,10.979,11.0291,11.0906,11.0791,11.1098,11.1406,11.0906,11.1098,11.1511,11.1511,11.1511,11.1511,11.1511,11.1214,11.1098,11.1395,11.0791,11.0224,11.0224,10.9983,10.979,10.9483,10.929,10.8983,10.879,10.929,10.929,10.829,10.9098,10.9406,10.8906,10.8906,10.8906,10.8906,10.8906,10.8906,10.8906,10.8906,10.8713,10.8406,10.7905,10.7521,10.7098,10.629,10.5905,8.5525,8.6209,8.7132,8.5624,8.5247,8.4824,8.3247,8.2324,8.1939,8.2562,8.2554,0.0,0.0,0.0,8.2708,8.3486,0.0,8.5016,8.5363,8.6478,8.8718,9.2488,9.2441,9.2903,9.4797,9.5865,9.6557,9.6788,9.6596,9.6673,9.7134,9.7788,9.8327,9.8788,9.8788,9.8673,9.8442,9.9298,9.976,9.976,10.0596,10.1096,10.1279,10.202,10.2404,10.2597,10.2597,10.3097,10.3905,10.3905,10.3905,10.3982,10.5213,10.5779,10.6097,10.628,10.6395,10.6395,10.6395,10.6395,10.651,10.7098,10.7905,10.8482,10.829,10.8983,10.979,10.9598,11.0291,11.0906,11.0098,11.0483,11.0983,11.0417,11.0714,11.1214,11.1395,11.1511,11.1511,11.1511,11.128,11.1203,11.1522,11.0598,10.979,10.979,11.0021,10.9703,10.8713,10.9098,10.9098,10.8098,10.9098,10.9406,10.8482,10.9483,10.9983,10.9598,10.9598,10.9598,10.9598,10.9598,10.9598,10.9598,10.9598,10.9483,10.929,10.8406,10.7905,10.7713,10.6597,10.6213,8.9218,8.9748,9.0248,8.6901,8.6055,8.5209,8.1939,8.2401,8.3524,8.3563,8.4824,8.594,8.5978,8.5978,8.544,0.0,8.4324,0.0,0.0,8.3717,8.4717,8.7325,8.9787,9.221,9.4758,9.4296,9.4172,9.5027,9.4296,9.4557,9.6249,9.6365,9.7134,9.875,9.8788,9.8404,9.7557,9.8404,9.8827,9.8865,9.9721,10.0481,10.1279,10.1279,10.1779,10.2597,10.2597,10.3097,10.3905,10.3905,10.3905,10.3905,10.3982,10.4482,10.5213,10.6097,10.6395,10.6395,10.6395,10.6395,10.6395,10.6395,10.701,10.7598,10.6703,10.7598,10.879,10.7982,10.8983,10.9983,10.9213,10.9598,11.0214,11.0224,11.0224,11.0483,11.128,11.1511,11.1511,11.1511,11.0791,11.0483,11.1406,11.0098,10.8906,10.8906,10.7598,10.678,10.7598,10.779,10.8098,10.879,10.8906,10.929,11.0109,11.0224,11.0483,11.1406,11.1395,11.1395,11.1395,11.1395,11.1395,11.1395,11.1395,11.1021,11.0186,10.929,10.8482,10.7713,10.5905,10.5597,8.9748,9.1133,9.2056,8.8671,8.7833,8.694,8.3524,8.3632,8.4286,8.3717,8.5401,8.6786,8.6209,8.5662,0.0,0.0,0.0,8.2901,0.0,8.1939,8.2439,8.3862,8.7286,8.9671,8.994,9.121,9.2172,9.2441,9.1672,9.1941,9.3672,9.4287,9.5095,9.6259,9.6826,9.7019,9.6711,9.7519,9.8211,9.8788,9.9683,10.0481,10.1279,10.1279,10.152,10.1702,10.1702,10.1904,10.2289,10.3405,10.3212,10.2289,10.3982,10.4482,10.4405,10.5213,10.5905,10.6395,10.6395,10.6395,10.6395,10.6395,10.6587,10.679,10.651,10.7213,10.8021,10.779,10.8482,10.9098,10.829,10.8713,10.9213,10.8713,10.9406,11.0291,11.0598,11.0598,11.0598,11.0598,11.0406,11.0291,11.0598,11.0214,10.9598,10.8983,10.8906,10.8598,10.779,10.7713,10.7982,10.879,10.8906,10.929,11.0098,11.0714,11.1214,11.1511,11.1511,11.1511,11.1511,11.1511,11.1511,11.1511,11.1511,11.1406,11.1098,11.0214,10.929,10.8482,10.729,10.6713,9.097,9.2441,9.345,9.0364,8.9594,8.8872,8.6063,8.6055,8.6624,8.6363,8.7363,8.8325,8.8363,8.7209,0.0,0.0,0.0,0.0,0.0,8.09,8.1285,8.1823,8.5093,8.7478,8.7825,8.9056,8.9979,9.0287,8.921,8.9325,9.1056,9.221,9.3326,9.4489,9.5672,9.6288,9.6288,9.6826,9.7519,9.8365,9.9221,10.0106,10.0904,10.1212,10.1279,10.1279,10.1279,10.1279,10.1394,10.252,10.2289,10.151,10.3405,10.3905,10.3597,10.4723,10.5713,10.6395,10.6395,10.6395,10.6395,10.6395,10.6395,10.6395,10.6395,10.7021,10.779,10.8406,10.8713,10.8906,10.8598,10.8482,10.829,10.779,10.8482,10.9483,11.0109,11.0224,11.0224,11.0224,11.0224,11.0109,10.979,10.9713,10.9713,10.9406,10.9598,10.9213,10.7905,10.7905,10.829,10.879,10.8906,10.929,11.0098,11.0983,11.1511,11.1511,11.1511,11.1511,11.1511,11.1511,11.2203,11.3703,11.2291,11.2203,11.3703,11.1406,10.979,10.8906,10.8098,10.7213]}]]